[[{"header":{"parameterUnit":"m.s-1","parameterCategory":1,"la1":31.0,"la2":29.5877,"lo1":-88.7671,"lo2":-86.6584,"dy":0.0162,"dx":0.0185,"nx":115,"ny":88,"refTime":"2023-05-04T12:00:00:Z","depth":0,"parameterNumber":2,"parameterNumberName":"U-component_of_WINDS"},"data":[0.0,0.0,0.0,0.0,0.0,0.0,0.0,0.0,0.0,0.0,0.0,0.0,0.0,0.0,0.0,0.0,0.0,0.0,0.0,0.0,0.0,0.0,0.0,0.0,0.0,0.0,0.0,0.0,0.0,0.0,0.0,0.0,0.0,0.0,0.0,0.0,0.0,0.0,0.0,0.0,0.0,0.0,0.0,0.0,0.0,0.0,0.0,0.0,0.0,0.0,0.0,0.0,0.0,0.0,0.0,0.0,0.0,0.0,0.0,0.0,0.0,0.0,0.0,0.0,0.0,0.0,0.0,0.0,0.0,0.0,0.0,0.0,0.0,0.0,0.0,0.0,0.0,0.0,0.0,0.0,0.0,0.0,0.0,0.0,0.0,0.0,0.0,0.0,0.0,0.0,0.0,0.0,0.0,0.0,0.0,0.0,0.0,0.0,0.0,0.0,0.0,0.0,0.0,0.0,0.0,0.0,0.0,0.0,0.0,0.0,0.0,0.0,0.0,0.0,0.0,0.0,0.0,0.0,0.0,0.0,0.0,0.0,0.0,0.0,0.0,0.0,0.0,0.0,0.0,0.0,0.0,0.0,0.0,0.0,0.0,0.0,0.0,0.0,0.0,0.0,0.0,0.0,0.0,0.0,0.0,0.0,0.0,0.0,0.0,0.0,0.0,0.0,0.0,0.0,0.0,0.0,0.0,0.0,0.0,0.0,0.0,0.0,0.0,0.0,0.0,0.0,0.0,0.0,0.0,0.0,0.0,0.0,0.0,0.0,0.0,0.0,0.0,0.0,0.0,0.0,0.0,0.0,0.0,0.0,0.0,0.0,0.0,0.0,0.0,0.0,0.0,0.0,0.0,0.0,0.0,0.0,0.0,0.0,0.0,0.0,0.0,0.0,0.0,0.0,0.0,0.0,0.0,0.0,0.0,0.0,0.0,0.0,0.0,0.0,0.0,0.0,0.0,0.0,0.0,0.0,0.0,0.0,0.0,0.0,0.0,0.0,0.0,0.0,0.0,0.0,0.0,0.0,0.0,0.0,0.0,0.0,0.0,0.0,0.0,0.0,0.0,0.0,0.0,0.0,0.0,0.0,0.0,0.0,0.0,0.0,0.0,0.0,0.0,0.0,0.0,0.0,0.0,0.0,0.0,0.0,0.0,0.0,0.0,0.0,0.0,0.0,0.0,0.0,0.0,0.0,0.0,0.0,0.0,0.0,0.0,0.0,0.0,0.0,0.0,0.0,0.0,0.0,0.0,0.0,0.0,0.0,0.0,0.0,0.0,0.0,0.0,0.0,0.0,0.0,0.0,0.0,0.0,0.0,0.0,0.0,0.0,0.0,0.0,0.0,0.0,0.0,0.0,0.0,0.0,0.0,0.0,0.0,0.0,0.0,0.0,0.0,0.0,0.0,0.0,0.0,0.0,0.0,0.0,0.0,0.0,0.0,0.0,0.0,0.0,0.0,0.0,0.0,0.0,0.0,0.0,0.0,0.0,0.0,0.0,0.0,0.0,0.0,0.0,0.0,0.0,0.0,0.0,0.0,0.0,0.0,0.0,0.0,0.0,0.0,0.0,0.0,0.0,0.0,0.0,0.0,0.0,0.0,0.0,0.0,0.0,0.0,0.0,0.0,0.0,0.0,0.0,0.0,0.0,0.0,0.0,0.0,0.0,0.0,0.0,0.0,0.0,0.0,0.0,0.0,0.0,0.0,0.0,0.0,0.0,0.0,0.0,0.0,0.0,0.0,0.0,0.0,0.0,0.0,0.0,0.0,0.0,0.0,0.0,0.0,0.0,0.0,0.0,0.0,0.0,0.0,0.0,0.0,0.0,0.0,0.0,0.0,0.0,0.0,0.0,0.0,0.0,0.0,0.0,0.0,0.0,0.0,0.0,0.0,0.0,0.0,0.0,0.0,0.0,0.0,0.0,0.0,0.0,0.0,0.0,0.0,0.0,0.0,0.0,0.0,0.0,0.0,0.0,0.0,0.0,0.0,0.0,0.0,0.0,0.0,0.0,0.0,0.0,0.0,0.0,0.0,0.0,0.0,0.0,0.0,0.0,0.0,0.0,0.0,0.0,0.0,0.0,0.0,0.0,0.0,0.0,0.0,0.0,0.0,0.0,0.0,0.0,0.0,0.0,0.0,0.0,0.0,0.0,0.0,0.0,0.0,0.0,0.0,0.0,0.0,0.0,0.0,0.0,0.0,0.0,0.0,0.0,0.0,0.0,0.0,0.0,0.0,0.0,0.0,0.0,0.0,0.0,0.0,0.0,0.0,0.0,0.0,0.0,0.0,0.0,0.0,0.0,0.0,0.0,0.0,0.0,0.0,0.0,0.0,0.0,0.0,0.0,0.0,0.0,0.0,0.0,0.0,0.0,0.0,0.0,0.0,0.0,0.0,0.0,0.0,0.0,0.0,0.0,0.0,0.0,0.0,0.0,0.0,0.0,0.0,0.0,0.0,0.0,0.0,0.0,0.0,0.0,0.0,0.0,0.0,0.0,0.0,0.0,0.0,0.0,0.0,0.0,0.0,0.0,0.0,0.0,0.0,0.0,0.0,0.0,0.0,0.0,0.0,0.0,0.0,0.0,0.0,0.0,0.0,0.0,0.0,0.0,0.0,0.0,0.0,0.0,0.0,0.0,0.0,0.0,0.0,0.0,0.0,0.0,0.0,0.0,0.0,0.0,0.0,0.0,0.0,0.0,0.0,0.0,0.0,0.0,0.0,0.0,0.0,0.0,0.0,0.0,0.0,0.0,0.0,0.0,0.0,0.0,0.0,0.0,0.0,0.0,0.0,0.0,0.0,0.0,0.0,0.0,0.0,0.0,0.0,0.0,0.0,0.0,0.0,0.0,0.0,0.0,0.0,0.0,0.0,0.0,0.0,0.0,0.0,0.0,0.0,0.0,0.0,0.0,0.0,0.0,0.0,0.0,0.0,0.0,0.0,0.0,0.0,0.0,0.0,0.0,0.0,0.0,0.0,0.0,0.0,0.0,0.0,0.0,0.0,0.0,0.0,0.0,0.0,0.0,0.0,0.0,0.0,0.0,0.0,0.0,0.0,0.0,0.0,0.0,0.0,0.0,0.0,0.0,0.0,0.0,0.0,0.0,0.0,0.0,0.0,0.0,0.0,0.0,0.0,0.0,0.0,0.0,0.0,0.0,0.0,0.0,0.0,0.0,0.0,0.0,0.0,0.0,0.0,0.0,0.0,0.0,0.0,0.0,0.0,0.0,0.0,0.0,0.0,0.0,0.0,0.0,0.0,0.0,0.0,0.0,0.0,0.0,0.0,0.0,0.0,0.0,0.0,0.0,0.0,0.0,0.0,0.0,0.0,0.0,0.0,0.0,0.0,0.0,0.0,0.0,0.0,0.0,0.0,0.0,0.0,0.0,0.0,0.0,0.0,0.0,0.0,0.0,0.0,0.0,0.0,0.0,0.0,0.0,0.0,0.0,0.0,0.0,0.0,0.0,0.0,0.0,0.0,0.0,0.0,0.0,0.0,0.0,0.0,0.0,0.0,0.0,0.0,0.0,0.0,0.0,0.0,0.0,0.0,0.0,0.0,0.0,0.0,0.0,0.0,0.0,0.0,0.0,0.0,0.0,0.0,0.0,0.0,0.0,0.0,0.0,0.0,0.0,0.0,0.0,0.0,0.0,0.0,0.0,0.0,0.0,0.0,0.0,0.0,0.0,0.0,0.0,0.0,0.0,0.0,0.0,0.0,0.0,0.0,0.0,0.0,0.0,0.0,0.0,0.0,0.0,0.0,0.0,0.0,0.0,0.0,0.0,0.0,0.0,0.0,0.0,0.0,0.0,0.0,0.0,0.0,0.0,0.0,0.0,0.0,0.0,0.0,0.0,0.0,0.0,0.0,0.0,0.0,0.0,0.0,0.0,0.0,0.0,0.0,0.0,0.0,0.0,0.0,0.0,0.0,0.0,0.0,0.0,0.0,0.0,0.0,0.0,0.0,0.0,0.0,0.0,0.0,0.0,0.0,0.0,0.0,0.0,0.0,0.0,0.0,0.0,0.0,0.0,0.0,0.0,0.0,0.0,0.0,0.0,0.0,0.0,0.0,0.0,0.0,0.0,0.0,0.0,0.0,0.0,0.0,0.0,0.0,0.0,0.0,0.0,0.0,0.0,0.0,0.0,0.0,0.0,0.0,0.0,0.0,0.0,0.0,0.0,0.0,0.0,0.0,0.0,0.0,0.0,0.0,0.0,0.0,0.0,0.0,0.0,0.0,0.0,0.0,-3.3807,0.0,0.0,0.0,-3.368,0.0,0.0,0.0,0.0,0.0,0.0,0.0,0.0,0.0,0.0,0.0,0.0,0.0,0.0,0.0,0.0,0.0,0.0,0.0,0.0,0.0,0.0,0.0,0.0,0.0,0.0,0.0,0.0,0.0,0.0,0.0,0.0,0.0,0.0,0.0,0.0,0.0,0.0,0.0,0.0,0.0,0.0,0.0,0.0,0.0,0.0,0.0,0.0,0.0,0.0,0.0,0.0,0.0,0.0,0.0,0.0,0.0,0.0,0.0,0.0,0.0,0.0,0.0,0.0,0.0,0.0,0.0,0.0,0.0,0.0,0.0,0.0,0.0,0.0,0.0,0.0,0.0,0.0,0.0,0.0,0.0,0.0,0.0,0.0,0.0,0.0,0.0,0.0,0.0,0.0,0.0,0.0,0.0,0.0,0.0,0.0,0.0,0.0,0.0,0.0,0.0,0.0,0.0,0.0,0.0,0.0,0.0,0.0,0.0,0.0,-3.3881,-3.3842,-3.3815,-3.3766,-3.3698,0.0,0.0,0.0,0.0,0.0,0.0,0.0,0.0,0.0,0.0,0.0,0.0,0.0,0.0,0.0,0.0,0.0,0.0,0.0,0.0,0.0,0.0,0.0,0.0,0.0,0.0,0.0,0.0,0.0,0.0,0.0,0.0,0.0,0.0,0.0,0.0,0.0,0.0,0.0,0.0,0.0,0.0,0.0,0.0,0.0,0.0,0.0,0.0,0.0,0.0,0.0,0.0,0.0,0.0,0.0,0.0,0.0,0.0,0.0,0.0,0.0,0.0,0.0,0.0,0.0,0.0,0.0,0.0,0.0,0.0,0.0,0.0,0.0,0.0,0.0,0.0,0.0,0.0,0.0,0.0,0.0,0.0,0.0,0.0,0.0,0.0,0.0,0.0,0.0,0.0,0.0,0.0,0.0,0.0,0.0,0.0,0.0,0.0,0.0,0.0,0.0,0.0,0.0,0.0,0.0,0.0,0.0,0.0,0.0,0.0,0.0,0.0,-3.3847,-3.3766,-3.3671,0.0,0.0,0.0,0.0,0.0,0.0,0.0,0.0,0.0,0.0,0.0,0.0,0.0,0.0,0.0,0.0,0.0,0.0,0.0,0.0,0.0,0.0,0.0,0.0,0.0,0.0,0.0,0.0,0.0,0.0,0.0,0.0,0.0,0.0,0.0,0.0,0.0,0.0,0.0,0.0,0.0,0.0,0.0,0.0,0.0,0.0,0.0,0.0,0.0,0.0,0.0,0.0,0.0,0.0,0.0,0.0,0.0,0.0,0.0,0.0,0.0,0.0,0.0,0.0,0.0,0.0,0.0,0.0,0.0,0.0,0.0,0.0,0.0,0.0,0.0,0.0,0.0,0.0,0.0,0.0,0.0,0.0,0.0,0.0,0.0,0.0,0.0,0.0,0.0,0.0,0.0,0.0,0.0,0.0,0.0,0.0,0.0,0.0,0.0,0.0,0.0,0.0,0.0,0.0,0.0,0.0,0.0,0.0,0.0,0.0,-3.3895,-3.3895,-3.3829,0.0,-3.3619,0.0,0.0,0.0,0.0,0.0,0.0,0.0,0.0,0.0,0.0,0.0,0.0,0.0,0.0,0.0,0.0,0.0,0.0,0.0,0.0,0.0,0.0,0.0,0.0,0.0,0.0,0.0,0.0,0.0,0.0,0.0,0.0,0.0,0.0,0.0,0.0,0.0,0.0,0.0,0.0,0.0,0.0,0.0,0.0,0.0,0.0,0.0,0.0,0.0,0.0,0.0,0.0,0.0,0.0,0.0,0.0,0.0,0.0,0.0,0.0,0.0,0.0,0.0,0.0,0.0,0.0,0.0,0.0,0.0,0.0,0.0,0.0,0.0,0.0,0.0,0.0,0.0,0.0,0.0,0.0,0.0,0.0,0.0,0.0,0.0,0.0,0.0,0.0,0.0,0.0,0.0,0.0,0.0,0.0,0.0,0.0,0.0,0.0,0.0,0.0,0.0,0.0,0.0,0.0,0.0,0.0,0.0,0.0,0.0,0.0,-3.4023,-3.4023,-3.3887,-3.373,0.0,0.0,0.0,0.0,0.0,0.0,0.0,0.0,0.0,0.0,0.0,0.0,0.0,0.0,0.0,0.0,0.0,0.0,0.0,0.0,0.0,0.0,0.0,0.0,0.0,0.0,0.0,0.0,0.0,0.0,0.0,0.0,0.0,0.0,0.0,0.0,0.0,0.0,0.0,0.0,0.0,0.0,0.0,0.0,0.0,0.0,0.0,0.0,0.0,0.0,0.0,0.0,0.0,0.0,0.0,0.0,0.0,0.0,0.0,0.0,0.0,0.0,0.0,0.0,0.0,0.0,0.0,0.0,0.0,0.0,0.0,0.0,0.0,0.0,0.0,0.0,0.0,0.0,0.0,0.0,0.0,0.0,0.0,0.0,0.0,0.0,0.0,0.0,0.0,0.0,0.0,0.0,0.0,0.0,0.0,0.0,0.0,0.0,0.0,0.0,0.0,0.0,0.0,0.0,0.0,0.0,0.0,0.0,0.0,0.0,-3.4086,-3.4086,-3.4036,-3.39,-3.3712,-3.3553,0.0,0.0,0.0,0.0,0.0,0.0,0.0,0.0,0.0,0.0,0.0,0.0,0.0,0.0,0.0,0.0,0.0,0.0,0.0,0.0,0.0,0.0,0.0,0.0,0.0,0.0,0.0,0.0,0.0,0.0,0.0,0.0,0.0,0.0,0.0,0.0,0.0,0.0,0.0,0.0,0.0,0.0,0.0,0.0,0.0,0.0,0.0,0.0,0.0,0.0,0.0,0.0,0.0,0.0,0.0,0.0,0.0,0.0,0.0,0.0,0.0,0.0,0.0,0.0,0.0,0.0,0.0,0.0,0.0,0.0,0.0,0.0,0.0,0.0,0.0,0.0,0.0,0.0,0.0,0.0,0.0,0.0,0.0,0.0,0.0,0.0,0.0,0.0,0.0,0.0,0.0,0.0,0.0,0.0,0.0,0.0,0.0,0.0,0.0,0.0,0.0,0.0,0.0,0.0,0.0,0.0,0.0,0.0,-3.4011,-3.4055,-3.4036,-3.3908,-3.3847,-3.3739,0.0,0.0,0.0,0.0,0.0,0.0,0.0,0.0,0.0,0.0,0.0,0.0,0.0,0.0,0.0,0.0,0.0,0.0,0.0,0.0,0.0,0.0,0.0,0.0,0.0,0.0,0.0,0.0,0.0,0.0,0.0,0.0,0.0,0.0,0.0,0.0,0.0,0.0,0.0,0.0,0.0,0.0,0.0,0.0,0.0,0.0,0.0,0.0,0.0,0.0,0.0,0.0,0.0,0.0,0.0,0.0,0.0,0.0,0.0,0.0,0.0,0.0,0.0,0.0,0.0,0.0,0.0,0.0,0.0,0.0,0.0,0.0,0.0,0.0,0.0,0.0,0.0,0.0,0.0,0.0,0.0,0.0,0.0,0.0,0.0,0.0,0.0,0.0,0.0,0.0,0.0,0.0,0.0,0.0,0.0,0.0,0.0,0.0,0.0,0.0,0.0,0.0,0.0,0.0,0.0,0.0,0.0,0.0,0.0,-3.4074,-3.4086,-3.4036,-3.3913,-3.3829,-3.3726,0.0,0.0,0.0,0.0,0.0,0.0,0.0,0.0,0.0,0.0,0.0,0.0,0.0,0.0,0.0,0.0,0.0,0.0,0.0,0.0,0.0,0.0,0.0,0.0,0.0,0.0,0.0,0.0,0.0,0.0,0.0,0.0,0.0,0.0,0.0,0.0,0.0,0.0,0.0,0.0,0.0,0.0,0.0,0.0,0.0,0.0,0.0,0.0,0.0,0.0,0.0,0.0,0.0,0.0,0.0,0.0,0.0,0.0,0.0,0.0,0.0,0.0,0.0,0.0,0.0,0.0,0.0,0.0,0.0,0.0,0.0,0.0,0.0,0.0,0.0,0.0,0.0,0.0,0.0,0.0,0.0,0.0,0.0,0.0,0.0,0.0,0.0,0.0,0.0,0.0,0.0,0.0,0.0,0.0,0.0,0.0,0.0,0.0,0.0,0.0,0.0,0.0,0.0,0.0,0.0,0.0,0.0,0.0,0.0,-3.4061,0.0,-3.3998,-3.3895,-3.3793,-3.3671,0.0,0.0,0.0,0.0,0.0,0.0,0.0,0.0,0.0,0.0,0.0,0.0,0.0,0.0,0.0,0.0,0.0,0.0,0.0,0.0,0.0,0.0,0.0,0.0,0.0,0.0,0.0,0.0,0.0,0.0,0.0,0.0,0.0,0.0,0.0,0.0,0.0,0.0,0.0,0.0,0.0,0.0,0.0,0.0,0.0,0.0,0.0,0.0,0.0,0.0,0.0,0.0,0.0,0.0,0.0,0.0,0.0,0.0,0.0,0.0,0.0,0.0,0.0,0.0,0.0,0.0,0.0,0.0,0.0,0.0,0.0,0.0,0.0,0.0,0.0,0.0,0.0,0.0,0.0,0.0,0.0,0.0,0.0,0.0,0.0,0.0,0.0,0.0,0.0,0.0,0.0,0.0,0.0,0.0,0.0,0.0,0.0,0.0,0.0,0.0,0.0,0.0,0.0,0.0,0.0,0.0,0.0,0.0,-3.3952,-3.3998,-3.3934,-3.3908,-3.3913,-3.3712,-3.3605,0.0,0.0,0.0,0.0,0.0,0.0,0.0,0.0,0.0,0.0,0.0,0.0,0.0,0.0,0.0,0.0,0.0,0.0,0.0,0.0,0.0,0.0,0.0,0.0,0.0,0.0,0.0,0.0,0.0,0.0,0.0,0.0,0.0,0.0,0.0,0.0,0.0,0.0,0.0,0.0,0.0,0.0,0.0,0.0,0.0,0.0,0.0,0.0,0.0,0.0,0.0,0.0,0.0,0.0,0.0,0.0,0.0,0.0,0.0,0.0,0.0,0.0,0.0,0.0,0.0,0.0,0.0,0.0,0.0,0.0,0.0,0.0,0.0,0.0,0.0,0.0,0.0,0.0,0.0,0.0,0.0,0.0,0.0,0.0,0.0,0.0,0.0,0.0,0.0,0.0,0.0,0.0,0.0,0.0,0.0,0.0,0.0,0.0,0.0,0.0,0.0,0.0,0.0,0.0,0.0,0.0,0.0,0.0,0.0,-3.4098,-3.3959,-3.3921,-3.3959,-3.3834,-3.3698,0.0,0.0,0.0,0.0,0.0,0.0,0.0,0.0,0.0,0.0,0.0,0.0,0.0,0.0,0.0,0.0,0.0,0.0,0.0,0.0,0.0,0.0,0.0,0.0,0.0,0.0,0.0,0.0,0.0,0.0,0.0,0.0,0.0,0.0,0.0,0.0,0.0,0.0,0.0,0.0,0.0,0.0,0.0,0.0,0.0,0.0,0.0,0.0,0.0,0.0,0.0,0.0,0.0,0.0,0.0,0.0,0.0,0.0,0.0,0.0,0.0,0.0,0.0,0.0,0.0,0.0,0.0,0.0,0.0,0.0,0.0,0.0,0.0,0.0,0.0,0.0,0.0,0.0,0.0,0.0,0.0,0.0,0.0,0.0,0.0,0.0,0.0,0.0,0.0,0.0,0.0,0.0,0.0,0.0,0.0,0.0,0.0,0.0,0.0,0.0,0.0,0.0,0.0,0.0,0.0,0.0,0.0,0.0,0.0,-3.5433,-3.5302,-3.5262,-3.5302,-3.4871,-3.458,-3.448,0.0,0.0,0.0,0.0,0.0,0.0,0.0,0.0,0.0,0.0,0.0,0.0,0.0,0.0,0.0,0.0,0.0,0.0,0.0,0.0,0.0,0.0,0.0,0.0,0.0,0.0,0.0,0.0,0.0,0.0,0.0,0.0,0.0,0.0,0.0,0.0,0.0,0.0,0.0,0.0,0.0,0.0,0.0,0.0,0.0,0.0,0.0,0.0,0.0,0.0,0.0,0.0,0.0,0.0,0.0,0.0,0.0,0.0,0.0,0.0,0.0,0.0,0.0,0.0,0.0,0.0,0.0,0.0,0.0,0.0,0.0,0.0,0.0,0.0,0.0,0.0,0.0,0.0,0.0,0.0,0.0,0.0,0.0,0.0,0.0,0.0,0.0,0.0,0.0,0.0,0.0,0.0,0.0,0.0,0.0,0.0,0.0,0.0,0.0,0.0,0.0,0.0,0.0,0.0,0.0,0.0,0.0,0.0,-3.7798,-3.7779,-3.7694,-3.7544,-3.6589,-3.6082,0.0,0.0,0.0,0.0,0.0,0.0,0.0,0.0,0.0,0.0,0.0,0.0,0.0,0.0,0.0,0.0,0.0,0.0,0.0,0.0,0.0,0.0,0.0,0.0,0.0,0.0,0.0,0.0,0.0,0.0,0.0,0.0,0.0,0.0,0.0,0.0,0.0,0.0,0.0,0.0,0.0,0.0,0.0,0.0,0.0,0.0,0.0,0.0,0.0,0.0,0.0,0.0,0.0,0.0,0.0,0.0,0.0,0.0,0.0,0.0,0.0,0.0,0.0,0.0,0.0,0.0,0.0,0.0,0.0,0.0,0.0,0.0,0.0,0.0,0.0,0.0,0.0,0.0,0.0,0.0,0.0,0.0,0.0,0.0,0.0,0.0,0.0,0.0,0.0,0.0,0.0,0.0,0.0,0.0,0.0,0.0,0.0,0.0,0.0,0.0,0.0,0.0,0.0,0.0,0.0,0.0,0.0,0.0,0.0,-4.0155,-4.0696,-4.0164,-3.8526,-3.7569,-3.7043,0.0,0.0,0.0,0.0,0.0,0.0,0.0,0.0,0.0,0.0,0.0,0.0,0.0,0.0,0.0,0.0,0.0,0.0,0.0,0.0,0.0,0.0,0.0,0.0,0.0,0.0,0.0,0.0,0.0,0.0,0.0,0.0,0.0,0.0,0.0,0.0,0.0,0.0,0.0,0.0,0.0,0.0,0.0,0.0,0.0,0.0,0.0,0.0,0.0,0.0,0.0,0.0,0.0,0.0,0.0,0.0,0.0,0.0,0.0,0.0,0.0,0.0,0.0,0.0,0.0,0.0,0.0,0.0,0.0,0.0,0.0,0.0,0.0,0.0,0.0,0.0,0.0,0.0,0.0,0.0,0.0,0.0,0.0,0.0,0.0,0.0,0.0,0.0,0.0,0.0,0.0,0.0,0.0,0.0,0.0,0.0,0.0,0.0,0.0,0.0,0.0,0.0,0.0,0.0,0.0,0.0,0.0,0.0,-4.0141,-4.1095,-4.213,-4.2056,-4.0763,-3.9083,-3.8218,0.0,0.0,0.0,0.0,0.0,0.0,0.0,0.0,0.0,0.0,0.0,0.0,0.0,0.0,0.0,0.0,0.0,0.0,0.0,0.0,0.0,0.0,0.0,0.0,0.0,0.0,0.0,0.0,0.0,0.0,0.0,0.0,0.0,0.0,0.0,0.0,0.0,0.0,0.0,0.0,0.0,0.0,0.0,0.0,0.0,0.0,0.0,0.0,0.0,0.0,0.0,0.0,0.0,0.0,0.0,0.0,0.0,0.0,0.0,0.0,0.0,0.0,0.0,0.0,0.0,0.0,0.0,0.0,0.0,0.0,0.0,0.0,0.0,0.0,0.0,0.0,0.0,0.0,0.0,0.0,0.0,0.0,0.0,0.0,0.0,0.0,0.0,0.0,0.0,0.0,0.0,0.0,0.0,0.0,0.0,0.0,0.0,0.0,0.0,0.0,0.0,0.0,0.0,0.0,0.0,0.0,0.0,0.0,-4.1134,-4.1242,-4.2624,-4.3394,-4.3321,-4.0762,-3.946,0.0,0.0,0.0,0.0,0.0,0.0,0.0,0.0,0.0,0.0,0.0,0.0,0.0,0.0,0.0,0.0,0.0,0.0,0.0,0.0,0.0,0.0,0.0,0.0,0.0,0.0,0.0,0.0,0.0,0.0,0.0,0.0,0.0,0.0,0.0,0.0,0.0,0.0,0.0,0.0,0.0,0.0,0.0,0.0,0.0,0.0,0.0,0.0,0.0,0.0,0.0,0.0,0.0,0.0,0.0,0.0,0.0,0.0,0.0,0.0,0.0,0.0,0.0,0.0,0.0,0.0,0.0,0.0,0.0,0.0,0.0,0.0,0.0,0.0,0.0,0.0,0.0,0.0,0.0,0.0,0.0,0.0,0.0,0.0,0.0,0.0,0.0,0.0,0.0,0.0,0.0,0.0,0.0,0.0,0.0,0.0,0.0,0.0,0.0,0.0,0.0,0.0,0.0,0.0,0.0,0.0,0.0,0.0,-4.1254,-4.2031,-4.2829,-4.3305,-4.3394,-4.1359,-4.0309,0.0,0.0,0.0,0.0,0.0,0.0,0.0,0.0,0.0,0.0,0.0,0.0,0.0,0.0,0.0,0.0,0.0,0.0,0.0,0.0,0.0,0.0,0.0,0.0,0.0,0.0,0.0,0.0,0.0,0.0,0.0,0.0,0.0,0.0,0.0,0.0,0.0,0.0,0.0,0.0,0.0,0.0,0.0,0.0,0.0,0.0,0.0,0.0,-3.8667,0.0,0.0,0.0,0.0,0.0,0.0,0.0,0.0,0.0,0.0,0.0,0.0,0.0,0.0,0.0,0.0,0.0,0.0,0.0,0.0,0.0,0.0,0.0,0.0,0.0,0.0,0.0,0.0,0.0,0.0,0.0,0.0,0.0,0.0,0.0,0.0,0.0,0.0,0.0,0.0,0.0,0.0,0.0,0.0,0.0,0.0,0.0,0.0,0.0,0.0,0.0,0.0,0.0,0.0,0.0,0.0,0.0,0.0,0.0,-4.1292,-4.222,-4.2831,-4.3178,-4.3214,-4.1742,-4.0818,0.0,0.0,0.0,0.0,0.0,0.0,0.0,0.0,0.0,0.0,0.0,0.0,0.0,0.0,0.0,0.0,0.0,0.0,0.0,0.0,0.0,0.0,0.0,0.0,0.0,0.0,0.0,0.0,0.0,0.0,0.0,0.0,0.0,0.0,0.0,0.0,0.0,0.0,0.0,0.0,0.0,0.0,0.0,0.0,0.0,0.0,0.0,0.0,0.0,0.0,0.0,0.0,0.0,0.0,0.0,0.0,0.0,0.0,0.0,0.0,0.0,0.0,0.0,0.0,0.0,0.0,0.0,0.0,0.0,0.0,0.0,0.0,0.0,0.0,0.0,0.0,0.0,0.0,0.0,0.0,0.0,0.0,0.0,0.0,0.0,0.0,0.0,0.0,0.0,0.0,0.0,0.0,0.0,0.0,0.0,0.0,0.0,0.0,0.0,0.0,0.0,0.0,0.0,0.0,0.0,0.0,0.0,-4.0593,-4.1348,-4.2317,-4.285,-4.3086,-4.3012,-4.1952,-4.1047,-4.0402,0.0,0.0,0.0,0.0,0.0,0.0,0.0,0.0,0.0,0.0,0.0,0.0,0.0,0.0,0.0,0.0,0.0,0.0,0.0,0.0,0.0,0.0,0.0,0.0,0.0,0.0,0.0,0.0,0.0,0.0,0.0,0.0,0.0,0.0,0.0,0.0,0.0,0.0,-4.0265,-4.018,0.0,0.0,0.0,0.0,0.0,0.0,0.0,0.0,-4.0514,0.0,0.0,0.0,0.0,0.0,0.0,0.0,0.0,0.0,0.0,0.0,0.0,0.0,0.0,0.0,0.0,0.0,0.0,0.0,0.0,0.0,0.0,0.0,0.0,0.0,0.0,0.0,0.0,0.0,0.0,0.0,0.0,0.0,0.0,0.0,0.0,0.0,0.0,0.0,0.0,0.0,0.0,0.0,0.0,0.0,0.0,0.0,0.0,0.0,0.0,0.0,0.0,0.0,0.0,0.0,0.0,-4.0703,-4.0735,-4.1485,-4.2995,-4.3087,-4.2993,-4.275,-4.1703,-4.0774,-3.9968,0.0,0.0,0.0,0.0,0.0,0.0,0.0,0.0,0.0,0.0,0.0,0.0,0.0,0.0,0.0,0.0,0.0,0.0,0.0,0.0,0.0,0.0,0.0,0.0,0.0,0.0,0.0,0.0,0.0,0.0,0.0,0.0,0.0,0.0,0.0,0.0,0.0,0.0,0.0,-4.0476,-4.0383,0.0,0.0,0.0,0.0,0.0,0.0,0.0,0.0,-4.0681,0.0,0.0,0.0,0.0,0.0,0.0,0.0,0.0,0.0,0.0,0.0,0.0,0.0,0.0,0.0,0.0,0.0,0.0,0.0,0.0,0.0,0.0,0.0,0.0,0.0,0.0,0.0,0.0,0.0,0.0,0.0,0.0,0.0,0.0,0.0,0.0,0.0,0.0,0.0,0.0,0.0,0.0,0.0,0.0,0.0,0.0,0.0,0.0,0.0,0.0,0.0,0.0,0.0,0.0,0.0,-4.0853,-4.1209,-4.1887,-4.2884,-4.2862,-4.2727,-4.2476,-4.1582,-4.0713,0.0,0.0,0.0,0.0,0.0,0.0,0.0,0.0,0.0,0.0,0.0,0.0,0.0,0.0,0.0,0.0,0.0,0.0,0.0,0.0,0.0,0.0,0.0,0.0,0.0,0.0,0.0,0.0,0.0,0.0,0.0,0.0,0.0,0.0,0.0,0.0,0.0,0.0,0.0,0.0,-4.0882,-4.0933,-4.166,0.0,0.0,0.0,0.0,0.0,0.0,-4.0919,-4.0425,0.0,0.0,0.0,0.0,0.0,0.0,0.0,0.0,0.0,0.0,0.0,0.0,0.0,0.0,0.0,0.0,0.0,0.0,0.0,0.0,0.0,0.0,0.0,0.0,0.0,0.0,0.0,0.0,0.0,0.0,0.0,0.0,0.0,0.0,0.0,0.0,0.0,0.0,0.0,0.0,0.0,0.0,0.0,0.0,0.0,0.0,0.0,0.0,0.0,0.0,0.0,0.0,0.0,0.0,0.0,-4.0891,-4.1592,-4.2232,-4.2714,-4.2689,-4.2532,-4.229,-4.1379,-4.0495,0.0,0.0,0.0,0.0,0.0,0.0,0.0,0.0,0.0,0.0,0.0,0.0,0.0,0.0,0.0,0.0,0.0,0.0,0.0,0.0,0.0,0.0,0.0,0.0,0.0,0.0,0.0,0.0,0.0,0.0,0.0,0.0,0.0,0.0,0.0,0.0,0.0,0.0,0.0,0.0,0.0,-4.1474,-4.2168,-4.1677,0.0,0.0,0.0,0.0,-4.0973,-4.0774,0.0,0.0,0.0,0.0,0.0,0.0,0.0,0.0,0.0,0.0,0.0,0.0,0.0,0.0,0.0,0.0,0.0,0.0,0.0,0.0,0.0,0.0,0.0,0.0,0.0,0.0,0.0,0.0,0.0,0.0,0.0,0.0,0.0,0.0,0.0,0.0,0.0,0.0,0.0,0.0,0.0,0.0,0.0,0.0,0.0,0.0,0.0,0.0,0.0,0.0,0.0,0.0,0.0,0.0,0.0,0.0,-4.0808,-4.1522,-4.2232,-4.2846,-4.2863,-4.2689,-4.229,-4.0879,-3.9842,0.0,0.0,0.0,0.0,0.0,0.0,0.0,0.0,0.0,0.0,0.0,0.0,0.0,0.0,0.0,0.0,0.0,0.0,0.0,0.0,0.0,0.0,0.0,0.0,0.0,0.0,0.0,0.0,0.0,0.0,0.0,0.0,0.0,0.0,0.0,0.0,0.0,0.0,0.0,0.0,0.0,-4.1457,-4.2185,-4.1677,-4.1204,0.0,0.0,-4.1533,-4.1516,-4.1679,0.0,0.0,0.0,0.0,0.0,0.0,0.0,0.0,0.0,0.0,0.0,0.0,0.0,0.0,0.0,0.0,0.0,0.0,0.0,0.0,0.0,0.0,0.0,0.0,0.0,0.0,0.0,0.0,0.0,0.0,0.0,0.0,0.0,0.0,0.0,0.0,0.0,0.0,0.0,0.0,0.0,0.0,0.0,0.0,0.0,0.0,0.0,0.0,0.0,0.0,0.0,0.0,0.0,0.0,0.0,-4.0527,-4.0827,-4.1977,-4.263,-4.271,-4.2728,-4.2591,-4.229,-4.0731,-3.9773,0.0,0.0,0.0,0.0,0.0,0.0,0.0,0.0,0.0,0.0,0.0,0.0,0.0,0.0,0.0,0.0,0.0,0.0,0.0,0.0,0.0,0.0,0.0,0.0,0.0,0.0,0.0,0.0,0.0,0.0,0.0,0.0,0.0,0.0,0.0,0.0,0.0,0.0,0.0,0.0,0.0,0.0,-4.2226,-4.1856,0.0,0.0,0.0,-4.1616,-4.1106,0.0,0.0,0.0,0.0,0.0,0.0,0.0,0.0,0.0,0.0,0.0,0.0,0.0,0.0,0.0,0.0,0.0,0.0,0.0,0.0,0.0,0.0,0.0,0.0,0.0,0.0,0.0,0.0,0.0,0.0,0.0,0.0,0.0,0.0,0.0,0.0,0.0,0.0,0.0,0.0,0.0,0.0,0.0,0.0,0.0,0.0,0.0,0.0,0.0,0.0,0.0,0.0,0.0,0.0,0.0,0.0,0.0,-4.081,-4.2268,-4.2918,-4.2689,-4.2688,-4.2589,-4.2353,-4.0929,0.0,0.0,0.0,0.0,0.0,0.0,0.0,0.0,0.0,0.0,0.0,0.0,0.0,0.0,0.0,0.0,0.0,0.0,0.0,0.0,0.0,0.0,0.0,0.0,0.0,0.0,0.0,-3.5836,0.0,0.0,0.0,0.0,0.0,0.0,0.0,0.0,0.0,0.0,0.0,0.0,0.0,0.0,-4.1936,-4.2142,-4.1963,-4.1904,0.0,0.0,-4.1354,-4.0793,-4.1667,-4.1743,0.0,0.0,0.0,0.0,0.0,0.0,0.0,0.0,0.0,0.0,0.0,0.0,0.0,0.0,0.0,0.0,0.0,0.0,0.0,0.0,0.0,0.0,0.0,0.0,0.0,0.0,0.0,0.0,0.0,0.0,0.0,0.0,0.0,0.0,0.0,0.0,0.0,0.0,0.0,0.0,0.0,0.0,0.0,0.0,0.0,0.0,0.0,0.0,0.0,0.0,0.0,0.0,0.0,0.0,-4.0756,-4.076,-4.2159,-4.2919,-4.29,-4.29,-4.2786,-4.2571,-4.1683,-4.0701,0.0,0.0,0.0,0.0,0.0,0.0,0.0,0.0,0.0,0.0,0.0,0.0,0.0,0.0,0.0,0.0,0.0,0.0,0.0,0.0,0.0,0.0,0.0,0.0,0.0,0.0,0.0,0.0,0.0,0.0,0.0,0.0,0.0,0.0,0.0,0.0,0.0,0.0,0.0,0.0,0.0,-4.198,-4.1777,-4.1832,-4.2005,0.0,-4.1331,-4.0631,-4.0922,-4.1628,-4.1629,-4.0174,0.0,0.0,0.0,0.0,0.0,0.0,0.0,0.0,0.0,0.0,0.0,0.0,0.0,0.0,0.0,0.0,0.0,0.0,0.0,0.0,0.0,0.0,0.0,0.0,0.0,0.0,0.0,0.0,0.0,0.0,0.0,0.0,0.0,0.0,0.0,0.0,0.0,0.0,0.0,0.0,0.0,0.0,0.0,0.0,0.0,0.0,0.0,0.0,0.0,0.0,0.0,0.0,0.0,-4.0792,-4.0775,-4.2177,-4.2919,-4.2919,-4.2919,-4.3099,-4.3508,-4.2127,-4.1183,0.0,0.0,0.0,0.0,0.0,0.0,0.0,0.0,0.0,0.0,0.0,0.0,0.0,0.0,0.0,0.0,0.0,0.0,0.0,0.0,0.0,0.0,0.0,0.0,0.0,0.0,0.0,0.0,-3.7059,-3.7131,-3.6977,0.0,0.0,0.0,0.0,0.0,0.0,0.0,0.0,0.0,0.0,-4.1517,-4.1935,-4.1915,0.0,0.0,-4.1891,-4.1455,-4.1173,-4.1652,-4.1484,-3.9778,-3.9704,0.0,0.0,0.0,0.0,0.0,0.0,0.0,0.0,0.0,0.0,0.0,0.0,0.0,0.0,0.0,0.0,0.0,0.0,0.0,0.0,0.0,0.0,0.0,0.0,0.0,0.0,0.0,0.0,0.0,0.0,0.0,0.0,0.0,0.0,0.0,0.0,0.0,0.0,0.0,0.0,0.0,0.0,0.0,0.0,0.0,0.0,0.0,0.0,0.0,0.0,0.0,0.0,-4.079,-4.0704,-4.2196,-4.2938,-4.2919,-4.308,-4.3478,-4.3983,-4.2974,-4.2246,0.0,0.0,0.0,0.0,0.0,0.0,0.0,0.0,0.0,0.0,0.0,0.0,0.0,0.0,0.0,0.0,0.0,0.0,0.0,0.0,0.0,0.0,0.0,0.0,0.0,0.0,0.0,0.0,-3.7506,-3.771,-3.7868,0.0,0.0,0.0,0.0,0.0,0.0,0.0,0.0,0.0,0.0,-4.1347,-4.1671,-4.1586,-4.1588,-4.1675,-4.1452,-4.1135,-4.0753,-4.1054,-4.0841,-3.9436,0.0,0.0,0.0,0.0,0.0,0.0,0.0,0.0,0.0,0.0,0.0,0.0,0.0,0.0,0.0,0.0,0.0,0.0,0.0,0.0,0.0,0.0,0.0,0.0,0.0,0.0,0.0,0.0,0.0,0.0,-3.4917,0.0,0.0,0.0,0.0,0.0,0.0,0.0,0.0,0.0,0.0,0.0,0.0,0.0,0.0,0.0,0.0,0.0,0.0,0.0,0.0,0.0,0.0,-4.0771,-4.0528,-4.2214,-4.303,-4.2937,-4.3546,-4.3884,-4.3956,-4.4417,-4.399,-4.2503,0.0,0.0,0.0,0.0,0.0,0.0,0.0,0.0,0.0,0.0,0.0,0.0,0.0,0.0,0.0,0.0,0.0,0.0,0.0,0.0,0.0,0.0,0.0,0.0,0.0,0.0,-3.6537,-3.7075,-3.7962,0.0,0.0,0.0,0.0,0.0,0.0,0.0,0.0,0.0,0.0,-4.0669,-4.1618,-4.0702,-4.0812,-4.0952,-4.0637,-3.9696,-3.9125,-3.9533,-3.9566,-3.9487,0.0,0.0,0.0,0.0,0.0,0.0,0.0,0.0,0.0,0.0,0.0,0.0,0.0,0.0,0.0,0.0,0.0,0.0,0.0,0.0,0.0,0.0,0.0,0.0,0.0,0.0,0.0,-3.6903,-3.6065,0.0,0.0,0.0,0.0,0.0,0.0,0.0,0.0,0.0,0.0,0.0,-3.6628,-3.6592,0.0,0.0,0.0,0.0,0.0,0.0,0.0,0.0,0.0,0.0,0.0,0.0,-4.0806,-4.0845,-4.2214,-4.3248,-4.3812,-4.3951,-4.4543,-4.5592,-4.5171,-4.4121,-4.242,0.0,0.0,0.0,0.0,0.0,0.0,0.0,0.0,0.0,0.0,0.0,0.0,0.0,0.0,0.0,0.0,0.0,0.0,0.0,0.0,0.0,0.0,0.0,0.0,0.0,-3.7528,0.0,0.0,0.0,0.0,0.0,0.0,0.0,0.0,0.0,0.0,0.0,-3.9664,-3.9944,-4.0381,-4.0677,-4.0701,-4.1101,-4.1294,0.0,0.0,0.0,0.0,0.0,0.0,0.0,0.0,0.0,0.0,0.0,0.0,0.0,0.0,-3.6944,-3.6765,-3.6973,-3.7162,-3.7014,0.0,0.0,0.0,0.0,0.0,0.0,0.0,0.0,0.0,0.0,0.0,0.0,0.0,0.0,-3.8101,0.0,-3.6901,0.0,0.0,0.0,0.0,0.0,0.0,0.0,0.0,-3.6911,-3.7317,-3.753,-3.777,-3.8177,0.0,-3.8583,-3.8057,0.0,0.0,0.0,0.0,0.0,0.0,0.0,0.0,-4.0823,-4.0896,-4.225,-4.3375,-4.4174,-4.4349,-4.5086,-4.637,-4.5729,-4.4638,-4.3126,-4.1573,-4.0396,0.0,0.0,0.0,0.0,0.0,0.0,0.0,0.0,0.0,0.0,0.0,0.0,0.0,0.0,0.0,0.0,0.0,0.0,0.0,0.0,0.0,0.0,0.0,-3.8564,0.0,0.0,0.0,0.0,0.0,0.0,0.0,0.0,0.0,-3.9703,-3.9654,-3.9741,-4.0027,-4.0161,-4.0229,-4.0262,0.0,0.0,0.0,0.0,0.0,0.0,0.0,-3.8263,-3.7966,-3.7972,-3.8172,-3.8583,-3.8523,-3.842,-3.842,0.0,0.0,-3.7319,-3.7372,-3.7556,-3.7419,-3.7522,-3.7571,-3.7454,-3.7404,-3.7105,0.0,0.0,0.0,0.0,0.0,0.0,0.0,0.0,-4.0835,-3.9569,0.0,-3.7884,0.0,0.0,0.0,0.0,0.0,-3.6872,0.0,0.0,-3.8794,-3.9157,-3.8432,-3.9201,-3.9646,-3.9671,-3.9613,-3.9946,-4.0648,-4.0457,0.0,0.0,0.0,0.0,0.0,0.0,-4.0859,-4.0814,-4.2341,-4.3448,-4.4151,-4.4811,-4.5544,-4.6299,-4.6105,-4.5519,-4.4607,-4.3108,-4.193,-4.1092,-3.97,0.0,0.0,0.0,0.0,0.0,0.0,0.0,0.0,0.0,0.0,0.0,0.0,0.0,0.0,0.0,0.0,0.0,0.0,0.0,0.0,-3.9087,0.0,0.0,0.0,0.0,0.0,0.0,0.0,0.0,0.0,0.0,-3.9447,-3.97,-3.9783,-3.9346,0.0,0.0,0.0,0.0,-3.9298,-3.8636,-3.7941,-3.7548,-3.7429,-3.8153,-3.8851,-3.9161,0.0,0.0,-4.0404,-3.9873,-3.9484,-3.9484,-3.9963,-3.9813,-3.7928,-3.7644,-3.7569,-3.7539,-3.7554,-3.7494,-3.7494,-3.7614,-3.7389,-4.4249,0.0,0.0,0.0,0.0,-4.2681,-4.2678,-4.2686,-4.2442,-4.1679,-4.0617,-4.0541,0.0,0.0,0.0,0.0,0.0,0.0,-3.8075,-3.8082,-3.9161,-3.9513,-3.927,-4.0065,-4.0741,-4.1329,-4.1903,-4.2556,-4.3269,-4.3191,-4.1991,-3.976,0.0,0.0,0.0,0.0,-4.1099,-4.1685,-4.3067,-4.4245,-4.5101,-4.5743,-4.6398,-4.6985,-4.633,-4.5537,-4.4642,-4.3661,-4.2519,-4.1181,-4.0681,0.0,0.0,0.0,0.0,0.0,0.0,0.0,0.0,0.0,0.0,0.0,0.0,0.0,0.0,0.0,0.0,0.0,0.0,0.0,-3.9285,-4.0348,-4.0673,0.0,0.0,0.0,0.0,0.0,0.0,0.0,0.0,0.0,-3.9877,-3.9272,-3.8945,0.0,0.0,-3.8889,-3.8684,-3.9265,-3.974,-3.9902,-3.9745,0.0,-4.0019,-3.983,-3.9619,-3.9551,-4.0061,-4.0434,-4.0412,-4.0636,-4.0816,-4.0816,-4.0965,-4.0891,-4.0397,-3.9858,-3.9394,-3.8975,-3.8841,-3.882,-3.882,-3.8805,-3.8646,-4.6283,-4.5285,-4.3779,-4.3339,-4.3607,-4.3612,-4.3809,-4.4114,-4.3794,-4.3134,-4.2282,-4.2228,-4.127,-3.97,-3.9496,0.0,0.0,0.0,-3.9709,-3.9948,-4.0402,-4.0622,-4.066,-4.1411,-4.2055,-4.253,-4.3342,-4.3985,-4.4426,-4.3978,-4.2869,-4.1211,0.0,0.0,-4.028,-4.095,-4.1665,-4.2486,-4.3539,-4.4678,-4.588,-4.6617,-4.7087,-4.7284,-4.6787,-4.6086,-4.5106,-4.4335,-4.3358,-4.2109,-4.1431,-4.0681,0.0,0.0,0.0,0.0,0.0,0.0,0.0,0.0,0.0,0.0,0.0,-3.9082,-3.8282,0.0,0.0,0.0,-3.9665,-3.9876,-4.0105,-4.0825,0.0,0.0,0.0,0.0,0.0,0.0,0.0,-3.9661,-4.0237,-4.051,-3.9968,-3.9403,-3.9121,-3.9406,-3.9172,-3.8951,-3.8841,0.0,-3.9797,-4.0078,-3.9859,-3.9886,-4.0373,-4.0391,-4.054,-4.1062,-4.1347,-4.1549,-4.1579,-4.1908,-4.2147,-4.2162,-4.2162,-4.2073,-4.1856,-4.1482,-4.0876,-4.0008,-3.9568,-3.9388,-3.9388,-3.9388,-3.929,-4.8137,-4.7198,-4.4592,-4.3917,-4.4495,-4.4514,-4.4951,-4.5638,-4.4924,-4.4172,-4.3404,-4.3206,-4.2285,-4.0896,-4.0633,0.0,-4.1328,-4.1393,-4.1703,-4.2227,-4.2209,-4.219,-4.2159,-4.2908,-4.3308,-4.3313,-4.4065,-4.4426,-4.4449,-4.3515,-4.294,-4.2813,-4.2603,-4.2078,-4.126,-4.1734,-4.2431,-4.3269,-4.3883,-4.4983,-4.6558,-4.7316,-4.7554,-4.732,-4.7298,-4.6815,-4.586,-4.5035,-4.4264,-4.3497,-4.2019,-4.1163,-4.1056,0.0,0.0,0.0,0.0,0.0,0.0,0.0,0.0,0.0,0.0,0.0,0.0,0.0,0.0,-4.013,-4.0804,0.0,-4.0993,-4.0865,0.0,0.0,0.0,-4.0741,-4.1342,-4.143,-4.1304,-4.0789,0.0,0.0,-4.0003,-3.9926,-3.9992,-4.0171,-4.0041,-3.9816,-3.9498,-3.9447,-3.9505,-3.9662,-3.9136,-3.8995,-3.9791,-4.0507,-4.1519,-4.2815,-4.3305,-4.3185,-4.317,-4.32,-4.326,-4.3215,-4.329,-4.3095,-4.2575,-4.2396,-4.2021,-4.0711,-3.9963,-3.9478,-3.9439,-3.9388,-3.9373,-5.0186,-4.9768,-4.724,-4.5892,-4.5476,-4.5479,-4.5578,-4.5759,-4.5575,-4.5367,-4.5174,-4.5094,-4.4449,-4.3379,-4.267,-4.2391,-4.245,-4.3049,-4.3012,-4.2477,-4.2995,-4.2837,-4.2165,-4.2921,-4.3308,-4.3351,-4.4093,-4.4487,-4.4482,-4.4252,-4.3693,-4.2921,-4.2779,-4.2472,-4.1965,-4.1973,-4.2668,-4.4033,-4.4681,-4.5798,-4.7355,-4.7506,-4.7511,-4.745,-4.7312,-4.6824,-4.5988,-4.5078,-4.4246,-4.3515,-4.2555,-4.1734,-4.1109,-4.0026,0.0,0.0,0.0,0.0,0.0,0.0,0.0,0.0,0.0,-4.0907,-4.0059,0.0,-4.0875,0.0,-4.2081,-4.2749,-4.2484,-4.2429,0.0,0.0,-4.1259,-4.1226,-4.1392,-4.1905,-4.1894,-4.1033,-4.1429,-4.1564,-4.1,-4.0846,-4.0865,-4.0978,-3.9982,-3.9213,-3.9131,-3.9334,-3.9708,-4.0151,-4.0555,-4.1023,-4.1428,-4.1886,-4.2446,-4.3165,-4.3305,-4.3305,-4.3305,-4.3305,-4.3305,-4.3305,-4.3305,-4.323,-4.3105,-4.2731,-4.2141,-4.1294,-4.0621,-4.0008,-3.9529,-3.9388,-3.9388,-5.0697,-5.0236,-4.8806,-4.7492,-4.6358,-4.5955,-4.5807,-4.58,-4.5805,-4.581,-4.581,-4.5749,-4.5438,-4.4859,-4.4372,-4.4074,-4.3944,-4.4383,-4.4253,-4.3732,-4.4037,-4.3868,-4.3341,-4.3681,-4.3839,-4.3857,-4.4275,-4.4482,-4.4482,-4.4482,-4.4172,-4.355,-4.3424,-4.3243,-4.2919,-4.1968,-4.2085,-4.3269,-4.4626,-4.5888,-4.712,-4.7437,-4.7391,-4.6988,-4.6834,-4.6366,-4.5495,-4.426,-4.3411,-4.2965,-4.1859,-4.1038,-4.0572,-3.9745,-3.9343,0.0,0.0,0.0,0.0,0.0,0.0,0.0,0.0,0.0,0.0,0.0,-4.1851,-4.1721,-4.2716,-4.3164,-4.2568,-4.2507,-4.2345,-4.1951,-4.1877,-4.1993,-4.2324,-4.2738,-4.2778,-4.2147,-4.243,-4.2479,-4.1973,-4.177,-4.1566,-4.1343,-4.0515,-3.9882,-3.9732,-3.984,-4.0074,-4.0443,-4.0863,-4.1372,-4.2023,-4.2735,-4.3208,-4.3279,-4.3305,-4.3305,-4.3305,-4.3305,-4.3305,-4.3305,-4.3305,-4.3305,-4.329,-4.306,-4.2581,-4.1822,-4.1257,-4.0531,-3.9634,-3.9388,-3.9388,-5.0763,-5.0008,-4.9726,-4.876,-4.7359,-4.6489,-4.5993,-4.5807,-4.5807,-4.5807,-4.5807,-4.5807,-4.573,-4.561,-4.5621,-4.5509,-4.5352,-4.5352,-4.5301,-4.5224,-4.5003,-4.487,-4.4802,-4.4592,-4.4482,-4.4482,-4.4482,-4.4482,-4.4482,-4.4482,-4.4407,-4.4165,-4.4024,-4.3828,-4.3526,-4.1772,-4.1317,-4.2286,-4.4173,-4.549,-4.6178,-4.6884,-4.6861,-4.607,-4.6035,-4.5677,-4.4835,-4.3209,-4.2308,-4.2254,-4.0788,-3.9948,-4.0019,-3.945,-3.93,0.0,-3.8695,0.0,0.0,0.0,0.0,0.0,0.0,0.0,0.0,-4.2515,-4.2487,-4.2422,-4.3014,-4.3063,-4.2294,-4.2189,-4.2328,-4.2642,-4.2651,-4.2886,-4.3499,-4.3615,-4.3568,-4.3432,-4.3402,-4.319,-4.2726,-4.2492,-4.2109,-4.1522,-4.1174,-4.0826,-4.0597,-4.0478,-4.0459,-4.0505,-4.0582,-4.102,-4.1845,-4.2948,-4.3611,-4.3364,-4.3305,-4.3305,-4.3305,-4.3305,-4.3305,-4.3305,-4.3305,-4.3305,-4.3305,-4.329,-4.3011,-4.2222,-4.1643,-4.0965,-3.9866,-3.9448,-3.9388,-5.2492,-5.1602,-5.0241,-4.9471,-4.9061,-4.8191,-4.7047,-4.5807,-4.5807,-4.5807,-4.5807,-4.5807,-4.5773,-4.5771,-4.5754,-4.575,-4.5692,-4.5584,-4.5476,-4.5351,-4.5087,-4.4926,-4.4783,-4.4592,-4.4482,-4.4482,-4.4482,-4.4482,-4.4482,-4.4482,-4.4121,-4.3418,-4.3214,-4.2761,-4.2043,0.0,0.0,0.0,-4.4115,-4.4403,-4.4548,-4.4693,-4.4693,-4.4527,-4.4978,0.0,-4.4905,-4.325,-4.2308,-4.2254,-4.077,0.0,0.0,0.0,0.0,0.0,0.0,0.0,0.0,0.0,0.0,0.0,-4.2932,-4.2909,-4.2911,-4.2671,-4.2683,-4.3132,-4.3325,-4.3523,-4.3827,-4.3764,-4.3688,-4.3619,-4.3472,-4.3433,-4.3598,-4.3615,-4.3598,-4.3568,-4.3479,-4.3312,-4.3021,-4.2665,-4.2254,-4.1817,-4.1386,-4.1034,-4.0814,-4.0593,-4.0489,-4.052,-4.08,-4.1265,-4.1817,-4.2501,-4.3109,-4.3189,-4.3305,-4.3305,-4.3305,-4.3305,-4.3305,-4.3305,-4.3305,-4.3305,-4.3305,-4.3305,-4.308,-4.2453,-4.1818,-4.1107,-4.0174,-3.9652,-3.9388,-5.2616,0.0,-5.0824,-5.0043,0.0,-4.913,-4.8218,-4.7057,-4.6629,-4.6192,-4.5807,-4.5807,-4.5807,-4.5807,-4.5805,-4.5803,-4.58,-4.566,-4.5538,-4.5429,-4.5205,-4.5038,-4.495,-4.4712,-4.4611,-4.4592,-4.4524,-4.4482,-4.4482,-4.4482,-4.428,-4.3826,-4.3665,-4.3368,-4.2954,-4.3013,-4.3075,-4.305,-4.3412,-4.3773,-4.4095,-4.4476,-4.4512,-4.4132,-4.4692,0.0,0.0,0.0,0.0,0.0,0.0,0.0,0.0,0.0,0.0,-4.0556,-4.0877,-4.1209,-4.1477,-4.1888,-4.2597,-4.3646,-4.4087,-4.4053,-4.3468,-4.3549,-4.3719,-4.3972,-4.3894,-4.3962,-4.4145,-4.4126,-4.3981,-4.3776,-4.3763,-4.3734,-4.3645,-4.3615,-4.3615,-4.3598,-4.3568,-4.3402,-4.3143,-4.2758,-4.2333,-4.1963,-4.1603,-4.1288,-4.107,-4.073,-4.0489,-4.0536,-4.124,-4.1763,-4.1954,-4.2644,-4.3145,-4.3309,-4.3305,-4.3305,-4.3305,-4.3305,-4.3305,-4.3305,-4.3305,-4.3305,-4.3305,-4.3305,-4.308,-4.2345,-4.1795,-4.1099,-4.0285,-3.9742,-3.9388,-5.2569,-5.2337,-5.1493,-5.0731,-5.0097,-4.993,-4.9262,-4.8319,0.0,0.0,0.0,-4.5807,-4.5807,-4.5807,-4.5807,-4.5805,-4.5795,-4.5673,-4.559,-4.5504,-4.53,-4.517,-4.5091,-4.4865,-4.4725,-4.4699,-4.4578,-4.4528,-4.4482,-4.4482,-4.4501,-4.4473,-4.4358,-4.4378,-4.4483,-4.4835,-4.426,-4.2829,-4.2996,-4.3395,-4.3955,-4.4442,-4.4369,-4.3679,-4.4297,-4.4284,-4.3616,-4.3411,-4.3325,-4.3268,-4.2037,-4.1395,-4.152,-4.1645,-4.1431,-4.0842,-4.1484,-4.2008,-4.2176,-4.2735,-4.3504,-4.444,-4.5061,-4.5033,-4.4204,-4.4555,-4.4776,-4.4671,-4.444,-4.4186,-4.3999,-4.4059,-4.3931,-4.3534,-4.3756,-4.3822,-4.3628,-4.3615,-4.3615,-4.3615,-4.3598,-4.3492,-4.3204,-4.2867,-4.2507,-4.2109,-4.1817,-4.1522,-4.129,-4.0901,-4.0593,-4.0616,-4.1423,-4.216,-4.2121,-4.2886,-4.3521,-4.3314,-4.3305,-4.3305,-4.3305,-4.3305,-4.3305,-4.3305,-4.3305,-4.3305,-4.3305,-4.3305,-4.3026,-4.2227,-4.1703,-4.1152,-4.036,-3.9742,-3.9403,-5.3981,-5.3246,-5.2376,-5.1926,-5.17,-5.0996,-4.9787,-4.8269,-4.7441,-4.6612,-4.5807,-4.5807,-4.5807,-4.5807,-4.5807,-4.5807,-4.5793,-4.5719,-4.5651,0.0,-4.5312,-4.5175,-4.5084,-4.4931,-4.4808,-4.4712,-4.4685,-4.4605,-4.4496,-4.4482,-4.4454,-4.443,-4.4325,-4.458,-4.5111,-4.5113,-4.5243,-4.5495,-4.4105,-4.3341,-4.3324,-4.2705,-4.225,-4.2067,-4.2768,-4.3014,-4.2771,-4.2723,-4.2604,-4.2468,-4.2234,-4.2448,-4.3144,-4.3732,-4.405,-4.3979,-4.4696,-4.5045,-4.4827,-4.4753,-4.4855,-4.52,-4.5345,-4.5292,-4.5056,-4.5008,-4.4896,-4.4776,-4.4429,-4.4069,-4.3613,-4.3838,-4.3813,-4.3253,-4.3573,-4.3822,-4.3628,-4.3615,-4.3615,-4.3615,-4.3615,-4.3539,-4.3342,-4.3068,-4.2759,-4.2492,-4.2109,-4.1686,-4.129,-4.107,-4.0867,-4.0728,-4.1515,-4.2084,-4.2149,-4.2901,-4.3515,-4.3329,-4.3329,-4.3344,-4.3305,-4.3305,-4.3305,-4.3305,-4.3305,-4.3305,-4.3305,-4.3305,-4.2961,-4.2363,-4.1758,-4.113,-4.0397,-3.9792,-3.9439,-5.4583,-5.411,-5.3282,-5.289,-5.2796,-5.1965,-5.0631,-4.9019,-4.8171,-4.7045,-4.5865,-4.5807,-4.5807,-4.5807,-4.5807,-4.5807,-4.58,-4.5719,-4.5684,-4.5635,-4.541,-4.5292,-4.5258,-4.5095,-4.4967,-4.4926,-4.4852,-4.4732,-4.4619,-4.4605,-4.4551,-4.4458,-4.4358,-4.4639,-4.5284,-4.5663,-4.6227,-4.6901,-4.5495,-4.4675,-4.4509,-4.367,-4.3159,-4.3121,-4.3332,-4.3338,-4.3256,-4.3586,-4.3695,-4.3536,-4.3161,-4.3286,-4.4032,-4.4407,-4.4585,-4.4621,-4.5356,-4.5494,-4.4842,-4.4982,-4.5208,-4.558,-4.526,-4.4906,-4.4619,-4.454,-4.4424,-4.4191,-4.3589,-4.3063,-4.2743,-4.3255,-4.3429,-4.3071,-4.3605,-4.3923,-4.3793,-4.3658,-4.3615,-4.3615,-4.3615,-4.3568,-4.3402,-4.319,-4.2883,-4.2634,-4.2318,-4.2029,-4.1687,-4.1621,-4.1357,-4.077,-4.1536,-4.2178,-4.231,-4.3259,-4.3827,-4.3738,-4.3699,-4.3581,-4.3384,-4.3305,-4.3305,-4.3305,-4.3305,-4.3305,-4.329,-4.303,-4.2581,-4.1953,-4.1309,-4.0651,-4.0023,-3.9676,-3.9547,-5.5126,-5.5021,-5.4149,-5.368,-5.3448,-5.2782,-5.1525,-4.9958,-4.9262,-4.7889,-4.6206,-4.5904,-4.5807,-4.5807,-4.5807,-4.5807,-4.58,-4.5742,-4.5704,-4.5673,-4.5521,-4.5429,-4.539,-4.5227,-4.5136,-4.5103,-4.4991,-4.4965,-4.5028,-4.5021,-4.4915,-4.4749,-4.4639,-4.49,-4.5565,-4.6194,-4.6993,-4.7799,-4.7019,-4.6379,-4.5973,-4.5092,-4.4505,-4.4267,-4.4058,-4.3828,-4.3638,-4.4217,-4.4524,-4.4378,-4.4143,-4.4303,-4.4817,-4.5031,-4.516,-4.5213,-4.5731,-4.569,-4.4931,-4.5141,-4.5457,-4.5767,-4.5213,-4.4732,-4.4423,-4.4061,-4.3786,-4.3428,-4.2816,-4.2277,-4.2156,-4.2766,-4.3121,-4.2909,-4.3618,-4.4068,-4.391,-4.3763,-4.3658,-4.3628,-4.3615,-4.3568,-4.3449,-4.3281,-4.3037,-4.2728,-4.2571,-4.2413,-4.2174,-4.2077,-4.1687,-4.127,-4.1769,-4.2442,-4.2633,-4.3508,-4.4021,-4.3898,-4.3804,-4.3579,-4.3337,-4.3259,-4.329,-4.3305,-4.3305,-4.3305,-4.323,-4.2821,-4.2246,-4.1617,-4.0935,-4.0247,-3.9691,-3.967,-3.9696,-5.6056,-5.592,-5.5048,-5.4215,-5.3583,-5.344,-5.2395,-5.0879,-5.0685,-4.9281,-4.6999,-4.6148,-4.5845,-4.5807,-4.5807,-4.5807,-4.5807,-4.58,-4.5757,-4.5708,-4.561,-4.5513,-4.541,-4.5329,-4.5213,-4.5125,-4.5129,-4.544,-4.5982,-4.5975,-4.5803,-4.5517,-4.5432,-4.5721,-4.6341,-4.652,-4.727,-4.8656,-4.8584,-4.8088,-4.7114,-4.6046,-4.5109,-4.4323,-4.4172,-4.3693,-4.3035,-4.3548,-4.3822,-4.3808,-4.4882,-4.5588,-4.5731,-4.6355,-4.6748,-4.673,-4.6819,-4.6746,-4.6383,-4.6192,-4.6024,-4.5811,-4.5511,-4.5286,-4.5156,-4.4044,-4.3124,-4.2851,-4.2618,-4.2089,-4.1647,-4.2567,-4.2972,-4.2442,-4.3474,-4.4184,-4.3969,-4.3868,-4.3793,-4.3628,-4.3598,-4.3615,-4.3568,-4.3432,-4.3237,-4.293,-4.2837,-4.2665,-4.227,-4.2142,-4.2013,-4.181,-4.2501,-4.2867,-4.2684,-4.3433,-4.3777,-4.3442,-4.3331,-4.3259,-4.3126,-4.3166,-4.3305,-4.3305,-4.3305,-4.3305,-4.3135,-4.2806,-4.2141,-4.1445,-4.0815,-4.0231,-3.9856,-3.9818,-3.9854,-5.6216,-5.6151,-5.5784,-5.5417,-5.5009,-5.4492,-5.3285,-5.1679,-5.1099,-4.9745,-4.7966,-4.7482,-4.6774,-4.5826,-4.5807,-4.5807,-4.5807,-4.5807,-4.5766,-4.5757,-4.5692,-4.5601,-4.5513,-4.541,-4.53,-4.5282,-4.569,-4.6062,-4.6333,-4.6651,-4.6733,-4.6492,-4.595,-4.6195,-4.7231,-4.6864,-4.7341,-4.8801,-4.8822,-4.8584,-4.8125,-4.7077,-4.6321,-4.5824,-4.4796,-4.4006,-4.3543,-4.334,-4.333,-4.3596,-4.4178,-4.4904,-4.5766,-4.6123,-4.6498,-4.6926,-4.6998,-4.6957,-4.6842,-4.6749,-4.6566,-4.6284,-4.5635,-4.5142,-4.4871,-4.3844,-4.3114,-4.2809,-4.1954,-4.1129,-4.0858,-4.1907,-4.2598,-4.2459,-4.3457,-4.4253,-4.4155,-4.3969,-4.3868,-4.3793,-4.3658,-4.3615,-4.3598,-4.3492,-4.3358,-4.3176,-4.3054,-4.279,-4.2571,-4.2476,-4.227,-4.2092,-4.2609,-4.2827,-4.2509,-4.2834,-4.3104,-4.3098,-4.3264,-4.3358,-4.3084,-4.3386,-4.366,-4.3384,-4.3344,-4.3165,-4.2776,-4.2353,-4.1783,-4.1122,-4.0637,-4.0105,-4.0046,-4.0031,-3.996,-5.6232,-5.6225,-5.6216,-5.6145,-5.604,-5.5426,-5.4307,-5.2898,-5.1989,-5.0674,-4.9146,-4.8856,-4.7927,-4.6612,-4.6271,-4.6039,-4.5826,-4.5807,-4.5807,-4.5793,-4.5746,-4.5676,-4.562,-4.5485,-4.5524,-4.575,-4.6224,-4.6713,-4.7113,-4.7732,-4.7886,-4.7516,-4.6803,-4.6832,-4.7554,-4.7167,-4.7502,-4.8479,-4.8727,-4.8822,-4.8712,-4.7997,-4.7389,-4.6926,-4.5694,-4.4683,-4.4034,-4.3435,-4.332,-4.3699,-4.3832,-4.4521,-4.5739,-4.6021,-4.6391,-4.6908,-4.6998,-4.6998,-4.6998,-4.6934,-4.6819,-4.6537,-4.578,-4.5166,-4.4788,-4.4033,-4.3484,-4.3245,-4.2012,-4.1127,-4.0705,-4.1655,-4.2342,-4.2414,-4.3529,-4.435,-4.4281,-4.4097,-4.3969,-4.3898,-4.3793,-4.3641,-4.3598,-4.3509,-4.3432,-4.3358,-4.3129,-4.2914,-4.2899,-4.2713,-4.2508,-4.2286,-4.2524,-4.2578,-4.2443,-4.263,-4.2664,-4.2798,-4.3123,-4.3429,-4.3113,-4.3632,-4.405,-4.3762,-4.3606,-4.3247,-4.2853,-4.2251,-4.1428,-4.074,-4.0309,-4.0132,-4.0207,-4.0172,-4.0137,-5.6311,-5.6285,-5.6213,-5.6156,-5.6078,-5.6032,-5.5493,-5.4454,-5.3691,-5.2395,-5.0743,-5.0016,-4.9146,-4.8198,-4.7444,-4.6619,-4.5935,-4.5904,-4.5896,-4.587,-4.5746,-4.5708,-4.5692,-4.5503,-4.5841,-4.6482,-4.6677,-4.7422,-4.8803,-4.9467,-4.9396,-4.8534,-4.8197,-4.7738,-4.7278,-4.7632,-4.7898,-4.7986,-4.8553,-4.8891,-4.8891,-4.8767,-4.8126,-4.7165,-4.6775,-4.5818,-4.4405,-4.4016,-4.3992,-4.3991,-4.4489,-4.5154,-4.5956,-4.6583,-4.6926,-4.698,-4.6998,-4.6998,-4.6975,-4.6795,-4.6637,-4.6548,-4.6091,-4.5767,-4.562,-4.481,-4.4242,-4.4053,-4.3289,-4.2423,-4.1783,-4.2287,-4.2592,-4.2441,-4.3639,-4.4395,-4.4338,-4.4281,-4.4155,-4.3985,-4.3868,-4.3747,-4.3645,-4.3615,-4.3539,-4.3419,-4.3204,-4.3052,-4.2914,-4.2728,-4.2602,-4.2508,-4.2382,-4.2218,-4.2367,-4.2315,-4.2416,-4.2615,-4.2863,-4.3383,-4.3503,-4.3673,-4.399,-4.412,-4.3851,-4.3486,-4.3008,-4.2288,-4.1346,-4.0735,-4.0431,-4.0312,-4.0331,-4.0436,-4.0366,-5.6315,-5.6291,-5.6232,-5.6185,-5.6175,-5.6122,-5.5606,-5.4796,-5.4481,-5.3362,-5.1892,-5.1409,-5.0519,-4.9204,-4.8914,-4.8261,-4.7414,-4.6876,-4.6636,-4.6576,-4.6035,-4.5742,-4.5738,-4.6121,-4.6426,-4.679,-4.7676,-4.872,-4.9713,-5.0049,-4.9955,-4.9505,-4.8867,-4.8301,-4.7951,-4.8002,-4.7996,-4.7937,-4.855,-4.889,-4.8872,-4.8874,-4.8512,-4.7865,-4.7294,-4.6592,-4.5809,-4.5241,-4.5128,-4.5454,-4.5633,-4.6029,-4.6677,-4.6905,-4.6998,-4.6998,-4.6998,-4.6998,-4.6998,-4.6911,-4.6865,-4.6801,-4.6357,-4.6062,-4.5953,-4.5432,-4.5001,-4.481,-4.4165,-4.3503,-4.321,-4.3242,-4.3059,-4.2644,-4.3667,-4.457,-4.4497,-4.4367,-4.4224,-4.4039,-4.3852,-4.3658,-4.3628,-4.3615,-4.3568,-4.3509,-4.3281,-4.3113,-4.299,-4.2774,-4.2602,-4.2539,-4.2349,-4.2157,-4.2365,-4.1909,-4.1757,-4.2131,-4.2469,-4.3043,-4.3318,-4.4126,-4.4577,-4.4305,-4.4021,-4.3252,-4.2575,-4.1645,-4.0842,-4.0674,-4.0401,-4.0366,-4.0436,-4.047,-4.0401,-5.6306,-5.6245,-5.5942,-5.5798,-5.5765,-5.5734,-5.5374,-5.4855,-5.4796,-5.4122,-5.3077,-5.2469,-5.1544,-5.0577,-5.0229,-4.978,-4.9034,-4.8048,-4.7499,-4.7442,-4.6892,-4.658,-4.6626,-4.706,-4.7395,-4.7721,-4.8835,-4.9782,-5.0225,-5.0224,-5.0182,-5.0057,-4.9422,-4.8872,-4.8527,-4.8258,-4.7978,-4.7788,-4.7984,-4.8255,-4.8479,-4.8519,-4.8527,-4.8384,-4.7905,-4.7276,-4.6664,-4.6118,-4.5965,-4.6292,-4.6254,-4.6482,-4.7044,-4.7043,-4.6998,-4.6998,-4.6998,-4.6998,-4.6998,-4.6998,-4.6998,-4.6998,-4.659,-4.6308,-4.6186,-4.5778,-4.5554,-4.5303,-4.4931,-4.4387,-4.404,-4.4009,-4.3705,-4.3034,-4.3853,-4.4581,-4.4598,-4.4468,-4.4327,-4.4097,-4.3822,-4.3645,-4.3615,-4.3615,-4.3598,-4.3615,-4.3372,-4.3204,-4.3066,-4.2867,-4.2665,-4.2586,-4.2445,-4.2349,-4.2414,-4.2154,-4.184,-4.2113,-4.2902,-4.3249,-4.3588,-4.4445,-4.4809,-4.4493,-4.3783,-4.2899,-4.1961,-4.1046,-4.0642,-4.0516,-4.047,-4.047,-4.047,-4.0436,-4.0401,-5.6275,-5.6108,-5.5351,-5.4958,-5.4912,-5.4899,-5.489,-5.4873,-5.4835,-5.4684,-5.4289,-5.3038,-5.2306,-5.1912,-5.1235,-5.0863,-5.0394,-4.9169,-4.8446,-4.8284,-4.8156,-4.8113,-4.8083,-4.8102,-4.852,-4.9171,-4.9923,-5.0245,-5.029,-5.0255,-5.0219,-5.0151,-4.9942,-4.9394,-4.8685,-4.8428,-4.7875,-4.7271,-4.7031,-4.7183,-4.7688,-4.7716,-4.7986,-4.8566,-4.8457,-4.7829,-4.6656,-4.6581,-4.6561,-4.6517,-4.6386,-4.6474,-4.6959,-4.7002,-4.6998,-4.6998,-4.6998,-4.6998,-4.6998,-4.6998,-4.6998,-4.6975,-4.6749,-4.6453,-4.6211,-4.5938,-4.5675,-4.5432,-4.5284,-4.4964,-4.4289,-4.4517,-4.4433,-4.3677,-4.4079,-4.4564,-4.4598,-4.457,-4.444,-4.4126,-4.3805,-4.3645,-4.3615,-4.3615,-4.3615,-4.3585,-4.3479,-4.3312,-4.3113,-4.2961,-4.2837,-4.2665,-4.2539,-4.2508,-4.2508,-4.2476,-4.2318,-4.235,-4.3306,-4.3965,-4.4091,-4.4654,-4.4977,-4.4691,-4.3501,-4.2548,-4.1623,-4.0789,-4.0604,-4.0489,-4.0489,-4.0489,-4.0505,-4.047,-4.047,-5.5487,-5.5365,-5.4529,-5.4182,-5.4119,-5.4101,-5.4369,-5.4878,-5.4873,-5.4843,-5.4684,-5.4231,-5.3356,-5.2345,-5.1892,-5.1459,-5.0863,-5.031,-4.9776,-4.912,-4.8571,-4.837,-4.8441,-4.8833,-4.9433,-5.0023,-5.0237,-5.0302,-5.029,-5.0259,-5.0255,-5.0175,-5.0089,-4.9581,-4.8865,-4.9013,-4.8568,-4.7277,-4.7404,-4.7415,-4.7034,-4.6915,-4.7207,-4.7736,-4.7757,-4.7627,-4.7667,-4.7585,-4.7484,-4.7319,-4.7108,-4.6976,-4.7012,-4.6998,-4.6998,-4.6998,-4.6998,-4.6998,-4.6998,-4.6998,-4.6998,-4.6952,-4.6754,-4.6477,-4.6211,-4.5945,-4.5701,-4.545,-4.5327,-4.5083,-4.49,-4.4797,-4.448,-4.3521,-4.4096,-4.4598,-4.457,-4.44,-4.4229,-4.4097,-4.3805,-4.3628,-4.3615,-4.3615,-4.3615,-4.3598,-4.3509,-4.3342,-4.316,-4.3007,-4.2837,-4.2634,-4.2634,-4.2602,-4.2571,-4.2603,-4.2541,-4.2735,-4.3635,-4.4273,-4.4437,-4.4807,-4.5074,-4.446,-4.3257,-4.2243,-4.1278,-4.0735,-4.0566,-4.0489,-4.0489,-4.0489,-4.0489,-4.0489,-4.0489,-5.4944,-5.4551,-5.3716,-5.3345,-5.3337,-5.3302,-5.3552,-5.4019,-5.433,-5.458,-5.4738,-5.4463,-5.3774,-5.2802,-5.2407,-5.1734,-5.0956,-5.0909,-5.0571,-4.9991,-4.9519,-4.9232,-4.9246,-4.9643,-5.0086,-5.0415,-5.0382,-5.0314,-5.0302,-5.029,-5.0248,-5.0188,-5.017,-4.9867,-4.9245,-4.9232,-4.8692,-4.7782,-4.7286,-4.6968,-4.6647,-4.6259,-4.6518,-4.7326,-4.746,-4.7721,-4.825,-4.8189,-4.801,-4.7762,-4.7472,-4.7232,-4.7088,-4.7043,-4.6998,-4.6998,-4.6998,-4.6998,-4.6998,-4.6998,-4.6998,-4.6957,-4.6842,-4.6637,-4.6357,-4.6094,-4.5837,-4.5589,-4.538,-4.5274,-4.5194,-4.5059,-4.463,-4.4102,-4.4349,-4.4581,-4.4542,-4.4298,-4.4126,-4.4039,-4.3805,-4.3674,-4.3615,-4.3615,-4.3615,-4.3598,-4.3539,-4.3419,-4.3251,-4.316,-4.2945,-4.279,-4.2759,-4.2696,-4.2602,-4.2667,-4.2732,-4.3234,-4.3863,-4.4247,-4.4483,-4.5072,-4.5436,-4.4039,-4.2772,-4.2006,-4.1109,-4.072,-4.0489,-4.0489,-4.0489,-4.0489,-4.0489,-4.0489,-4.0489,-5.4612,-5.3771,-5.2902,-5.2555,-5.2532,-5.2528,-5.2596,-5.2704,-5.33,-5.4038,-5.4491,-5.4178,-5.3645,-5.3344,-5.2717,-5.1939,-5.1041,-5.0905,-5.0852,-5.0733,-5.06,-5.0506,-5.0481,-5.0451,-5.0477,-5.0492,-5.0435,-5.0359,-5.0314,-5.0302,-5.0259,-5.0231,-5.0188,-5.0126,-4.9822,-4.918,-4.881,-4.829,-4.6802,-4.6266,-4.6593,-4.5761,-4.6006,-4.7458,-4.7451,-4.7736,-4.8403,-4.8363,-4.8149,-4.7863,-4.7551,-4.7316,-4.7201,-4.7106,-4.702,-4.702,-4.6998,-4.6998,-4.6998,-4.6998,-4.6998,-4.6998,-4.6957,-4.6888,-4.659,-4.6332,-4.6087,-4.5786,-4.5589,-4.5397,-4.5274,-4.5177,-4.5062,-4.4951,-4.4714,-4.4626,-4.457,-4.4315,-4.4155,-4.4068,-4.3835,-4.3645,-4.3645,-4.3645,-4.3615,-4.3615,-4.3598,-4.3509,-4.3402,-4.3281,-4.3207,-4.3054,-4.2868,-4.2728,-4.2634,-4.2619,-4.2716,-4.3104,-4.3864,-4.4477,-4.4648,-4.5193,-4.5002,-4.3588,-4.2572,-4.1775,-4.1124,-4.0689,-4.0489,-4.0489,-4.0489,-4.0489,-4.0489,-4.0489,-4.0489,-5.3806,-5.2945,-5.2082,-5.1715,-5.1713,-5.171,-5.2025,-5.248,-5.2699,-5.3271,-5.3922,-5.4419,-5.3758,-5.2753,-5.308,-5.2438,-5.1246,-5.0925,-5.0861,-5.0829,-5.0821,-5.0767,-5.0693,-5.0623,-5.0593,-5.0542,-5.0457,-5.039,-5.0359,-5.0333,-5.029,-5.0278,-5.0212,-5.017,-5.0025,-4.9771,-4.9261,-4.8567,-4.7447,-4.6469,-4.597,-4.5129,-4.5379,-4.6749,-4.6793,-4.738,-4.8512,-4.8457,-4.813,-4.778,-4.7657,-4.7483,-4.7241,-4.7174,-4.7088,-4.7002,-4.6998,-4.6998,-4.6998,-4.6998,-4.6998,-4.6998,-4.6998,-4.6888,-4.6637,-4.6542,-4.6259,-4.5912,-4.5727,-4.5615,-4.538,-4.5274,-4.5113,-4.4886,-4.4776,-4.4709,-4.4615,-4.4384,-4.4253,-4.4196,-4.3981,-4.3822,-4.3763,-4.3704,-4.3615,-4.3615,-4.3598,-4.3568,-4.3462,-4.3402,-4.3328,-4.3054,-4.2868,-4.2759,-4.2665,-4.2634,-4.2699,-4.2926,-4.3767,-4.4916,-4.5003,-4.5253,-4.4342,-4.3004,-4.2622,-4.1917,-4.1148,-4.0505,-4.0489,-4.0539,-4.0489,-4.0489,-4.0489,-4.0489,-4.0489,-5.3491,-5.2632,-5.1767,-5.1386,-5.1391,-5.14,-5.1635,-5.1949,-5.1974,-5.2414,-5.3132,-5.3638,-5.3307,-5.2459,-5.2812,-5.2298,-5.1121,-5.0941,-5.0877,-5.0801,-5.0776,-5.074,-5.0693,-5.0663,-5.0623,-5.0593,-5.0489,-5.0416,-5.0401,-5.0325,-5.0302,-5.029,-5.0267,-5.0219,-5.0158,-5.0063,-4.9783,-4.9051,-4.7959,-4.6905,-4.6341,-4.505,-4.5312,-4.6358,-4.6592,-4.7202,-4.8473,-4.8495,-4.8208,-4.7888,-4.7741,-4.7572,-4.7356,-4.7241,-4.7151,-4.7002,-4.6998,-4.6998,-4.6998,-4.6998,-4.6998,-4.6998,-4.6998,-4.6929,-4.6795,-4.6684,-4.6423,-4.6211,-4.5963,-4.5752,-4.5572,-4.5406,-4.5194,-4.5032,-4.4896,-4.4803,-4.4626,-4.4395,-4.4338,-4.4253,-4.4068,-4.3881,-4.3881,-4.3734,-4.3645,-4.3615,-4.3615,-4.3568,-4.3492,-4.3479,-4.3419,-4.3176,-4.3023,-4.2992,-4.2852,-4.2759,-4.3005,-4.3215,-4.3718,-4.4901,-4.5312,-4.5341,-4.4448,-4.3461,-4.2789,-4.2042,-4.1191,-4.0593,-4.0558,-4.0574,-4.0539,-4.0489,-4.0489,-4.0489,-4.0489,-5.344,-5.2522,-5.181,-5.1494,-5.141,-5.1391,-5.1398,-5.1316,-5.1317,-5.1671,-5.2238,-5.2368,-5.2446,-5.2279,-5.2343,-5.1862,-5.1012,-5.0941,-5.0869,-5.0793,-5.074,-5.0693,-5.0702,-5.0683,-5.0653,-5.0613,-5.0532,-5.0478,-5.0424,-5.0348,-5.0302,-5.0302,-5.029,-5.0267,-5.0118,-5.0019,-4.9917,-4.9371,-4.7842,-4.6992,-4.6536,-4.5415,-4.5256,-4.6278,-4.6903,-4.7454,-4.8325,-4.8532,-4.8363,-4.8072,-4.7866,-4.7699,-4.7533,-4.7334,-4.7178,-4.7048,-4.702,-4.6998,-4.6998,-4.6998,-4.6998,-4.6998,-4.6998,-4.6998,-4.6934,-4.6795,-4.6637,-4.6518,-4.6154,-4.5938,-4.5727,-4.5537,-4.53,-4.515,-4.5059,-4.4886,-4.4682,-4.4468,-4.4321,-4.431,-4.4097,-4.3969,-4.3898,-4.3763,-4.3628,-4.3615,-4.3615,-4.3598,-4.3568,-4.3539,-4.3479,-4.3342,-4.3267,-4.3237,-4.3084,-4.293,-4.3292,-4.3603,-4.3993,-4.4788,-4.5462,-4.5394,-4.4824,-4.4094,-4.3177,-4.2186,-4.1146,-4.078,-4.0712,-4.0643,-4.0574,-4.0524,-4.0489,-4.0489,-4.0489,-5.3074,-5.1722,-5.2228,-5.2028,-5.1453,-5.1388,-5.1361,-5.13,-5.1269,-5.1371,-5.1589,-5.2096,-5.2012,-5.1534,-5.2007,-5.1896,-5.1111,-5.0948,-5.0841,-5.072,-5.0701,-5.0682,-5.0692,-5.0693,-5.0683,-5.0653,-5.0613,-5.0551,-5.0478,-5.0424,-5.0348,-5.0302,-5.0302,-5.0267,-5.0104,-4.9517,-4.9119,-4.877,-4.7321,-4.6587,-4.6391,-4.5455,-4.5178,-4.6111,-4.7064,-4.793,-4.8527,-4.8642,-4.8513,-4.8363,-4.8187,-4.7929,-4.7699,-4.749,-4.7334,-4.7156,-4.7066,-4.7002,-4.6998,-4.6998,-4.6998,-4.6998,-4.6998,-4.6998,-4.6998,-4.6934,-4.6778,-4.6661,-4.6495,-4.6211,-4.5837,-4.5468,-4.53,-4.5203,-4.5096,-4.4978,-4.4886,-4.4692,-4.4542,-4.4485,-4.4327,-4.4184,-4.4056,-4.3927,-4.3793,-4.3674,-4.3615,-4.3615,-4.3615,-4.3615,-4.3539,-4.3432,-4.3419,-4.3358,-4.319,-4.3054,-4.327,-4.3533,-4.3894,-4.4399,-4.5095,-4.5312,-4.4669,-4.4085,-4.3493,-4.2441,-4.1403,-4.0916,-4.0833,-4.073,-4.0643,-4.0558,-4.0524,-4.0524,-4.0489,-5.2848,-5.2026,-5.208,-5.182,-5.1441,-5.139,-5.1386,-5.1346,-5.1284,-5.124,-5.1286,-5.1686,-5.1571,-5.1235,-5.1574,-5.1503,-5.1177,-5.096,-5.0852,-5.0747,-5.072,-5.0692,-5.0692,-5.0702,-5.0693,-5.0683,-5.0624,-5.0582,-5.0551,-5.0478,-5.0404,-5.0348,-5.0317,-5.0046,-4.9709,-4.911,-4.8668,-4.82,-4.7334,-4.6752,-4.6626,-4.5893,-4.5449,-4.6077,-4.7147,-4.8056,-4.8259,-4.8601,-4.8605,-4.8513,-4.8381,-4.8149,-4.7806,-4.7578,-4.7403,-4.7223,-4.7133,-4.7066,-4.7002,-4.6998,-4.6998,-4.6998,-4.6998,-4.6998,-4.6998,-4.6998,-4.6934,-4.6778,-4.6637,-4.6381,-4.5862,-4.5658,-4.5468,-4.53,-4.5167,-4.5086,-4.5059,-4.4858,-4.4709,-4.4654,-4.4423,-4.427,-4.4126,-4.4027,-4.3822,-4.3674,-4.3615,-4.3615,-4.3615,-4.3615,-4.3598,-4.3539,-4.3509,-4.3449,-4.3312,-4.3207,-4.318,-4.3346,-4.3448,-4.3938,-4.4511,-4.4561,-4.4444,-4.3932,-4.3479,-4.285,-4.1944,-4.1489,-4.0935,-4.0799,-4.0696,-4.0627,-4.0558,-4.0524,-4.0505,-5.2617,-5.2461,-5.1852,-5.1534,-5.1408,-5.1392,-5.1394,-5.1385,-5.1288,-5.1234,-5.122,-5.1217,-5.1278,-5.1216,-5.1198,-5.1121,-5.1053,-5.0987,-5.088,-5.0756,-5.0766,-5.0729,-5.071,-5.0702,-5.0712,-5.0692,-5.0654,-5.0613,-5.0582,-5.0532,-5.0448,-5.0374,-5.0172,-4.9794,-4.9221,-4.8619,-4.8186,-4.7698,-4.7245,-4.7144,-4.7157,-4.6525,-4.6057,-4.6142,-4.6749,-4.7489,-4.7753,-4.8164,-4.8528,-4.8403,-4.8439,-4.8248,-4.7953,-4.7663,-4.7486,-4.7307,-4.7241,-4.7133,-4.7048,-4.702,-4.6998,-4.6998,-4.6998,-4.6998,-4.6998,-4.6998,-4.6998,-4.6911,-4.6731,-4.6429,-4.5988,-4.5786,-4.5675,-4.5511,-4.531,-4.5247,-4.5194,-4.5005,-4.4886,-4.4803,-4.462,-4.4423,-4.4241,-4.4068,-4.3864,-4.3704,-4.3645,-4.3615,-4.3615,-4.3615,-4.3598,-4.3598,-4.3568,-4.3539,-4.3432,-4.3372,-4.3363,-4.3319,-4.3305,-4.357,-4.4061,-4.42,-4.4204,-4.3912,-4.3423,-4.2842,-4.2226,-4.1563,-4.1171,-4.0935,-4.0799,-4.0696,-4.0627,-4.0539,-4.0505,-5.2283,-5.166,-5.2226,-5.2066,-5.145,-5.1387,-5.139,-5.1397,-5.1362,-5.13,-5.1215,-5.122,-5.1208,-5.1194,-5.1196,-5.1128,-5.1041,-5.0983,-5.0885,-5.0793,-5.0812,-5.0838,-5.0775,-5.073,-5.073,-5.0767,-5.0721,-5.0643,-5.0613,-5.0582,-5.0464,-5.0262,-4.9723,-4.9242,-4.8602,-4.7792,-4.7403,-4.7479,-4.7111,-4.7113,-4.7308,-4.6797,-4.6171,-4.6008,-4.6337,-4.6609,-4.7113,-4.7618,-4.7936,-4.7943,-4.82,-4.827,-4.817,-4.7913,-4.7726,-4.7572,-4.7356,-4.7205,-4.7008,-4.703,-4.7002,-4.6998,-4.698,-4.6998,-4.6998,-4.6998,-4.6998,-4.6934,-4.6795,-4.6566,-4.6471,-4.6112,-4.5837,-4.5684,-4.552,-4.5371,-4.5327,-4.522,-4.5103,-4.4978,-4.4814,-4.462,-4.4423,-4.4224,-4.4039,-4.3864,-4.3734,-4.3674,-4.3598,-4.3598,-4.3615,-4.3615,-4.3615,-4.3615,-4.3568,-4.3539,-4.3542,-4.3465,-4.3452,-4.3391,-4.3758,-4.4027,-4.4003,-4.3733,-4.3412,-4.2959,-4.2329,-4.1667,-4.1323,-4.1138,-4.0953,-4.0783,-4.0696,-4.0593,-4.0505,-5.177,-5.1443,-5.1855,-5.1796,-5.1439,-5.1396,-5.1387,-5.1386,-5.1386,-5.1356,-5.1324,-5.1276,-5.122,-5.12,-5.1208,-5.1138,-5.1063,-5.102,-5.0933,-5.0852,-5.0891,-5.0891,-5.0838,-5.0757,-5.0757,-5.0776,-5.074,-5.0673,-5.0673,-5.0653,-5.0343,-4.982,-4.9329,-4.8731,-4.7985,-4.7446,-4.7068,-4.7198,-4.7376,-4.7688,-4.8017,-4.7264,-4.6657,-4.6157,-4.5951,-4.6091,-4.6445,-4.7392,-4.7812,-4.7917,-4.8216,-4.8384,-4.8343,-4.8169,-4.7929,-4.772,-4.7529,-4.7158,-4.6829,-4.6789,-4.6927,-4.6462,-4.673,-4.698,-4.6998,-4.6998,-4.6998,-4.6957,-4.6934,-4.6749,-4.659,-4.6332,-4.6112,-4.5837,-4.5658,-4.5546,-4.5432,-4.5353,-4.5274,-4.5167,-4.5005,-4.4814,-4.4648,-4.4452,-4.4224,-4.4039,-4.3881,-4.3763,-4.3658,-4.3628,-4.3645,-4.3615,-4.3615,-4.3615,-4.3615,-4.3615,-4.3615,-4.3568,-4.3568,-4.3509,-4.3545,-4.3833,-4.3791,-4.3571,-4.326,-4.3009,-4.2461,-4.1818,-4.1588,-4.1323,-4.1138,-4.0935,-4.0799,-4.0662,-4.0593,-5.1391,-5.1397,-5.1402,-5.1386,-5.1386,-5.1401,-5.1395,-5.1387,-5.1401,-5.14,-5.1391,-5.1346,-5.1269,-5.1234,-5.1206,-5.1164,-5.1095,-5.1029,-5.0971,-5.0909,-5.0905,-5.0916,-5.0874,-5.0812,-5.0766,-5.0775,-5.074,-5.0693,-5.0625,-5.0433,-4.9951,-4.9383,-4.9055,-4.8257,-4.7303,-4.7234,-4.7075,-4.7602,-4.8047,-4.8751,-4.8574,-4.789,-4.7018,-4.6222,-4.5898,-4.5682,-4.5806,-4.6707,-4.7373,-4.7641,-4.8021,-4.8402,-4.8476,-4.8343,-4.8088,-4.7863,-4.7759,-4.7172,-4.6856,-4.6811,-4.6945,-4.6485,-4.6762,-4.6954,-4.7043,-4.7043,-4.6998,-4.6998,-4.6998,-4.6911,-4.6749,-4.6613,-4.6381,-4.6137,-4.592,-4.5786,-4.5615,-4.5502,-4.5476,-4.5344,-4.5184,-4.5005,-4.4841,-4.4692,-4.4452,-4.4281,-4.4097,-4.3969,-4.3864,-4.3747,-4.3704,-4.3645,-4.3615,-4.3615,-4.3615,-4.3615,-4.3615,-4.3598,-4.3598,-4.3568,-4.3568,-4.3668,-4.3578,-4.3523,-4.3317,-4.3039,-4.251,-4.2077,-4.1785,-4.1505,-4.1288,-4.112,-4.1003,-4.0833,-4.0662,-5.1402,-5.1391,-5.1397,-5.1384,-5.1386,-5.1402,-5.1395,-5.1389,-5.1396,-5.1396,-5.1397,-5.1388,-5.1349,-5.1292,-5.123,-5.1169,-5.1114,-5.1082,-5.1007,-5.0941,-5.0909,-5.0905,-5.0899,-5.0819,-5.0775,-5.0717,-5.0663,-5.0693,-5.0452,-4.9913,-4.9462,-4.899,-4.802,-4.7223,-4.748,-4.7338,-4.7439,-4.849,-4.8812,-4.8833,-4.863,-4.7883,-4.7018,-4.6316,-4.5552,-4.5092,-4.5237,-4.5973,-4.6487,-4.7016,-4.7483,-4.799,-4.8403,-4.842,-4.8285,-4.8088,-4.7868,-4.7624,-4.734,-4.732,-4.7172,-4.6873,-4.7057,-4.7178,-4.7151,-4.7066,-4.7002,-4.6998,-4.6998,-4.6998,-4.6888,-4.6725,-4.659,-4.6381,-4.6144,-4.5963,-4.5778,-4.5554,-4.5502,-4.545,-4.5291,-4.514,-4.5005,-4.4841,-4.4692,-4.4508,-4.4338,-4.4184,-4.401,-4.3835,-4.3793,-4.3704,-4.3615,-4.3615,-4.3615,-4.3615,-4.3615,-4.3615,-4.3615,-4.3615,-4.3615,-4.3615,-4.3615,-4.3548,-4.3359,-4.3127,-4.2683,-4.227,-4.1948,-4.1654,-4.1439,-4.1339,-4.1256,-4.1021,-4.078,-5.14,-5.139,-5.1396,-5.1402,-5.1386,-5.1385,-5.14,-5.1395,-5.1387,-5.1394,-5.1401,-5.1399,-5.1383,-5.133,-5.1288,-5.122,-5.1164,-5.1157,-5.1089,-5.0971,-5.0914,-5.0866,-5.0827,-5.0784,-5.0757,-5.0565,-5.025,-4.9923,-4.9798,-4.951,-4.9048,-4.803,-4.7674,-4.7405,-4.7645,-4.7843,-4.8367,-4.8998,-4.9344,-4.9467,-4.9066,-4.813,-4.7207,-4.6822,-4.5577,-4.5028,-4.5048,-4.5538,-4.5973,-4.6477,-4.7058,-4.7706,-4.803,-4.8182,-4.8286,-4.8229,-4.809,-4.7729,-4.7223,-4.7401,-4.7258,-4.6993,-4.7032,-4.7254,-4.7227,-4.7178,-4.7111,-4.7129,-4.7043,-4.7002,-4.6957,-4.6819,-4.659,-4.6405,-4.6308,-4.5988,-4.5752,-4.5641,-4.5502,-4.545,-4.5414,-4.5264,-4.514,-4.5059,-4.4923,-4.4786,-4.4536,-4.427,-4.4039,-4.3805,-4.3793,-4.3809,-4.3704,-4.3615,-4.3615,-4.3615,-4.3615,-4.3615,-4.3615,-4.3615,-4.3615,-4.3615,-4.3615,-4.3615,-4.3531,-4.3242,-4.2821,-4.246,-4.2109,-4.1851,-4.1555,-4.1456,-4.1357,-4.1187,-4.095,-5.14,-5.1387,-5.1395,-5.14,-5.1385,-5.1386,-5.1383,-5.1398,-5.1393,-5.1384,-5.1396,-5.1392,-5.1401,-5.1394,-5.1346,-5.1292,-5.1244,-5.121,-5.1144,-5.1056,-5.0963,-5.0893,-5.0739,-5.064,-5.0354,-5.0374,-4.9442,-4.8971,-4.8759,-4.8606,-4.8086,-4.7212,-4.7511,-4.7549,-4.7597,-4.8029,-4.8658,-4.8613,-4.902,-4.9138,-4.8844,-4.7751,-4.7207,-4.662,-4.5824,-4.4895,-4.4965,-4.5287,-4.56,-4.6111,-4.6763,-4.7363,-4.7672,-4.8071,-4.8288,-4.8267,-4.8208,-4.7947,-4.7609,-4.7541,-4.7324,-4.7108,-4.6942,-4.7341,-4.7298,-4.7245,-4.7196,-4.7196,-4.7066,-4.702,-4.698,-4.6888,-4.6754,-4.6542,-4.635,-4.598,-4.5693,-4.5641,-4.5537,-4.5423,-4.5414,-4.5371,-4.5291,-4.5247,-4.5167,-4.5032,-4.4759,-4.4395,-4.4126,-4.3864,-4.3805,-4.3852,-4.3734,-4.3645,-4.3704,-4.3674,-4.3645,-4.3615,-4.3615,-4.3615,-4.3615,-4.3615,-4.3615,-4.3615,-4.3615,-4.3479,-4.319,-4.2711,-4.227,-4.2013,-4.1785,-4.1588,-4.1439,-4.1254,-4.1102,-5.1394,-5.1396,-5.1394,-5.1398,-5.14,-5.1387,-5.1384,-5.1397,-5.1393,-5.1384,-5.1394,-5.1392,-5.1401,-5.14,-5.1391,-5.1353,-5.1292,-5.1225,-5.1184,-5.1101,-5.1009,-5.0848,-5.0543,-5.0081,-4.9613,-4.9412,-4.8643,-4.7855,-4.7308,-4.7336,-4.7528,-4.7885,-4.7375,-4.7538,-4.7712,-4.7991,-4.8198,-4.8078,-4.8169,-4.8003,-4.7669,-4.6954,-4.643,-4.6184,-4.5483,-4.4895,-4.4895,-4.501,-4.535,-4.5873,-4.6518,-4.7113,-4.7578,-4.8071,-4.8307,-4.8287,-4.8287,-4.8119,-4.8024,-4.7906,-4.7875,-4.777,-4.7621,-4.749,-4.7425,-4.7267,-4.7219,-4.7196,-4.7088,-4.702,-4.6998,-4.6975,-4.6865,-4.6708,-4.6471,-4.6235,-4.5963,-4.5803,-4.5675,-4.5476,-4.5414,-4.5371,-4.5371,-4.5344,-4.53,-4.5167,-4.4978,-4.4648,-4.4281,-4.4039,-4.3894,-4.3835,-4.3717,-4.3704,-4.3809,-4.378,-4.3645,-4.3615,-4.3615,-4.3615,-4.3615,-4.3615,-4.3615,-4.3615,-4.3615,-4.3568,-4.3539,-4.3113,-4.2743,-4.2302,-4.198,-4.1753,-4.1555,-4.1406,-4.1254,-5.1394,-5.1396,-5.1389,-5.1395,-5.1399,-5.1386,-5.1385,-5.1398,-5.1393,-5.1384,-5.1394,-5.1394,-5.139,-5.1401,-5.1399,-5.1386,-5.1353,-5.1308,-5.1235,-5.1093,-5.0956,-5.0581,-5.0113,-4.962,-4.9191,-4.8566,-4.7778,-4.7298,-4.6981,-4.6451,-4.6682,-4.6971,-4.6951,-4.7105,-4.7356,-4.7684,-4.7778,-4.775,-4.7655,-4.7589,-4.7364,-4.6695,-4.6203,-4.6127,-4.5369,-4.4952,-4.4895,-4.4895,-4.5319,-4.5841,-4.639,-4.6965,-4.7537,-4.8071,-4.8327,-4.8306,-4.8324,-4.8324,-4.8305,-4.8189,-4.8088,-4.7968,-4.7824,-4.7717,-4.7636,-4.7425,-4.7294,-4.7205,-4.7111,-4.702,-4.6998,-4.6929,-4.6819,-4.6749,-4.659,-4.6405,-4.6182,-4.5943,-4.5794,-4.5606,-4.5459,-4.5414,-4.5414,-4.5414,-4.5371,-4.53,-4.5113,-4.4869,-4.4508,-4.4224,-4.4109,-4.401,-4.3894,-4.3776,-4.3852,-4.3763,-4.3615,-4.3615,-4.3615,-4.3615,-4.3615,-4.3615,-4.3615,-4.3615,-4.3615,-4.3598,-4.3568,-4.3492,-4.3174,-4.2711,-4.2302,-4.1948,-4.1753,-4.1555,-4.1406,-5.1394,-5.1394,-5.1403,-5.1391,-5.1399,-5.1385,-5.1386,-5.1402,-5.1398,-5.1389,-5.1394,-5.1394,-5.1394,-5.1394,-5.1392,-5.1386,-5.1383,-5.1333,-5.1256,-5.1033,-5.0655,-5.0179,-4.9572,-4.888,-4.8172,-4.7596,-4.6971,-4.6471,-4.6394,-4.5864,-4.6047,-4.6355,-4.6528,-4.6605,-4.6981,-4.7059,-4.7232,-4.7134,-4.7078,-4.6954,-4.6701,-4.6219,-4.5792,-4.5722,-4.5141,-4.4952,-4.4895,-4.4914,-4.5104,-4.5674,-4.6275,-4.6881,-4.7439,-4.7939,-4.8328,-4.8363,-4.8324,-4.8324,-4.8286,-4.8246,-4.8168,-4.8068,-4.7968,-4.7925,-4.7863,-4.7618,-4.7468,-4.7341,-4.7183,-4.7043,-4.702,-4.6952,-4.6888,-4.6842,-4.6637,-4.6435,-4.6156,-4.5933,-4.5823,-4.5691,-4.5493,-4.5183,-4.5397,-4.5397,-4.5344,-4.5274,-4.513,-4.494,-4.472,-4.4508,-4.4395,-4.4281,-4.4155,-4.3993,-4.3848,-4.3747,-4.3628,-4.3615,-4.3615,-4.3615,-4.3615,-4.3615,-4.3615,-4.3615,-4.3615,-4.3615,-4.3568,-4.3539,-4.3372,-4.3113,-4.2649,-4.2142,-4.1882,-4.1686,-4.1604,-5.1394,-5.1394,-5.1394,-5.1387,-5.1397,-5.1398,-5.1384,-5.1386,-5.1385,-5.1396,-5.1396,-5.1394,-5.1394,-5.1394,-5.1394,-5.139,-5.1384,-5.138,-5.1268,-5.0936,-5.0316,-4.9781,-4.893,-4.8064,-4.7296,-4.6778,-4.6259,-4.5864,-4.5748,-4.5671,-4.5729,-4.5729,-4.5902,-4.6105,-4.6731,-4.6002,-4.5572,-4.5525,-4.5639,-4.5602,-4.5524,-4.538,-4.5269,-4.5145,-4.499,-4.4895,-4.4895,-4.4895,-4.5048,-4.5432,-4.6182,-4.6697,-4.7018,-4.7882,-4.8273,-4.8325,-4.8306,-4.8324,-4.8305,-4.8246,-4.8207,-4.8168,-4.8068,-4.801,-4.797,-4.7806,-4.7615,-4.7472,-4.7312,-4.7133,-4.7066,-4.6998,-4.6957,-4.6852,-4.6654,-4.6348,-4.6053,-4.554,-4.5372,-4.553,-4.5147,-4.4808,-4.5183,-4.5397,-4.5327,-4.522,-4.5103,-4.4968,-4.4886,-4.4786,-4.4686,-4.4564,-4.444,-4.4224,-4.4051,-4.3789,-4.3658,-4.3628,-4.3615,-4.3615,-4.3615,-4.3615,-4.3615,-4.3615,-4.3615,-4.3615,-4.3615,-4.3615,-4.3402,-4.3143,-4.2774,-4.2349,-4.2077,-4.1833,-4.1719,-5.1394,-5.1394,-5.1394,-5.1402,-5.1393,-5.1397,-5.1402,-5.1386,-5.1385,-5.1394,-5.1398,-5.1394,-5.1394,-5.1394,-5.1394,-5.1394,-5.139,-5.1369,-5.1245,-5.0469,-4.9921,-4.896,-4.8113,-4.7368,-4.6628,-4.6123,-4.5652,-4.5594,-4.5633,-4.5594,-4.5594,-4.5594,-4.5614,-4.5729,-4.5913,-4.5645,-4.5578,-4.5532,-4.5486,-4.539,-4.531,-4.5184,-4.5091,-4.5026,-4.4943,-4.4907,-4.4895,-4.4895,-4.5048,-4.5363,-4.6135,-4.6469,-4.6952,-4.7825,-4.8015,-4.8199,-4.8288,-4.8324,-4.8324,-4.8286,-4.8246,-4.8207,-4.8149,-4.809,-4.801,-4.7852,-4.7726,-4.7618,-4.7446,-4.7272,-4.7156,-4.7043,-4.6962,-4.6819,-4.6567,-4.6135,-4.5724,-4.5027,-4.4688,-4.5129,-4.508,-4.5197,-4.5458,-4.5494,-4.5432,-4.5353,-4.5238,-4.5238,-4.5184,-4.5086,-4.4988,-4.4869,-4.472,-4.4508,-4.4281,-4.4051,-4.3864,-4.3793,-4.3704,-4.3615,-4.3615,-4.3615,-4.3615,-4.3615,-4.3615,-4.3615,-4.3615,-4.3568,-4.3402,-4.3143,-4.2836,-4.246,-4.2125,-4.1947,-4.1866,-5.1394,-5.1394,-5.1394,-5.1398,-5.1385,-5.139,-5.1398,-5.1386,-5.1385,-5.1395,-5.1398,-5.1394,-5.1394,-5.1394,-5.1394,-5.1394,-5.1392,-5.1381,-5.0932,-5.0121,-4.9577,-4.8577,-4.7566,-4.6752,-4.6224,-4.5706,-4.5594,-4.5594,-4.5594,-4.5594,-4.5594,-4.5594,-4.5594,-4.5633,-4.5652,-4.5605,-4.5586,-4.5568,-4.5504,-4.5457,-4.5371,-4.5281,-4.5184,-4.5125,-4.5057,-4.4974,-4.495,-4.499,-4.5092,-4.5494,-4.5897,-4.6214,-4.6866,-4.7438,-4.7693,-4.7997,-4.8272,-4.8289,-4.8324,-4.8324,-4.8267,-4.8225,-4.8226,-4.8169,-4.809,-4.7992,-4.787,-4.7726,-4.756,-4.7407,-4.7272,-4.716,-4.7017,-4.6869,-4.6623,-4.6212,-4.5971,-4.5311,-4.5002,-4.5398,-4.54,-4.5558,-4.567,-4.5597,-4.5563,-4.5476,-4.5414,-4.5414,-4.5414,-4.53,-4.5203,-4.513,-4.4995,-4.4786,-4.4564,-4.431,-4.4126,-4.4015,-4.3852,-4.3717,-4.3615,-4.3615,-4.3615,-4.3615,-4.3615,-4.3615,-4.3615,-4.3539,-4.3402,-4.3235,-4.3037,-4.2649,-4.2206,-4.2029,-4.1996,-5.1394,-5.1394,-5.1394,-5.1394,-5.1394,-5.1396,-5.1394,-5.1387,-5.1387,-5.1387,-5.1394,-5.1394,-5.1394,-5.1394,-5.1394,-5.1394,-5.1297,-5.1295,-5.064,-4.9878,-4.9039,-4.801,-4.7109,-4.63,-4.5935,-4.5728,-4.5603,-4.5594,-4.5594,-4.5622,-4.5622,-4.5603,-4.5612,-4.5612,-4.5603,-4.5594,-4.5594,-4.5586,-4.5577,-4.5513,-4.5438,-4.539,-4.531,-4.5216,-4.5136,-4.5038,-4.4991,-4.4969,-4.4945,-4.5193,-4.5557,-4.5767,-4.6277,-4.7071,-4.7436,-4.7825,-4.8255,-4.8328,-4.8343,-4.8324,-4.8286,-4.8246,-4.8267,-4.8247,-4.8189,-4.813,-4.807,-4.7911,-4.7749,-4.7582,-4.7407,-4.7298,-4.7165,-4.7008,-4.6864,-4.6645,-4.6534,-4.6193,-4.5912,-4.5833,-4.5658,-4.5703,-4.5805,-4.5778,-4.5589,-4.5476,-4.5414,-4.5414,-4.5414,-4.5414,-4.5344,-4.5318,-4.5184,-4.5032,-4.4841,-4.462,-4.4468,-4.4315,-4.4085,-4.3894,-4.3776,-4.3645,-4.3645,-4.3645,-4.3615,-4.3615,-4.3615,-4.3568,-4.3462,-4.3312,-4.316,-4.2836,-4.2397,-4.2206,-4.2093,-5.1394,-5.1394,-5.1394,-5.1394,-5.1394,-5.1394,-5.1394,-5.1387,-5.1387,-5.1402,-5.1394,-5.1394,-5.1394,-5.1394,-5.1394,-5.1394,-5.116,-5.0709,-4.9926,-4.9172,-4.841,-4.7372,-4.6595,-4.6075,-4.5828,-4.5727,-4.566,-4.562,-4.5612,-4.564,-4.5657,-4.5665,-4.5648,-4.5657,-4.564,-4.5631,-4.5603,-4.5594,-4.5594,-4.5568,-4.5513,-4.5448,-4.539,-4.5319,-4.5224,-4.5117,-4.5026,-4.4979,-4.4943,-4.5034,-4.564,-4.6075,-4.6659,-4.7442,-4.7958,-4.829,-4.844,-4.8438,-4.8343,-4.8324,-4.8305,-4.8267,-4.8305,-4.8247,-4.8246,-4.8208,-4.8208,-4.8052,-4.7913,-4.7728,-4.7518,-4.7385,-4.7254,-4.7107,-4.6851,-4.6592,-4.6444,-4.619,-4.598,-4.6148,-4.5975,-4.5982,-4.6052,-4.5778,-4.5615,-4.5476,-4.5414,-4.5414,-4.5414,-4.5414,-4.5414,-4.5388,-4.5344,-4.5194,-4.5113,-4.4923,-4.4776,-4.4609,-4.4384,-4.4126,-4.3952,-4.3835,-4.3747,-4.3674,-4.3645,-4.3615,-4.3615,-4.3568,-4.3492,-4.3432,-4.3281,-4.2959,-4.2649,-4.2429,-4.2238,-5.1394,-5.1394,-5.1394,-5.1394,-5.1394,-5.1394,-5.1391,-5.1385,-5.1386,-5.1384,-5.1387,-5.1398,-5.1394,-5.1394,-5.1394,-5.1375,-5.1316,-5.0534,-4.9714,-4.8851,-4.7886,-4.7053,-4.6376,-4.6022,-4.5925,-4.5815,-4.5737,-4.5688,-4.5679,-4.5673,-4.5682,-4.5693,-4.5684,-4.5676,-4.564,-4.5622,-4.5594,-4.5594,-4.5594,-4.5594,-4.5568,-4.5532,-4.5477,-4.54,-4.5298,-4.5203,-4.5103,-4.5068,-4.4991,-4.4962,-4.5546,-4.5741,-4.6158,-4.6707,-4.7554,-4.7856,-4.8105,-4.8182,-4.8253,-4.8324,-4.8324,-4.8324,-4.8324,-4.8267,-4.8267,-4.8267,-4.8208,-4.8072,-4.8012,-4.7891,-4.7666,-4.7454,-4.732,-4.7165,-4.6771,-4.6373,-4.6141,-4.5909,-4.6047,-4.631,-4.634,-4.6336,-4.6186,-4.5879,-4.5615,-4.5476,-4.5414,-4.5414,-4.5414,-4.5414,-4.5414,-4.5414,-4.5397,-4.5344,-4.5264,-4.5167,-4.5005,-4.4841,-4.4665,-4.444,-4.4212,-4.401,-4.3864,-4.3717,-4.3615,-4.3615,-4.3615,-4.3598,-4.3552,-4.3462,-4.3402,-4.316,-4.2867,-4.2618,-4.2429,-5.116,-5.1121,-5.118,-5.1043,-5.116,-5.1082,-5.1073,-5.1203,-5.1034,-5.1249,-5.1339,-5.1402,-5.1394,-5.1394,-5.1394,-5.1394,-5.1043,-5.0321,-4.946,-4.8701,-4.7682,-4.6843,-4.6348,-4.6095,-4.6002,-4.5925,-4.5848,-4.5778,-4.5758,-4.573,-4.5682,-4.5673,-4.5648,-4.564,-4.564,-4.5622,-4.5594,-4.5594,-4.5594,-4.5594,-4.5594,-4.5577,-4.555,-4.5438,-4.539,-4.5338,-4.5224,-4.5148,-4.5072,-4.5045,-4.5138,-4.5179,-4.5608,-4.5913,-4.6768,-4.7124,-4.7516,-4.7773,-4.7961,-4.807,-4.8197,-4.8233,-4.8324,-4.8287,-4.8287,-4.8287,-4.8228,-4.8169,-4.8092,-4.7972,-4.7788,-4.7557,-4.7385,-4.7209,-4.6914,-4.6681,-4.6569,-4.6427,-4.6516,-4.6667,-4.6587,-4.6566,-4.6357,-4.608,-4.5829,-4.5589,-4.5476,-4.5502,-4.5414,-4.5414,-4.5414,-4.5414,-4.5397,-4.5397,-4.5371,-4.5274,-4.5194,-4.5032,-4.4896,-4.4692,-4.444,-4.4184,-4.3952,-4.3776,-4.3615,-4.3615,-4.3615,-4.3598,-4.3568,-4.3492,-4.3432,-4.3342,-4.3129,-4.2867,-4.268,-4.9423,-4.9423,-4.9423,-4.9423,-4.9423,-4.9423,-4.9446,-4.9433,-4.9432,-5.0194,-5.1202,-5.1345,-5.1297,-5.118,-5.116,-5.116,-5.0926,-4.9733,-4.9091,-4.8291,-4.7393,-4.6704,-4.6277,-4.6167,-4.6087,-4.6016,-4.5947,-4.5848,-4.5769,-4.573,-4.5682,-4.5682,-4.5657,-4.5648,-4.5629,-4.5612,-4.5594,-4.5594,-4.5594,-4.5594,-4.5594,-4.5586,-4.5559,-4.5485,-4.5448,-4.54,-4.5309,-4.5235,-4.5192,-4.5186,-4.5632,-4.6076,-4.6631,-4.668,-4.6786,-4.6947,-4.6952,-4.7203,-4.7553,-4.7758,-4.7905,-4.8197,-4.8324,-4.8324,-4.8324,-4.8324,-4.8286,-4.8247,-4.8169,-4.805,-4.7888,-4.7642,-4.7428,-4.7272,-4.7093,-4.7048,-4.702,-4.6998,-4.6998,-4.6911,-4.6819,-4.6661,-4.6518,-4.6284,-4.6055,-4.5862,-4.576,-4.5675,-4.5476,-4.5414,-4.5414,-4.5414,-4.5414,-4.5397,-4.5397,-4.5371,-4.5274,-4.5194,-4.5059,-4.4858,-4.4637,-4.4258,-4.391,-4.3747,-4.3615,-4.3615,-4.3615,-4.3615,-4.3568,-4.3539,-4.3492,-4.3432,-4.3402,-4.319,-4.3007,-4.879,-4.8798,-4.8798,-4.8798,-4.8798,-4.8798,-4.8798,-4.8804,-4.8803,-4.9316,-5.0153,-5.0237,-5.0262,-5.0262,-5.0243,-5.034,-5.0085,-4.8851,-4.8346,-4.7781,-4.7118,-4.6532,-4.6264,-4.6194,-4.6178,-4.6121,-4.6042,-4.5937,-4.5819,-4.575,-4.5758,-4.569,-4.5693,-4.5657,-4.5648,-4.5603,-4.5594,-4.5594,-4.5594,-4.5594,-4.5594,-4.5586,-4.5568,-4.5504,-4.5467,-4.5429,-4.54,-4.5319,-4.5297,-4.5241,-4.5437,-4.5576,-4.5887,-4.5904,-4.6101,-4.6232,-4.6364,-4.6581,-4.712,-4.7462,-4.7666,-4.8106,-4.8324,-4.8324,-4.8324,-4.8305,-4.8267,-4.8228,-4.8207,-4.809,-4.7891,-4.7663,-4.7536,-4.7403,-4.7205,-4.7111,-4.7043,-4.6998,-4.6998,-4.6957,-4.6865,-4.6795,-4.6637,-4.6518,-4.6253,-4.5862,-4.5811,-4.5709,-4.5537,-4.545,-4.5423,-4.5414,-4.5414,-4.5414,-4.5397,-4.5397,-4.5371,-4.5318,-4.5194,-4.4923,-4.4592,-4.42,-4.3839,-4.3763,-4.3674,-4.3615,-4.3615,-4.3615,-4.3615,-4.3568,-4.3568,-4.3552,-4.3539,-4.3479,-4.3328,-4.8408,-4.8484,-4.8447,-4.8447,-4.8486,-4.8466,-4.8408,-4.8411,-4.8426,-4.8415,-4.8476,-4.8484,-4.853,-4.8759,-4.8798,-4.8798,-4.8621,-4.8148,-4.7758,-4.7253,-4.6683,-4.616,-4.6064,-4.6179,-4.6201,-4.6186,-4.6091,-4.6007,-4.5911,-4.5819,-4.5738,-4.569,-4.5648,-4.5594,-4.5594,-4.5594,-4.5594,-4.5594,-4.5594,-4.5594,-4.5594,-4.5594,-4.5568,-4.5522,-4.5504,-4.5476,-4.5429,-4.54,-4.5359,-4.5295,-4.5224,-4.5235,-4.524,-4.5312,-4.5374,-4.5533,-4.5804,-4.633,-4.6986,-4.733,-4.7758,-4.8143,-4.8252,-4.8324,-4.8324,-4.8305,-4.8267,-4.8265,-4.8226,-4.811,-4.7911,-4.7788,-4.7663,-4.7511,-4.7356,-4.7156,-4.7088,-4.702,-4.6998,-4.6998,-4.6934,-4.6842,-4.6772,-4.6678,-4.6423,-4.6038,-4.5811,-4.5675,-4.5589,-4.5563,-4.5537,-4.5476,-4.5414,-4.5414,-4.5414,-4.5414,-4.5414,-4.5318,-4.5194,-4.4906,-4.4603,-4.4253,-4.3998,-4.3868,-4.378,-4.3704,-4.3645,-4.3615,-4.3615,-4.3615,-4.3598,-4.3598,-4.3598,-4.3539,-4.3522,-4.673,-4.6788,-4.6768,-4.6788,-4.6827,-4.6807,-4.6788,-4.6791,-4.6843,-4.6772,-4.6913,-4.6951,-4.7407,-4.8779,-4.8798,-4.8623,-4.8055,-4.7543,-4.7018,-4.6532,-4.608,-4.5711,-4.5695,-4.6046,-4.6189,-4.6195,-4.6123,-4.6008,-4.5931,-4.5801,-4.5715,-4.5684,-4.5629,-4.5594,-4.5594,-4.5594,-4.5594,-4.5594,-4.5594,-4.5594,-4.5594,-4.5594,-4.5586,-4.5568,-4.5522,-4.5504,-4.5486,-4.5409,-4.5389,-4.5338,-4.5254,-4.5114,-4.5102,-4.5081,-4.518,-4.5364,-4.5604,-4.6266,-4.6894,-4.7305,-4.7774,-4.8347,-4.8438,-4.8344,-4.8344,-4.8343,-4.8305,-4.8305,-4.8267,-4.8189,-4.8032,-4.7972,-4.785,-4.766,-4.7446,-4.7249,-4.7093,-4.7025,-4.6998,-4.6998,-4.6998,-4.6934,-4.6934,-4.6842,-4.6731,-4.6429,-4.6332,-4.6154,-4.5803,-4.5727,-4.5641,-4.5537,-4.545,-4.5414,-4.5414,-4.5414,-4.5397,-4.5318,-4.5194,-4.4879,-4.4631,-4.4378,-4.4184,-4.4027,-4.3898,-4.3793,-4.3734,-4.3645,-4.3615,-4.3615,-4.3615,-4.3615,-4.3615,-4.3615,-4.3568]},{"header":{"parameterUnit":"m.s-1","parameterCategory":1,"la1":31.0,"la2":29.5877,"lo1":-88.7671,"lo2":-86.6584,"dy":0.0162,"dx":0.0185,"nx":115,"ny":88,"refTime":"2023-05-04T12:00:00:Z","depth":0,"parameterNumber":3,"parameterNumberName":"V-component_of_WINDS"},"data":[0.0,0.0,0.0,0.0,0.0,0.0,0.0,0.0,0.0,0.0,0.0,0.0,0.0,0.0,0.0,0.0,0.0,0.0,0.0,0.0,0.0,0.0,0.0,0.0,0.0,0.0,0.0,0.0,0.0,0.0,0.0,0.0,0.0,0.0,0.0,0.0,0.0,0.0,0.0,0.0,0.0,0.0,0.0,0.0,0.0,0.0,0.0,0.0,0.0,0.0,0.0,0.0,0.0,0.0,0.0,0.0,0.0,0.0,0.0,0.0,0.0,0.0,0.0,0.0,0.0,0.0,0.0,0.0,0.0,0.0,0.0,0.0,0.0,0.0,0.0,0.0,0.0,0.0,0.0,0.0,0.0,0.0,0.0,0.0,0.0,0.0,0.0,0.0,0.0,0.0,0.0,0.0,0.0,0.0,0.0,0.0,0.0,0.0,0.0,0.0,0.0,0.0,0.0,0.0,0.0,0.0,0.0,0.0,0.0,0.0,0.0,0.0,0.0,0.0,0.0,0.0,0.0,0.0,0.0,0.0,0.0,0.0,0.0,0.0,0.0,0.0,0.0,0.0,0.0,0.0,0.0,0.0,0.0,0.0,0.0,0.0,0.0,0.0,0.0,0.0,0.0,0.0,0.0,0.0,0.0,0.0,0.0,0.0,0.0,0.0,0.0,0.0,0.0,0.0,0.0,0.0,0.0,0.0,0.0,0.0,0.0,0.0,0.0,0.0,0.0,0.0,0.0,0.0,0.0,0.0,0.0,0.0,0.0,0.0,0.0,0.0,0.0,0.0,0.0,0.0,0.0,0.0,0.0,0.0,0.0,0.0,0.0,0.0,0.0,0.0,0.0,0.0,0.0,0.0,0.0,0.0,0.0,0.0,0.0,0.0,0.0,0.0,0.0,0.0,0.0,0.0,0.0,0.0,0.0,0.0,0.0,0.0,0.0,0.0,0.0,0.0,0.0,0.0,0.0,0.0,0.0,0.0,0.0,0.0,0.0,0.0,0.0,0.0,0.0,0.0,0.0,0.0,0.0,0.0,0.0,0.0,0.0,0.0,0.0,0.0,0.0,0.0,0.0,0.0,0.0,0.0,0.0,0.0,0.0,0.0,0.0,0.0,0.0,0.0,0.0,0.0,0.0,0.0,0.0,0.0,0.0,0.0,0.0,0.0,0.0,0.0,0.0,0.0,0.0,0.0,0.0,0.0,0.0,0.0,0.0,0.0,0.0,0.0,0.0,0.0,0.0,0.0,0.0,0.0,0.0,0.0,0.0,0.0,0.0,0.0,0.0,0.0,0.0,0.0,0.0,0.0,0.0,0.0,0.0,0.0,0.0,0.0,0.0,0.0,0.0,0.0,0.0,0.0,0.0,0.0,0.0,0.0,0.0,0.0,0.0,0.0,0.0,0.0,0.0,0.0,0.0,0.0,0.0,0.0,0.0,0.0,0.0,0.0,0.0,0.0,0.0,0.0,0.0,0.0,0.0,0.0,0.0,0.0,0.0,0.0,0.0,0.0,0.0,0.0,0.0,0.0,0.0,0.0,0.0,0.0,0.0,0.0,0.0,0.0,0.0,0.0,0.0,0.0,0.0,0.0,0.0,0.0,0.0,0.0,0.0,0.0,0.0,0.0,0.0,0.0,0.0,0.0,0.0,0.0,0.0,0.0,0.0,0.0,0.0,0.0,0.0,0.0,0.0,0.0,0.0,0.0,0.0,0.0,0.0,0.0,0.0,0.0,0.0,0.0,0.0,0.0,0.0,0.0,0.0,0.0,0.0,0.0,0.0,0.0,0.0,0.0,0.0,0.0,0.0,0.0,0.0,0.0,0.0,0.0,0.0,0.0,0.0,0.0,0.0,0.0,0.0,0.0,0.0,0.0,0.0,0.0,0.0,0.0,0.0,0.0,0.0,0.0,0.0,0.0,0.0,0.0,0.0,0.0,0.0,0.0,0.0,0.0,0.0,0.0,0.0,0.0,0.0,0.0,0.0,0.0,0.0,0.0,0.0,0.0,0.0,0.0,0.0,0.0,0.0,0.0,0.0,0.0,0.0,0.0,0.0,0.0,0.0,0.0,0.0,0.0,0.0,0.0,0.0,0.0,0.0,0.0,0.0,0.0,0.0,0.0,0.0,0.0,0.0,0.0,0.0,0.0,0.0,0.0,0.0,0.0,0.0,0.0,0.0,0.0,0.0,0.0,0.0,0.0,0.0,0.0,0.0,0.0,0.0,0.0,0.0,0.0,0.0,0.0,0.0,0.0,0.0,0.0,0.0,0.0,0.0,0.0,0.0,0.0,0.0,0.0,0.0,0.0,0.0,0.0,0.0,0.0,0.0,0.0,0.0,0.0,0.0,0.0,0.0,0.0,0.0,0.0,0.0,0.0,0.0,0.0,0.0,0.0,0.0,0.0,0.0,0.0,0.0,0.0,0.0,0.0,0.0,0.0,0.0,0.0,0.0,0.0,0.0,0.0,0.0,0.0,0.0,0.0,0.0,0.0,0.0,0.0,0.0,0.0,0.0,0.0,0.0,0.0,0.0,0.0,0.0,0.0,0.0,0.0,0.0,0.0,0.0,0.0,0.0,0.0,0.0,0.0,0.0,0.0,0.0,0.0,0.0,0.0,0.0,0.0,0.0,0.0,0.0,0.0,0.0,0.0,0.0,0.0,0.0,0.0,0.0,0.0,0.0,0.0,0.0,0.0,0.0,0.0,0.0,0.0,0.0,0.0,0.0,0.0,0.0,0.0,0.0,0.0,0.0,0.0,0.0,0.0,0.0,0.0,0.0,0.0,0.0,0.0,0.0,0.0,0.0,0.0,0.0,0.0,0.0,0.0,0.0,0.0,0.0,0.0,0.0,0.0,0.0,0.0,0.0,0.0,0.0,0.0,0.0,0.0,0.0,0.0,0.0,0.0,0.0,0.0,0.0,0.0,0.0,0.0,0.0,0.0,0.0,0.0,0.0,0.0,0.0,0.0,0.0,0.0,0.0,0.0,0.0,0.0,0.0,0.0,0.0,0.0,0.0,0.0,0.0,0.0,0.0,0.0,0.0,0.0,0.0,0.0,0.0,0.0,0.0,0.0,0.0,0.0,0.0,0.0,0.0,0.0,0.0,0.0,0.0,0.0,0.0,0.0,0.0,0.0,0.0,0.0,0.0,0.0,0.0,0.0,0.0,0.0,0.0,0.0,0.0,0.0,0.0,0.0,0.0,0.0,0.0,0.0,0.0,0.0,0.0,0.0,0.0,0.0,0.0,0.0,0.0,0.0,0.0,0.0,0.0,0.0,0.0,0.0,0.0,0.0,0.0,0.0,0.0,0.0,0.0,0.0,0.0,0.0,0.0,0.0,0.0,0.0,0.0,0.0,0.0,0.0,0.0,0.0,0.0,0.0,0.0,0.0,0.0,0.0,0.0,0.0,0.0,0.0,0.0,0.0,0.0,0.0,0.0,0.0,0.0,0.0,0.0,0.0,0.0,0.0,0.0,0.0,0.0,0.0,0.0,0.0,0.0,0.0,0.0,0.0,0.0,0.0,0.0,0.0,0.0,0.0,0.0,0.0,0.0,0.0,0.0,0.0,0.0,0.0,0.0,0.0,0.0,0.0,0.0,0.0,0.0,0.0,0.0,0.0,0.0,0.0,0.0,0.0,0.0,0.0,0.0,0.0,0.0,0.0,0.0,0.0,0.0,0.0,0.0,0.0,0.0,0.0,0.0,0.0,0.0,0.0,0.0,0.0,0.0,0.0,0.0,0.0,0.0,0.0,0.0,0.0,0.0,0.0,0.0,0.0,0.0,0.0,0.0,0.0,0.0,0.0,0.0,0.0,0.0,0.0,0.0,0.0,0.0,0.0,0.0,0.0,0.0,0.0,0.0,0.0,0.0,0.0,0.0,0.0,0.0,0.0,0.0,0.0,0.0,0.0,0.0,0.0,0.0,0.0,0.0,0.0,0.0,0.0,0.0,0.0,0.0,0.0,0.0,0.0,0.0,0.0,0.0,0.0,0.0,0.0,0.0,0.0,0.0,0.0,0.0,0.0,0.0,0.0,0.0,0.0,0.0,0.0,0.0,0.0,0.0,0.0,0.0,0.0,0.0,0.0,0.0,0.0,0.0,0.0,0.0,0.0,0.0,0.0,0.0,0.0,0.0,0.0,0.0,0.0,0.0,0.0,0.0,0.0,0.0,0.0,0.0,0.0,0.0,0.0,0.0,0.0,0.0,0.0,0.0,0.0,0.0,0.0,0.0,0.0,0.0,0.0,-1.2305,0.0,0.0,0.0,-1.2592,0.0,0.0,0.0,0.0,0.0,0.0,0.0,0.0,0.0,0.0,0.0,0.0,0.0,0.0,0.0,0.0,0.0,0.0,0.0,0.0,0.0,0.0,0.0,0.0,0.0,0.0,0.0,0.0,0.0,0.0,0.0,0.0,0.0,0.0,0.0,0.0,0.0,0.0,0.0,0.0,0.0,0.0,0.0,0.0,0.0,0.0,0.0,0.0,0.0,0.0,0.0,0.0,0.0,0.0,0.0,0.0,0.0,0.0,0.0,0.0,0.0,0.0,0.0,0.0,0.0,0.0,0.0,0.0,0.0,0.0,0.0,0.0,0.0,0.0,0.0,0.0,0.0,0.0,0.0,0.0,0.0,0.0,0.0,0.0,0.0,0.0,0.0,0.0,0.0,0.0,0.0,0.0,0.0,0.0,0.0,0.0,0.0,0.0,0.0,0.0,0.0,0.0,0.0,0.0,0.0,0.0,0.0,0.0,0.0,0.0,-1.204,-1.215,-1.2224,-1.2415,-1.2599,0.0,0.0,0.0,0.0,0.0,0.0,0.0,0.0,0.0,0.0,0.0,0.0,0.0,0.0,0.0,0.0,0.0,0.0,0.0,0.0,0.0,0.0,0.0,0.0,0.0,0.0,0.0,0.0,0.0,0.0,0.0,0.0,0.0,0.0,0.0,0.0,0.0,0.0,0.0,0.0,0.0,0.0,0.0,0.0,0.0,0.0,0.0,0.0,0.0,0.0,0.0,0.0,0.0,0.0,0.0,0.0,0.0,0.0,0.0,0.0,0.0,0.0,0.0,0.0,0.0,0.0,0.0,0.0,0.0,0.0,0.0,0.0,0.0,0.0,0.0,0.0,0.0,0.0,0.0,0.0,0.0,0.0,0.0,0.0,0.0,0.0,0.0,0.0,0.0,0.0,0.0,0.0,0.0,0.0,0.0,0.0,0.0,0.0,0.0,0.0,0.0,0.0,0.0,0.0,0.0,0.0,0.0,0.0,0.0,0.0,0.0,0.0,-1.2194,-1.2415,-1.2673,0.0,0.0,0.0,0.0,0.0,0.0,0.0,0.0,0.0,0.0,0.0,0.0,0.0,0.0,0.0,0.0,0.0,0.0,0.0,0.0,0.0,0.0,0.0,0.0,0.0,0.0,0.0,0.0,0.0,0.0,0.0,0.0,0.0,0.0,0.0,0.0,0.0,0.0,0.0,0.0,0.0,0.0,0.0,0.0,0.0,0.0,0.0,0.0,0.0,0.0,0.0,0.0,0.0,0.0,0.0,0.0,0.0,0.0,0.0,0.0,0.0,0.0,0.0,0.0,0.0,0.0,0.0,0.0,0.0,0.0,0.0,0.0,0.0,0.0,0.0,0.0,0.0,0.0,0.0,0.0,0.0,0.0,0.0,0.0,0.0,0.0,0.0,0.0,0.0,0.0,0.0,0.0,0.0,0.0,0.0,0.0,0.0,0.0,0.0,0.0,0.0,0.0,0.0,0.0,0.0,0.0,0.0,0.0,0.0,0.0,-1.2003,-1.2003,-1.2187,0.0,-1.2863,0.0,0.0,0.0,0.0,0.0,0.0,0.0,0.0,0.0,0.0,0.0,0.0,0.0,0.0,0.0,0.0,0.0,0.0,0.0,0.0,0.0,0.0,0.0,0.0,0.0,0.0,0.0,0.0,0.0,0.0,0.0,0.0,0.0,0.0,0.0,0.0,0.0,0.0,0.0,0.0,0.0,0.0,0.0,0.0,0.0,0.0,0.0,0.0,0.0,0.0,0.0,0.0,0.0,0.0,0.0,0.0,0.0,0.0,0.0,0.0,0.0,0.0,0.0,0.0,0.0,0.0,0.0,0.0,0.0,0.0,0.0,0.0,0.0,0.0,0.0,0.0,0.0,0.0,0.0,0.0,0.0,0.0,0.0,0.0,0.0,0.0,0.0,0.0,0.0,0.0,0.0,0.0,0.0,0.0,0.0,0.0,0.0,0.0,0.0,0.0,0.0,0.0,0.0,0.0,0.0,0.0,0.0,0.0,0.0,0.0,-1.1632,-1.1632,-1.2083,-1.2569,0.0,0.0,0.0,0.0,0.0,0.0,0.0,0.0,0.0,0.0,0.0,0.0,0.0,0.0,0.0,0.0,0.0,0.0,0.0,0.0,0.0,0.0,0.0,0.0,0.0,0.0,0.0,0.0,0.0,0.0,0.0,0.0,0.0,0.0,0.0,0.0,0.0,0.0,0.0,0.0,0.0,0.0,0.0,0.0,0.0,0.0,0.0,0.0,0.0,0.0,0.0,0.0,0.0,0.0,0.0,0.0,0.0,0.0,0.0,0.0,0.0,0.0,0.0,0.0,0.0,0.0,0.0,0.0,0.0,0.0,0.0,0.0,0.0,0.0,0.0,0.0,0.0,0.0,0.0,0.0,0.0,0.0,0.0,0.0,0.0,0.0,0.0,0.0,0.0,0.0,0.0,0.0,0.0,0.0,0.0,0.0,0.0,0.0,0.0,0.0,0.0,0.0,0.0,0.0,0.0,0.0,0.0,0.0,0.0,0.0,-1.1446,-1.1446,-1.1595,-1.2046,-1.2562,-1.309,0.0,0.0,0.0,0.0,0.0,0.0,0.0,0.0,0.0,0.0,0.0,0.0,0.0,0.0,0.0,0.0,0.0,0.0,0.0,0.0,0.0,0.0,0.0,0.0,0.0,0.0,0.0,0.0,0.0,0.0,0.0,0.0,0.0,0.0,0.0,0.0,0.0,0.0,0.0,0.0,0.0,0.0,0.0,0.0,0.0,0.0,0.0,0.0,0.0,0.0,0.0,0.0,0.0,0.0,0.0,0.0,0.0,0.0,0.0,0.0,0.0,0.0,0.0,0.0,0.0,0.0,0.0,0.0,0.0,0.0,0.0,0.0,0.0,0.0,0.0,0.0,0.0,0.0,0.0,0.0,0.0,0.0,0.0,0.0,0.0,0.0,0.0,0.0,0.0,0.0,0.0,0.0,0.0,0.0,0.0,0.0,0.0,0.0,0.0,0.0,0.0,0.0,0.0,0.0,0.0,0.0,0.0,0.0,-1.1669,-1.1477,-1.1595,-1.1966,-1.2194,-1.2489,0.0,0.0,0.0,0.0,0.0,0.0,0.0,0.0,0.0,0.0,0.0,0.0,0.0,0.0,0.0,0.0,0.0,0.0,0.0,0.0,0.0,0.0,0.0,0.0,0.0,0.0,0.0,0.0,0.0,0.0,0.0,0.0,0.0,0.0,0.0,0.0,0.0,0.0,0.0,0.0,0.0,0.0,0.0,0.0,0.0,0.0,0.0,0.0,0.0,0.0,0.0,0.0,0.0,0.0,0.0,0.0,0.0,0.0,0.0,0.0,0.0,0.0,0.0,0.0,0.0,0.0,0.0,0.0,0.0,0.0,0.0,0.0,0.0,0.0,0.0,0.0,0.0,0.0,0.0,0.0,0.0,0.0,0.0,0.0,0.0,0.0,0.0,0.0,0.0,0.0,0.0,0.0,0.0,0.0,0.0,0.0,0.0,0.0,0.0,0.0,0.0,0.0,0.0,0.0,0.0,0.0,0.0,0.0,0.0,-1.1484,-1.1446,-1.1595,-1.2009,-1.2187,-1.2526,0.0,0.0,0.0,0.0,0.0,0.0,0.0,0.0,0.0,0.0,0.0,0.0,0.0,0.0,0.0,0.0,0.0,0.0,0.0,0.0,0.0,0.0,0.0,0.0,0.0,0.0,0.0,0.0,0.0,0.0,0.0,0.0,0.0,0.0,0.0,0.0,0.0,0.0,0.0,0.0,0.0,0.0,0.0,0.0,0.0,0.0,0.0,0.0,0.0,0.0,0.0,0.0,0.0,0.0,0.0,0.0,0.0,0.0,0.0,0.0,0.0,0.0,0.0,0.0,0.0,0.0,0.0,0.0,0.0,0.0,0.0,0.0,0.0,0.0,0.0,0.0,0.0,0.0,0.0,0.0,0.0,0.0,0.0,0.0,0.0,0.0,0.0,0.0,0.0,0.0,0.0,0.0,0.0,0.0,0.0,0.0,0.0,0.0,0.0,0.0,0.0,0.0,0.0,0.0,0.0,0.0,0.0,0.0,0.0,-1.1521,0.0,-1.1706,-1.2003,-1.2342,-1.2673,0.0,0.0,0.0,0.0,0.0,0.0,0.0,0.0,0.0,0.0,0.0,0.0,0.0,0.0,0.0,0.0,0.0,0.0,0.0,0.0,0.0,0.0,0.0,0.0,0.0,0.0,0.0,0.0,0.0,0.0,0.0,0.0,0.0,0.0,0.0,0.0,0.0,0.0,0.0,0.0,0.0,0.0,0.0,0.0,0.0,0.0,0.0,0.0,0.0,0.0,0.0,0.0,0.0,0.0,0.0,0.0,0.0,0.0,0.0,0.0,0.0,0.0,0.0,0.0,0.0,0.0,0.0,0.0,0.0,0.0,0.0,0.0,0.0,0.0,0.0,0.0,0.0,0.0,0.0,0.0,0.0,0.0,0.0,0.0,0.0,0.0,0.0,0.0,0.0,0.0,0.0,0.0,0.0,0.0,0.0,0.0,0.0,0.0,0.0,0.0,0.0,0.0,0.0,0.0,0.0,0.0,0.0,0.0,-1.1898,-1.1706,-1.1892,-1.1966,-1.2009,-1.2562,-1.29,0.0,0.0,0.0,0.0,0.0,0.0,0.0,0.0,0.0,0.0,0.0,0.0,0.0,0.0,0.0,0.0,0.0,0.0,0.0,0.0,0.0,0.0,0.0,0.0,0.0,0.0,0.0,0.0,0.0,0.0,0.0,0.0,0.0,0.0,0.0,0.0,0.0,0.0,0.0,0.0,0.0,0.0,0.0,0.0,0.0,0.0,0.0,0.0,0.0,0.0,0.0,0.0,0.0,0.0,0.0,0.0,0.0,0.0,0.0,0.0,0.0,0.0,0.0,0.0,0.0,0.0,0.0,0.0,0.0,0.0,0.0,0.0,0.0,0.0,0.0,0.0,0.0,0.0,0.0,0.0,0.0,0.0,0.0,0.0,0.0,0.0,0.0,0.0,0.0,0.0,0.0,0.0,0.0,0.0,0.0,0.0,0.0,0.0,0.0,0.0,0.0,0.0,0.0,0.0,0.0,0.0,0.0,0.0,0.0,-1.1533,-1.1818,-1.1929,-1.1818,-1.2231,-1.2599,0.0,0.0,0.0,0.0,0.0,0.0,0.0,0.0,0.0,0.0,0.0,0.0,0.0,0.0,0.0,0.0,0.0,0.0,0.0,0.0,0.0,0.0,0.0,0.0,0.0,0.0,0.0,0.0,0.0,0.0,0.0,0.0,0.0,0.0,0.0,0.0,0.0,0.0,0.0,0.0,0.0,0.0,0.0,0.0,0.0,0.0,0.0,0.0,0.0,0.0,0.0,0.0,0.0,0.0,0.0,0.0,0.0,0.0,0.0,0.0,0.0,0.0,0.0,0.0,0.0,0.0,0.0,0.0,0.0,0.0,0.0,0.0,0.0,0.0,0.0,0.0,0.0,0.0,0.0,0.0,0.0,0.0,0.0,0.0,0.0,0.0,0.0,0.0,0.0,0.0,0.0,0.0,0.0,0.0,0.0,0.0,0.0,0.0,0.0,0.0,0.0,0.0,0.0,0.0,0.0,0.0,0.0,0.0,0.0,-1.2157,-1.2415,-1.253,-1.2415,-1.2692,-1.2972,-1.3236,0.0,0.0,0.0,0.0,0.0,0.0,0.0,0.0,0.0,0.0,0.0,0.0,0.0,0.0,0.0,0.0,0.0,0.0,0.0,0.0,0.0,0.0,0.0,0.0,0.0,0.0,0.0,0.0,0.0,0.0,0.0,0.0,0.0,0.0,0.0,0.0,0.0,0.0,0.0,0.0,0.0,0.0,0.0,0.0,0.0,0.0,0.0,0.0,0.0,0.0,0.0,0.0,0.0,0.0,0.0,0.0,0.0,0.0,0.0,0.0,0.0,0.0,0.0,0.0,0.0,0.0,0.0,0.0,0.0,0.0,0.0,0.0,0.0,0.0,0.0,0.0,0.0,0.0,0.0,0.0,0.0,0.0,0.0,0.0,0.0,0.0,0.0,0.0,0.0,0.0,0.0,0.0,0.0,0.0,0.0,0.0,0.0,0.0,0.0,0.0,0.0,0.0,0.0,0.0,0.0,0.0,0.0,0.0,-1.3385,-1.3611,-1.3673,-1.3572,-1.368,-1.3805,0.0,0.0,0.0,0.0,0.0,0.0,0.0,0.0,0.0,0.0,0.0,0.0,0.0,0.0,0.0,0.0,0.0,0.0,0.0,0.0,0.0,0.0,0.0,0.0,0.0,0.0,0.0,0.0,0.0,0.0,0.0,0.0,0.0,0.0,0.0,0.0,0.0,0.0,0.0,0.0,0.0,0.0,0.0,0.0,0.0,0.0,0.0,0.0,0.0,0.0,0.0,0.0,0.0,0.0,0.0,0.0,0.0,0.0,0.0,0.0,0.0,0.0,0.0,0.0,0.0,0.0,0.0,0.0,0.0,0.0,0.0,0.0,0.0,0.0,0.0,0.0,0.0,0.0,0.0,0.0,0.0,0.0,0.0,0.0,0.0,0.0,0.0,0.0,0.0,0.0,0.0,0.0,0.0,0.0,0.0,0.0,0.0,0.0,0.0,0.0,0.0,0.0,0.0,0.0,0.0,0.0,0.0,0.0,0.0,-1.4566,-1.4963,-1.4768,-1.3785,-1.3674,-1.3804,0.0,0.0,0.0,0.0,0.0,0.0,0.0,0.0,0.0,0.0,0.0,0.0,0.0,0.0,0.0,0.0,0.0,0.0,0.0,0.0,0.0,0.0,0.0,0.0,0.0,0.0,0.0,0.0,0.0,0.0,0.0,0.0,0.0,0.0,0.0,0.0,0.0,0.0,0.0,0.0,0.0,0.0,0.0,0.0,0.0,0.0,0.0,0.0,0.0,0.0,0.0,0.0,0.0,0.0,0.0,0.0,0.0,0.0,0.0,0.0,0.0,0.0,0.0,0.0,0.0,0.0,0.0,0.0,0.0,0.0,0.0,0.0,0.0,0.0,0.0,0.0,0.0,0.0,0.0,0.0,0.0,0.0,0.0,0.0,0.0,0.0,0.0,0.0,0.0,0.0,0.0,0.0,0.0,0.0,0.0,0.0,0.0,0.0,0.0,0.0,0.0,0.0,0.0,0.0,0.0,0.0,0.0,0.0,-1.466,-1.5008,-1.5647,-1.562,-1.4836,-1.4759,-1.4671,0.0,0.0,0.0,0.0,0.0,0.0,0.0,0.0,0.0,0.0,0.0,0.0,0.0,0.0,0.0,0.0,0.0,0.0,0.0,0.0,0.0,0.0,0.0,0.0,0.0,0.0,0.0,0.0,0.0,0.0,0.0,0.0,0.0,0.0,0.0,0.0,0.0,0.0,0.0,0.0,0.0,0.0,0.0,0.0,0.0,0.0,0.0,0.0,0.0,0.0,0.0,0.0,0.0,0.0,0.0,0.0,0.0,0.0,0.0,0.0,0.0,0.0,0.0,0.0,0.0,0.0,0.0,0.0,0.0,0.0,0.0,0.0,0.0,0.0,0.0,0.0,0.0,0.0,0.0,0.0,0.0,0.0,0.0,0.0,0.0,0.0,0.0,0.0,0.0,0.0,0.0,0.0,0.0,0.0,0.0,0.0,0.0,0.0,0.0,0.0,0.0,0.0,0.0,0.0,0.0,0.0,0.0,0.0,-1.5073,-1.5062,-1.5831,-1.6224,-1.6197,-1.6211,-1.5943,0.0,0.0,0.0,0.0,0.0,0.0,0.0,0.0,0.0,0.0,0.0,0.0,0.0,0.0,0.0,0.0,0.0,0.0,0.0,0.0,0.0,0.0,0.0,0.0,0.0,0.0,0.0,0.0,0.0,0.0,0.0,0.0,0.0,0.0,0.0,0.0,0.0,0.0,0.0,0.0,0.0,0.0,0.0,0.0,0.0,0.0,0.0,0.0,0.0,0.0,0.0,0.0,0.0,0.0,0.0,0.0,0.0,0.0,0.0,0.0,0.0,0.0,0.0,0.0,0.0,0.0,0.0,0.0,0.0,0.0,0.0,0.0,0.0,0.0,0.0,0.0,0.0,0.0,0.0,0.0,0.0,0.0,0.0,0.0,0.0,0.0,0.0,0.0,0.0,0.0,0.0,0.0,0.0,0.0,0.0,0.0,0.0,0.0,0.0,0.0,0.0,0.0,0.0,0.0,0.0,0.0,0.0,0.0,-1.5424,-1.535,-1.612,-1.6407,-1.6224,-1.624,-1.6133,0.0,0.0,0.0,0.0,0.0,0.0,0.0,0.0,0.0,0.0,0.0,0.0,0.0,0.0,0.0,0.0,0.0,0.0,0.0,0.0,0.0,0.0,0.0,0.0,0.0,0.0,0.0,0.0,0.0,0.0,0.0,0.0,0.0,0.0,0.0,0.0,0.0,0.0,0.0,0.0,0.0,0.0,0.0,0.0,0.0,0.0,0.0,0.0,-2.2324,0.0,0.0,0.0,0.0,0.0,0.0,0.0,0.0,0.0,0.0,0.0,0.0,0.0,0.0,0.0,0.0,0.0,0.0,0.0,0.0,0.0,0.0,0.0,0.0,0.0,0.0,0.0,0.0,0.0,0.0,0.0,0.0,0.0,0.0,0.0,0.0,0.0,0.0,0.0,0.0,0.0,0.0,0.0,0.0,0.0,0.0,0.0,0.0,0.0,0.0,0.0,0.0,0.0,0.0,0.0,0.0,0.0,0.0,0.0,-1.549,-1.5628,-1.6388,-1.6737,-1.6588,-1.6759,-1.6647,0.0,0.0,0.0,0.0,0.0,0.0,0.0,0.0,0.0,0.0,0.0,0.0,0.0,0.0,0.0,0.0,0.0,0.0,0.0,0.0,0.0,0.0,0.0,0.0,0.0,0.0,0.0,0.0,0.0,0.0,0.0,0.0,0.0,0.0,0.0,0.0,0.0,0.0,0.0,0.0,0.0,0.0,0.0,0.0,0.0,0.0,0.0,0.0,0.0,0.0,0.0,0.0,0.0,0.0,0.0,0.0,0.0,0.0,0.0,0.0,0.0,0.0,0.0,0.0,0.0,0.0,0.0,0.0,0.0,0.0,0.0,0.0,0.0,0.0,0.0,0.0,0.0,0.0,0.0,0.0,0.0,0.0,0.0,0.0,0.0,0.0,0.0,0.0,0.0,0.0,0.0,0.0,0.0,0.0,0.0,0.0,0.0,0.0,0.0,0.0,0.0,0.0,0.0,0.0,0.0,0.0,0.0,-1.5127,-1.5562,-1.5927,-1.661,-1.7026,-1.7106,-1.7431,-1.7318,-1.6632,0.0,0.0,0.0,0.0,0.0,0.0,0.0,0.0,0.0,0.0,0.0,0.0,0.0,0.0,0.0,0.0,0.0,0.0,0.0,0.0,0.0,0.0,0.0,0.0,0.0,0.0,0.0,0.0,0.0,0.0,0.0,0.0,0.0,0.0,0.0,0.0,0.0,0.0,-2.3188,-2.314,0.0,0.0,0.0,0.0,0.0,0.0,0.0,0.0,-2.3924,0.0,0.0,0.0,0.0,0.0,0.0,0.0,0.0,0.0,0.0,0.0,0.0,0.0,0.0,0.0,0.0,0.0,0.0,0.0,0.0,0.0,0.0,0.0,0.0,0.0,0.0,0.0,0.0,0.0,0.0,0.0,0.0,0.0,0.0,0.0,0.0,0.0,0.0,0.0,0.0,0.0,0.0,0.0,0.0,0.0,0.0,0.0,0.0,0.0,0.0,0.0,0.0,0.0,0.0,0.0,0.0,-1.5168,-1.5637,-1.608,-1.6451,-1.681,-1.7207,-1.7598,-1.7971,-1.8047,-1.7795,0.0,0.0,0.0,0.0,0.0,0.0,0.0,0.0,0.0,0.0,0.0,0.0,0.0,0.0,0.0,0.0,0.0,0.0,0.0,0.0,0.0,0.0,0.0,0.0,0.0,0.0,0.0,0.0,0.0,0.0,0.0,0.0,0.0,0.0,0.0,0.0,0.0,0.0,0.0,-2.3369,-2.3257,0.0,0.0,0.0,0.0,0.0,0.0,0.0,0.0,-2.4747,0.0,0.0,0.0,0.0,0.0,0.0,0.0,0.0,0.0,0.0,0.0,0.0,0.0,0.0,0.0,0.0,0.0,0.0,0.0,0.0,0.0,0.0,0.0,0.0,0.0,0.0,0.0,0.0,0.0,0.0,0.0,0.0,0.0,0.0,0.0,0.0,0.0,0.0,0.0,0.0,0.0,0.0,0.0,0.0,0.0,0.0,0.0,0.0,0.0,0.0,0.0,0.0,0.0,0.0,0.0,-1.5325,-1.5819,-1.6447,-1.7163,-1.7426,-1.7807,-1.8249,-1.8297,-1.8233,0.0,0.0,0.0,0.0,0.0,0.0,0.0,0.0,0.0,0.0,0.0,0.0,0.0,0.0,0.0,0.0,0.0,0.0,0.0,0.0,0.0,0.0,0.0,0.0,0.0,0.0,0.0,0.0,0.0,0.0,0.0,0.0,0.0,0.0,0.0,0.0,0.0,0.0,0.0,0.0,-2.3603,-2.3633,-2.4053,0.0,0.0,0.0,0.0,0.0,0.0,-2.4769,-2.5016,0.0,0.0,0.0,0.0,0.0,0.0,0.0,0.0,0.0,0.0,0.0,0.0,0.0,0.0,0.0,0.0,0.0,0.0,0.0,0.0,0.0,0.0,0.0,0.0,0.0,0.0,0.0,0.0,0.0,0.0,0.0,0.0,0.0,0.0,0.0,0.0,0.0,0.0,0.0,0.0,0.0,0.0,0.0,0.0,0.0,0.0,0.0,0.0,0.0,0.0,0.0,0.0,0.0,0.0,0.0,-1.539,-1.5966,-1.6689,-1.7584,-1.7846,-1.8218,-1.8773,-1.8369,-1.8242,0.0,0.0,0.0,0.0,0.0,0.0,0.0,0.0,0.0,0.0,0.0,0.0,0.0,0.0,0.0,0.0,0.0,0.0,0.0,0.0,0.0,0.0,0.0,0.0,0.0,0.0,0.0,0.0,0.0,0.0,0.0,0.0,0.0,0.0,0.0,0.0,0.0,0.0,0.0,0.0,0.0,-2.3945,-2.4346,-2.4062,0.0,0.0,0.0,0.0,-2.468,-2.5231,0.0,0.0,0.0,0.0,0.0,0.0,0.0,0.0,0.0,0.0,0.0,0.0,0.0,0.0,0.0,0.0,0.0,0.0,0.0,0.0,0.0,0.0,0.0,0.0,0.0,0.0,0.0,0.0,0.0,0.0,0.0,0.0,0.0,0.0,0.0,0.0,0.0,0.0,0.0,0.0,0.0,0.0,0.0,0.0,0.0,0.0,0.0,0.0,0.0,0.0,0.0,0.0,0.0,0.0,0.0,0.0,-1.5665,-1.6199,-1.6742,-1.7311,-1.7372,-1.7846,-1.8773,-1.8147,-1.8262,0.0,0.0,0.0,0.0,0.0,0.0,0.0,0.0,0.0,0.0,0.0,0.0,0.0,0.0,0.0,0.0,0.0,0.0,0.0,0.0,0.0,0.0,0.0,0.0,0.0,0.0,0.0,0.0,0.0,0.0,0.0,0.0,0.0,0.0,0.0,0.0,0.0,0.0,0.0,0.0,0.0,-2.3935,-2.4355,-2.4062,-2.3789,0.0,0.0,-2.5451,-2.5441,-2.6361,0.0,0.0,0.0,0.0,0.0,0.0,0.0,0.0,0.0,0.0,0.0,0.0,0.0,0.0,0.0,0.0,0.0,0.0,0.0,0.0,0.0,0.0,0.0,0.0,0.0,0.0,0.0,0.0,0.0,0.0,0.0,0.0,0.0,0.0,0.0,0.0,0.0,0.0,0.0,0.0,0.0,0.0,0.0,0.0,0.0,0.0,0.0,0.0,0.0,0.0,0.0,0.0,0.0,0.0,0.0,-1.5304,-1.5723,-1.643,-1.7115,-1.7746,-1.7753,-1.8079,-1.8773,-1.8241,-1.8178,0.0,0.0,0.0,0.0,0.0,0.0,0.0,0.0,0.0,0.0,0.0,0.0,0.0,0.0,0.0,0.0,0.0,0.0,0.0,0.0,0.0,0.0,0.0,0.0,0.0,0.0,0.0,0.0,0.0,0.0,0.0,0.0,0.0,0.0,0.0,0.0,0.0,0.0,0.0,0.0,0.0,0.0,-2.4441,-2.4532,0.0,0.0,0.0,-2.5315,-2.5251,0.0,0.0,0.0,0.0,0.0,0.0,0.0,0.0,0.0,0.0,0.0,0.0,0.0,0.0,0.0,0.0,0.0,0.0,0.0,0.0,0.0,0.0,0.0,0.0,0.0,0.0,0.0,0.0,0.0,0.0,0.0,0.0,0.0,0.0,0.0,0.0,0.0,0.0,0.0,0.0,0.0,0.0,0.0,0.0,0.0,0.0,0.0,0.0,0.0,0.0,0.0,0.0,0.0,0.0,0.0,0.0,0.0,-1.5768,-1.665,-1.734,-1.7846,-1.79,-1.8133,-1.8581,-1.8276,0.0,0.0,0.0,0.0,0.0,0.0,0.0,0.0,0.0,0.0,0.0,0.0,0.0,0.0,0.0,0.0,0.0,0.0,0.0,0.0,0.0,0.0,0.0,0.0,0.0,0.0,0.0,-2.0742,0.0,0.0,0.0,0.0,0.0,0.0,0.0,0.0,0.0,0.0,0.0,0.0,0.0,0.0,-2.5011,-2.47,-2.4965,-2.5178,0.0,0.0,-2.5778,-2.5863,-2.6673,-2.7238,0.0,0.0,0.0,0.0,0.0,0.0,0.0,0.0,0.0,0.0,0.0,0.0,0.0,0.0,0.0,0.0,0.0,0.0,0.0,0.0,0.0,0.0,0.0,0.0,0.0,0.0,0.0,0.0,0.0,0.0,0.0,0.0,0.0,0.0,0.0,0.0,0.0,0.0,0.0,0.0,0.0,0.0,0.0,0.0,0.0,0.0,0.0,0.0,0.0,0.0,0.0,0.0,0.0,0.0,-1.5798,-1.6004,-1.682,-1.7286,-1.7333,-1.7333,-1.7613,-1.8125,-1.8016,-1.8068,0.0,0.0,0.0,0.0,0.0,0.0,0.0,0.0,0.0,0.0,0.0,0.0,0.0,0.0,0.0,0.0,0.0,0.0,0.0,0.0,0.0,0.0,0.0,0.0,0.0,0.0,0.0,0.0,0.0,0.0,0.0,0.0,0.0,0.0,0.0,0.0,0.0,0.0,0.0,0.0,0.0,-2.4975,-2.5351,-2.526,-2.5427,0.0,-2.6905,-2.7535,-2.8388,-2.8946,-2.9014,-2.813,0.0,0.0,0.0,0.0,0.0,0.0,0.0,0.0,0.0,0.0,0.0,0.0,0.0,0.0,0.0,0.0,0.0,0.0,0.0,0.0,0.0,0.0,0.0,0.0,0.0,0.0,0.0,0.0,0.0,0.0,0.0,0.0,0.0,0.0,0.0,0.0,0.0,0.0,0.0,0.0,0.0,0.0,0.0,0.0,0.0,0.0,0.0,0.0,0.0,0.0,0.0,0.0,0.0,-1.5761,-1.5857,-1.6774,-1.7286,-1.7286,-1.7286,-1.7468,-1.7911,-1.7773,-1.7747,0.0,0.0,0.0,0.0,0.0,0.0,0.0,0.0,0.0,0.0,0.0,0.0,0.0,0.0,0.0,0.0,0.0,0.0,0.0,0.0,0.0,0.0,0.0,0.0,0.0,0.0,0.0,0.0,-2.1939,-2.22,-2.2493,0.0,0.0,0.0,0.0,0.0,0.0,0.0,0.0,0.0,0.0,-2.6069,-2.6395,-2.6574,0.0,0.0,-2.701,-2.7179,-2.7252,-2.7766,-2.7981,-2.7467,-2.7161,0.0,0.0,0.0,0.0,0.0,0.0,0.0,0.0,0.0,0.0,0.0,0.0,0.0,0.0,0.0,0.0,0.0,0.0,0.0,0.0,0.0,0.0,0.0,0.0,0.0,0.0,0.0,0.0,0.0,0.0,0.0,0.0,0.0,0.0,0.0,0.0,0.0,0.0,0.0,0.0,0.0,0.0,0.0,0.0,0.0,0.0,0.0,0.0,0.0,0.0,0.0,0.0,-1.5709,-1.5931,-1.6781,-1.7239,-1.7286,-1.746,-1.7676,-1.7938,-1.8076,-1.8041,0.0,0.0,0.0,0.0,0.0,0.0,0.0,0.0,0.0,0.0,0.0,0.0,0.0,0.0,0.0,0.0,0.0,0.0,0.0,0.0,0.0,0.0,0.0,0.0,0.0,0.0,0.0,0.0,-2.2258,-2.2602,-2.332,0.0,0.0,0.0,0.0,0.0,0.0,0.0,0.0,0.0,0.0,-2.6915,-2.7062,-2.7265,-2.7331,-2.7128,-2.7112,-2.7097,-2.7038,-2.7431,-2.7677,-2.7549,0.0,0.0,0.0,0.0,0.0,0.0,0.0,0.0,0.0,0.0,0.0,0.0,0.0,0.0,0.0,0.0,0.0,0.0,0.0,0.0,0.0,0.0,0.0,0.0,0.0,0.0,0.0,0.0,0.0,0.0,-0.8665,0.0,0.0,0.0,0.0,0.0,0.0,0.0,0.0,0.0,0.0,0.0,0.0,0.0,0.0,0.0,0.0,0.0,0.0,0.0,0.0,0.0,0.0,-1.5651,-1.6374,-1.6788,-1.7113,-1.7293,-1.7871,-1.8177,-1.8207,-1.9026,-1.9127,-1.8481,0.0,0.0,0.0,0.0,0.0,0.0,0.0,0.0,0.0,0.0,0.0,0.0,0.0,0.0,0.0,0.0,0.0,0.0,0.0,0.0,0.0,0.0,0.0,0.0,0.0,0.0,-2.19,-2.2332,-2.3092,0.0,0.0,0.0,0.0,0.0,0.0,0.0,0.0,0.0,0.0,-2.7303,-2.7286,-2.7325,-2.6949,-2.6913,-2.7281,-2.7346,-2.7651,-2.8525,-2.868,-2.8755,0.0,0.0,0.0,0.0,0.0,0.0,0.0,0.0,0.0,0.0,0.0,0.0,0.0,0.0,0.0,0.0,0.0,0.0,0.0,0.0,0.0,0.0,0.0,0.0,0.0,0.0,0.0,-0.7592,-0.7872,0.0,0.0,0.0,0.0,0.0,0.0,0.0,0.0,0.0,0.0,0.0,-1.0719,-1.0839,0.0,0.0,0.0,0.0,0.0,0.0,0.0,0.0,0.0,0.0,0.0,0.0,-1.5613,-1.573,-1.6682,-1.7254,-1.7368,-1.7757,-1.8166,-1.8594,-1.9,-1.907,-1.872,0.0,0.0,0.0,0.0,0.0,0.0,0.0,0.0,0.0,0.0,0.0,0.0,0.0,0.0,0.0,0.0,0.0,0.0,0.0,0.0,0.0,0.0,0.0,0.0,0.0,-2.2106,0.0,0.0,0.0,0.0,0.0,0.0,0.0,0.0,0.0,0.0,0.0,-2.6628,-2.726,-2.7624,-2.8022,-2.8433,-2.878,-2.9117,0.0,0.0,0.0,0.0,0.0,0.0,0.0,0.0,0.0,0.0,0.0,0.0,0.0,0.0,-3.0319,-2.9705,-3.0007,-3.0362,-3.0512,0.0,0.0,0.0,0.0,0.0,0.0,0.0,0.0,0.0,0.0,0.0,0.0,0.0,0.0,-0.7579,0.0,-0.7886,0.0,0.0,0.0,0.0,0.0,0.0,0.0,0.0,-1.0584,-1.0656,-1.0762,-1.0919,-1.1128,0.0,-1.1612,-1.1863,0.0,0.0,0.0,0.0,0.0,0.0,0.0,0.0,-1.5569,-1.5596,-1.6643,-1.7305,-1.7568,-1.7918,-1.8388,-1.8911,-1.9234,-1.9351,-1.9201,-1.851,-1.7985,0.0,0.0,0.0,0.0,0.0,0.0,0.0,0.0,0.0,0.0,0.0,0.0,0.0,0.0,0.0,0.0,0.0,0.0,0.0,0.0,0.0,0.0,0.0,-2.3114,0.0,0.0,0.0,0.0,0.0,0.0,0.0,0.0,0.0,-2.6217,-2.6747,-2.7314,-2.7897,-2.8317,-2.8695,-2.9051,0.0,0.0,0.0,0.0,0.0,0.0,0.0,-2.8768,-2.8805,-2.9534,-3.0228,-3.0622,-3.1196,-3.16,-3.16,0.0,0.0,-3.0695,-3.0876,-3.1235,-3.1399,-3.1276,-3.1248,-3.1358,-3.1386,-3.1135,0.0,0.0,0.0,0.0,0.0,0.0,0.0,0.0,-0.7845,-0.7602,0.0,-0.8052,0.0,0.0,0.0,0.0,0.0,-0.9923,0.0,0.0,-1.1032,-1.1182,-1.102,-1.1241,-1.1321,-1.1375,-1.1781,-1.2165,-1.2476,-1.3145,0.0,0.0,0.0,0.0,0.0,0.0,-1.5531,-1.6026,-1.6679,-1.7279,-1.7782,-1.839,-1.8865,-1.9237,-1.9749,-1.997,-1.986,-1.9193,-1.8669,-1.8295,-1.7676,0.0,0.0,0.0,0.0,0.0,0.0,0.0,0.0,0.0,0.0,0.0,0.0,0.0,0.0,0.0,0.0,0.0,0.0,0.0,0.0,-2.3835,0.0,0.0,0.0,0.0,0.0,0.0,0.0,0.0,0.0,0.0,-2.667,-2.7477,-2.8311,-2.8849,0.0,0.0,0.0,0.0,-2.8617,-2.8264,-2.7693,-2.7469,-2.7696,-2.8946,-3.0217,-3.115,0.0,0.0,-3.3828,-3.3458,-3.3131,-3.3131,-3.3533,-3.3407,-3.1825,-3.1587,-3.1524,-3.1499,-3.1512,-3.1461,-3.1461,-3.1562,-3.1373,-0.6909,0.0,0.0,0.0,0.0,-0.7526,-0.7429,-0.7383,-0.7531,-0.7584,-0.7528,-0.7926,0.0,0.0,0.0,0.0,0.0,0.0,-1.0336,-1.0606,-1.0952,-1.1144,-1.1214,-1.1488,-1.1682,-1.19,-1.2164,-1.2505,-1.2919,-1.3308,-1.3543,-1.369,0.0,0.0,0.0,0.0,-1.5777,-1.6158,-1.7073,-1.7652,-1.7879,-1.8482,-1.91,-1.9823,-1.9965,-1.9978,-1.9876,-1.9439,-1.8931,-1.8335,-1.8112,0.0,0.0,0.0,0.0,0.0,0.0,0.0,0.0,0.0,0.0,0.0,0.0,0.0,0.0,0.0,0.0,0.0,0.0,0.0,-2.3546,-2.4544,-2.4985,0.0,0.0,0.0,0.0,0.0,0.0,0.0,0.0,0.0,-2.7599,-2.7883,-2.7972,0.0,0.0,-2.858,-2.8364,-2.9254,-3.015,-3.0549,-3.0497,0.0,-3.1196,-3.147,-3.1797,-3.2315,-3.3171,-3.3853,-3.3909,-3.4098,-3.4248,-3.4248,-3.4374,-3.4311,-3.3897,-3.3445,-3.3056,-3.2704,-3.2591,-3.2646,-3.2646,-3.2634,-3.2428,-0.6917,-0.7477,-0.713,-0.7155,-0.7444,-0.7298,-0.7184,-0.7135,-0.7279,-0.7315,-0.7313,-0.7731,-0.7649,-0.7224,-0.817,0.0,0.0,0.0,-1.0501,-1.0891,-1.1157,-1.1313,-1.1467,-1.1826,-1.2059,-1.2245,-1.2531,-1.2768,-1.3001,-1.3341,-1.3619,-1.3789,0.0,0.0,-1.496,-1.5566,-1.6046,-1.6362,-1.7315,-1.7938,-1.8246,-1.8716,-1.9324,-2.0071,-2.0041,-2.0039,-2.0083,-1.9797,-1.9304,-1.8748,-1.8446,-1.8112,0.0,0.0,0.0,0.0,0.0,0.0,0.0,0.0,0.0,0.0,0.0,-2.2621,-2.2325,0.0,0.0,0.0,-2.3016,-2.343,-2.4038,-2.4773,0.0,0.0,0.0,0.0,0.0,0.0,0.0,-2.5818,-2.6507,-2.726,-2.8116,-2.8171,-2.8228,-2.8434,-2.8788,-2.9086,-2.9136,0.0,-3.0814,-3.1312,-3.1211,-3.1303,-3.2042,-3.2489,-3.3049,-3.4075,-3.4618,-3.4864,-3.4889,-3.5165,-3.5366,-3.5378,-3.5378,-3.5303,-3.5044,-3.4731,-3.4299,-3.3571,-3.3275,-3.3124,-3.3124,-3.3124,-3.2968,-0.6926,-0.7001,-0.6863,-0.7005,-0.7346,-0.7349,-0.722,-0.7126,-0.7015,-0.6897,-0.6875,-0.7473,-0.7409,-0.6844,-0.776,0.0,-1.0161,-1.0224,-1.0591,-1.1216,-1.1508,-1.1651,-1.1692,-1.2202,-1.2367,-1.242,-1.2844,-1.3001,-1.2851,-1.3252,-1.359,-1.3859,-1.4307,-1.4694,-1.5068,-1.5812,-1.6341,-1.6664,-1.7452,-1.8174,-1.8811,-1.9177,-1.9576,-2.0086,-2.0138,-2.0174,-2.0358,-2.0051,-1.9765,-1.9423,-1.8708,-1.8327,-1.8279,0.0,0.0,0.0,0.0,0.0,0.0,0.0,0.0,0.0,0.0,0.0,0.0,0.0,0.0,-2.3227,-2.3856,0.0,-2.457,-2.4859,0.0,0.0,0.0,-2.5396,-2.5834,-2.5951,-2.6187,-2.6806,0.0,0.0,-2.8271,-2.8413,-2.8857,-3.0065,-3.0173,-3.0276,-3.0721,-3.0819,-3.0934,-3.0987,-3.0645,-3.0604,-3.1581,-3.2656,-3.4074,-3.5846,-3.6417,-3.6317,-3.6304,-3.6329,-3.638,-3.6342,-3.6405,-3.6241,-3.5646,-3.5495,-3.5182,-3.4161,-3.3533,-3.3199,-3.3093,-3.3124,-3.3111,-0.7221,-0.7382,-0.685,-0.6756,-0.6898,-0.6746,-0.6608,-0.6584,-0.676,-0.6831,-0.6802,-0.7193,-0.7388,-0.7503,-0.7812,-0.8336,-0.9023,-0.9396,-0.9831,-1.0394,-1.082,-1.1278,-1.1743,-1.2156,-1.2367,-1.2431,-1.2748,-1.2861,-1.2807,-1.2898,-1.3202,-1.3584,-1.39,-1.4572,-1.5586,-1.6007,-1.6539,-1.7234,-1.7826,-1.8503,-1.9133,-1.9435,-1.968,-1.9776,-2.0205,-2.0299,-2.0116,-1.9952,-1.9757,-1.9431,-1.8947,-1.8581,-1.8303,-1.8188,0.0,0.0,0.0,0.0,0.0,0.0,0.0,0.0,0.0,-2.2968,-2.2722,0.0,-2.3303,0.0,-2.4418,-2.5056,-2.5464,-2.5557,0.0,0.0,-2.5782,-2.5761,-2.5865,-2.6185,-2.6497,-2.6647,-2.6969,-2.7511,-2.831,-2.86,-2.9148,-3.0322,-2.9992,-2.9616,-2.9756,-3.0455,-3.1023,-3.144,-3.1685,-3.2195,-3.288,-3.3995,-3.5068,-3.6219,-3.6417,-3.6417,-3.6417,-3.6417,-3.6417,-3.6417,-3.6417,-3.6355,-3.6169,-3.5855,-3.5282,-3.465,-3.4085,-3.3571,-3.3169,-3.3124,-3.3124,-0.7238,-0.7284,-0.7077,-0.6886,-0.667,-0.6458,-0.6387,-0.6437,-0.6539,-0.6642,-0.6642,-0.6786,-0.7146,-0.7658,-0.7724,-0.8169,-0.8841,-0.9131,-0.9558,-1.0096,-1.0674,-1.1192,-1.1664,-1.2268,-1.2571,-1.2576,-1.2748,-1.2807,-1.2807,-1.2807,-1.3032,-1.3471,-1.3744,-1.4364,-1.5304,-1.5744,-1.626,-1.6881,-1.7804,-1.854,-1.9038,-1.9347,-1.9509,-1.9463,-1.988,-1.998,-1.9782,-1.9533,-1.9328,-1.9129,-1.8637,-1.8271,-1.8117,-1.7956,-1.8085,0.0,0.0,0.0,0.0,0.0,0.0,0.0,0.0,0.0,0.0,0.0,-2.3799,-2.4027,-2.4724,-2.5236,-2.5514,-2.5541,-2.5695,-2.615,-2.6231,-2.6304,-2.6511,-2.677,-2.6926,-2.7045,-2.7292,-2.7718,-2.8444,-2.8775,-2.9376,-3.0453,-3.0323,-3.019,-3.0418,-3.0917,-3.138,-3.1669,-3.1925,-3.2542,-3.3576,-3.4684,-3.5618,-3.6235,-3.6417,-3.6417,-3.6417,-3.6417,-3.6417,-3.6417,-3.6417,-3.6417,-3.6405,-3.6132,-3.573,-3.5327,-3.4695,-3.401,-3.3257,-3.3124,-3.3124,-0.7191,-0.7084,-0.7265,-0.7124,-0.6709,-0.6585,-0.6464,-0.6387,-0.6387,-0.6387,-0.6387,-0.6387,-0.6783,-0.7428,-0.7481,-0.8024,-0.8867,-0.897,-0.932,-0.9871,-1.0752,-1.1292,-1.1639,-1.2419,-1.2807,-1.2807,-1.2807,-1.2807,-1.2807,-1.2807,-1.2996,-1.3397,-1.3723,-1.4082,-1.4564,-1.5204,-1.5808,-1.6391,-1.7623,-1.8379,-1.8657,-1.8942,-1.9052,-1.9024,-1.9363,-1.9506,-1.9437,-1.9012,-1.8781,-1.8758,-1.816,-1.7838,-1.787,-1.7564,-1.7755,0.0,-1.7482,0.0,0.0,0.0,0.0,0.0,0.0,0.0,0.0,-2.4054,-2.4222,-2.4492,-2.4834,-2.5177,-2.5287,-2.5349,-2.5685,-2.6517,-2.6651,-2.6864,-2.7247,-2.732,-2.7357,-2.7536,-2.7584,-2.7914,-2.8549,-2.8932,-2.9485,-3.0306,-3.0746,-3.1045,-3.1504,-3.1625,-3.1681,-3.1717,-3.1777,-3.2483,-3.3735,-3.4856,-3.5711,-3.6225,-3.6417,-3.6417,-3.6417,-3.6417,-3.6417,-3.6417,-3.6417,-3.6417,-3.6417,-3.6405,-3.6251,-3.5823,-3.5176,-3.4374,-3.3526,-3.3174,-3.3124,-0.7377,-0.7252,-0.7117,-0.7118,-0.7223,-0.7095,-0.6821,-0.6387,-0.6387,-0.6387,-0.6387,-0.6387,-0.6484,-0.6637,-0.6889,-0.7042,-0.7288,-0.7935,-0.8531,-0.9072,-1.0306,-1.1149,-1.1634,-1.2419,-1.2807,-1.2807,-1.2807,-1.2807,-1.2807,-1.2807,-1.286,-1.2964,-1.3367,-1.3636,-1.3762,0.0,0.0,0.0,-1.7768,-1.794,-1.7999,-1.8057,-1.8057,-1.8103,-1.8803,0.0,-1.9177,-1.8918,-1.8781,-1.8758,-1.8152,0.0,0.0,0.0,0.0,0.0,0.0,0.0,0.0,0.0,0.0,0.0,-2.2888,-2.3056,-2.342,-2.3775,-2.4272,-2.4902,-2.5077,-2.5318,-2.5881,-2.6102,-2.638,-2.6795,-2.7032,-2.7206,-2.7309,-2.732,-2.7309,-2.7357,-2.7499,-2.7726,-2.8139,-2.871,-2.9312,-2.9966,-3.0624,-3.1062,-3.1318,-3.1572,-3.1705,-3.1729,-3.2164,-3.2897,-3.3863,-3.4725,-3.5615,-3.616,-3.6417,-3.6417,-3.6417,-3.6417,-3.6417,-3.6417,-3.6417,-3.6417,-3.6417,-3.6417,-3.6229,-3.5701,-3.509,-3.457,-3.4161,-3.3568,-3.3124,-0.7336,0.0,-0.7313,-0.7256,0.0,-0.7288,-0.7045,-0.6613,-0.6709,-0.6595,-0.6387,-0.6387,-0.6387,-0.6387,-0.6539,-0.6692,-0.6845,-0.7487,-0.8081,-0.8676,-0.9867,-1.0605,-1.1051,-1.198,-1.2424,-1.2419,-1.2662,-1.2807,-1.2807,-1.2807,-1.2802,-1.2826,-1.3298,-1.3466,-1.3543,-1.4497,-1.5678,-1.6958,-1.7265,-1.7519,-1.7816,-1.7969,-1.7984,-1.783,-1.8626,0.0,0.0,0.0,0.0,0.0,0.0,0.0,0.0,0.0,0.0,-1.8057,-1.82,-1.8889,-2.0286,-2.06,-2.1412,-2.3085,-2.338,-2.3609,-2.3786,-2.4326,-2.4861,-2.5323,-2.5534,-2.5767,-2.6264,-2.6448,-2.6688,-2.7023,-2.7081,-2.7129,-2.7272,-2.732,-2.732,-2.7309,-2.7357,-2.7584,-2.7951,-2.8502,-2.9163,-2.9794,-3.0296,-3.0691,-3.0949,-3.1395,-3.1705,-3.1741,-3.2584,-3.3369,-3.3973,-3.4919,-3.5724,-3.626,-3.6417,-3.6417,-3.6417,-3.6417,-3.6417,-3.6417,-3.6417,-3.6417,-3.6417,-3.6417,-3.6229,-3.5768,-3.5148,-3.464,-3.4331,-3.3644,-3.3124,-0.7388,-0.7355,-0.7466,-0.7412,-0.7152,-0.7351,-0.7198,-0.6898,0.0,0.0,0.0,-0.6387,-0.6387,-0.6387,-0.6387,-0.6539,-0.6742,-0.7285,-0.7783,-0.8382,-0.9422,-1.0117,-1.0462,-1.1394,-1.1932,-1.2029,-1.2467,-1.2716,-1.2807,-1.2807,-1.2813,-1.291,-1.3298,-1.3568,-1.3759,-1.4839,-1.5673,-1.612,-1.6612,-1.7094,-1.7536,-1.7843,-1.787,-1.7647,-1.8405,-1.874,-1.8514,-1.8989,-1.9233,-1.9264,-1.8716,-1.843,-1.8486,-1.8541,-1.8446,-1.8184,-1.847,-1.9255,-2.0457,-2.0959,-2.1868,-2.3505,-2.396,-2.426,-2.4314,-2.4888,-2.5333,-2.5596,-2.5917,-2.6157,-2.6242,-2.6408,-2.6658,-2.7006,-2.6945,-2.6986,-2.7262,-2.732,-2.732,-2.732,-2.7309,-2.7441,-2.7857,-2.8373,-2.8874,-2.9554,-2.9966,-3.0306,-3.0623,-3.1172,-3.1572,-3.1733,-3.2729,-3.3686,-3.4109,-3.5117,-3.6036,-3.6345,-3.6417,-3.6417,-3.6417,-3.6417,-3.6417,-3.6417,-3.6417,-3.6417,-3.6417,-3.6417,-3.6263,-3.5907,-3.5226,-3.4607,-3.4243,-3.3644,-3.3136,-0.7587,-0.7483,-0.7361,-0.7471,-0.7669,-0.7621,-0.7385,-0.7106,-0.6826,-0.6551,-0.6387,-0.6387,-0.6387,-0.6387,-0.6387,-0.6387,-0.6487,-0.6986,-0.7537,0.0,-0.9167,-0.9912,-1.0408,-1.1047,-1.1536,-1.198,-1.2078,-1.237,-1.2759,-1.2807,-1.2905,-1.3055,-1.334,-1.3842,-1.4495,-1.4931,-1.5523,-1.6222,-1.6217,-1.6366,-1.6685,-1.6714,-1.6856,-1.7049,-1.7606,-1.7982,-1.8155,-1.8466,-1.8691,-1.8853,-1.8804,-1.8899,-1.9209,-1.9471,-1.967,-1.9638,-1.99,-2.041,-2.1022,-2.1586,-2.2486,-2.3907,-2.4174,-2.4273,-2.4464,-2.4756,-2.5079,-2.5333,-2.5781,-2.5894,-2.5435,-2.6016,-2.6325,-2.6118,-2.6571,-2.6986,-2.7262,-2.732,-2.732,-2.732,-2.732,-2.7404,-2.7678,-2.8102,-2.8571,-2.9,-2.9554,-3.0148,-3.0623,-3.0949,-3.1217,-3.1749,-3.2802,-3.3625,-3.398,-3.513,-3.5951,-3.6358,-3.6358,-3.637,-3.6417,-3.6417,-3.6417,-3.6417,-3.6417,-3.6417,-3.6417,-3.6417,-3.6128,-3.5625,-3.5039,-3.4512,-3.4048,-3.3463,-3.3093,-0.7368,-0.7364,-0.737,-0.7492,-0.7596,-0.7477,-0.7285,-0.7107,-0.6824,-0.6559,-0.6395,-0.6387,-0.6387,-0.6387,-0.6387,-0.6387,-0.6437,-0.6986,-0.7338,-0.7637,-0.8673,-0.9266,-0.962,-1.0359,-1.09,-1.1149,-1.1443,-1.1829,-1.2322,-1.237,-1.2565,-1.2958,-1.3298,-1.3914,-1.4659,-1.4947,-1.5355,-1.5864,-1.6222,-1.6648,-1.703,-1.6982,-1.7055,-1.7149,-1.7672,-1.8118,-1.8361,-1.8782,-1.9169,-1.9383,-1.9217,-1.9272,-1.9662,-1.9829,-1.9909,-1.9925,-2.0194,-2.0553,-2.0851,-2.1516,-2.2478,-2.3601,-2.3498,-2.3626,-2.4163,-2.4309,-2.4561,-2.4938,-2.5166,-2.5177,-2.4989,-2.5543,-2.5902,-2.5816,-2.633,-2.6784,-2.7034,-2.7214,-2.732,-2.732,-2.732,-2.7357,-2.7584,-2.7914,-2.8384,-2.8757,-2.922,-2.9634,-3.008,-3.017,-3.0532,-3.1567,-3.2744,-3.3475,-3.3655,-3.4719,-3.557,-3.5895,-3.5943,-3.6086,-3.6323,-3.6417,-3.6417,-3.6417,-3.6417,-3.6417,-3.6405,-3.6107,-3.573,-3.5203,-3.4663,-3.411,-3.3583,-3.3145,-3.2964,-0.7135,-0.7183,-0.7369,-0.7485,-0.7452,-0.7418,-0.7241,-0.7021,-0.6923,-0.673,-0.6494,-0.64,-0.6387,-0.6387,-0.6387,-0.6387,-0.6437,-0.6836,-0.7086,-0.7285,-0.818,-0.8676,-0.8874,-0.9768,-1.0265,-1.0413,-1.0801,-1.1315,-1.1855,-1.1958,-1.2351,-1.2937,-1.3382,-1.3996,-1.4805,-1.4954,-1.5212,-1.5704,-1.6305,-1.6823,-1.7303,-1.7366,-1.7419,-1.7437,-1.7856,-1.821,-1.8411,-1.8997,-1.9417,-1.9701,-1.9654,-1.9725,-2.0012,-2.0108,-2.0106,-2.013,-2.0361,-2.0642,-2.0892,-2.1592,-2.2417,-2.3194,-2.3162,-2.3286,-2.3869,-2.3799,-2.3898,-2.4383,-2.4472,-2.447,-2.4523,-2.5066,-2.5464,-2.5591,-2.6079,-2.6544,-2.6842,-2.7081,-2.7214,-2.7262,-2.732,-2.7357,-2.7547,-2.7773,-2.8149,-2.8617,-2.885,-2.9082,-2.9393,-2.9531,-3.008,-3.117,-3.2414,-3.3234,-3.3308,-3.4376,-3.5173,-3.539,-3.563,-3.5844,-3.6043,-3.6138,-3.6405,-3.6417,-3.6417,-3.6417,-3.6355,-3.5931,-3.537,-3.4843,-3.4349,-3.3771,-3.3158,-3.2847,-3.2723,-0.6945,-0.6928,-0.7125,-0.7318,-0.7471,-0.751,-0.7364,-0.7207,-0.718,-0.6926,-0.6605,-0.6486,-0.6392,-0.6387,-0.6387,-0.6387,-0.6387,-0.6437,-0.6736,-0.7188,-0.7786,-0.8333,-0.8775,-0.9377,-0.992,-1.0314,-1.0471,-1.0857,-1.1518,-1.1783,-1.2434,-1.3375,-1.3728,-1.4251,-1.4945,-1.4835,-1.5245,-1.6221,-1.6315,-1.6499,-1.68,-1.7273,-1.7429,-1.7403,-1.7679,-1.782,-1.7881,-1.8373,-1.8827,-1.9105,-1.9866,-2.0297,-2.0361,-2.0639,-2.0813,-2.0805,-2.0845,-2.1057,-2.1567,-2.2156,-2.2634,-2.3279,-2.3692,-2.3952,-2.4073,-2.3419,-2.3232,-2.3692,-2.399,-2.3934,-2.3683,-2.4514,-2.5061,-2.5,-2.5672,-2.6352,-2.6747,-2.6948,-2.7034,-2.7262,-2.7309,-2.732,-2.7357,-2.7536,-2.7878,-2.8348,-2.8488,-2.871,-2.9255,-2.9439,-2.9623,-3.0376,-3.1449,-3.2523,-3.3274,-3.4471,-3.4822,-3.471,-3.5561,-3.574,-3.5471,-3.5821,-3.6417,-3.6417,-3.6417,-3.6417,-3.6194,-3.5918,-3.5282,-3.4623,-3.4097,-3.3608,-3.2928,-3.2605,-3.2562,-0.6591,-0.6646,-0.6911,-0.7173,-0.7425,-0.7598,-0.7489,-0.7263,-0.7182,-0.6991,-0.6741,-0.6673,-0.6522,-0.6389,-0.6387,-0.6387,-0.6387,-0.6387,-0.6534,-0.6736,-0.7288,-0.7836,-0.8333,-0.8878,-0.9422,-0.9883,-1.0025,-1.0423,-1.107,-1.174,-1.2358,-1.2948,-1.3285,-1.3903,-1.4722,-1.472,-1.5154,-1.6033,-1.6217,-1.6374,-1.6512,-1.696,-1.7319,-1.7475,-1.7533,-1.7724,-1.798,-1.8063,-1.8337,-1.8956,-1.9381,-1.9817,-2.0377,-2.0535,-2.0702,-2.0893,-2.0925,-2.0968,-2.1224,-2.1428,-2.1776,-2.2325,-2.2629,-2.3001,-2.3483,-2.3128,-2.3045,-2.3364,-2.3256,-2.3092,-2.3293,-2.4134,-2.4656,-2.47,-2.547,-2.6197,-2.64,-2.6747,-2.6948,-2.7034,-2.7214,-2.732,-2.7309,-2.7441,-2.7689,-2.7972,-2.816,-2.8524,-2.885,-2.8989,-2.9255,-2.9748,-3.0604,-3.1402,-3.2252,-3.324,-3.3752,-3.3823,-3.4337,-3.4721,-3.4967,-3.5369,-3.5991,-3.6323,-3.637,-3.6219,-3.5893,-3.5303,-3.4674,-3.4125,-3.3424,-3.2841,-3.2356,-3.2344,-3.2431,-0.6283,-0.6344,-0.6591,-0.7018,-0.7378,-0.7543,-0.7512,-0.7434,-0.7307,-0.7122,-0.6907,-0.6866,-0.6736,-0.6551,-0.6452,-0.6419,-0.6389,-0.6387,-0.6387,-0.6487,-0.6939,-0.7388,-0.7839,-0.8482,-0.9004,-0.9464,-0.9773,-1.0196,-1.0823,-1.168,-1.2273,-1.2454,-1.2925,-1.3539,-1.4199,-1.4533,-1.5034,-1.5635,-1.6009,-1.6217,-1.624,-1.6644,-1.7073,-1.7487,-1.754,-1.7714,-1.8071,-1.7936,-1.811,-1.8718,-1.9002,-1.9474,-2.0245,-2.043,-2.0655,-2.0885,-2.0925,-2.0925,-2.0925,-2.1019,-2.1275,-2.17,-2.202,-2.2519,-2.3006,-2.3105,-2.3182,-2.3419,-2.2989,-2.2855,-2.3088,-2.3748,-2.42,-2.4426,-2.5385,-2.5994,-2.6149,-2.6496,-2.6747,-2.69,-2.7034,-2.7204,-2.7309,-2.7452,-2.7536,-2.7689,-2.8008,-2.8337,-2.8395,-2.8675,-2.8943,-2.9266,-2.9914,-3.0581,-3.1263,-3.2416,-3.2885,-3.284,-3.3314,-3.416,-3.437,-3.4784,-3.5512,-3.5835,-3.6026,-3.5968,-3.5404,-3.4752,-3.3999,-3.336,-3.2714,-3.2281,-3.2125,-3.2169,-3.2213,-0.5919,-0.5978,-0.628,-0.6771,-0.7383,-0.7439,-0.7491,-0.7592,-0.7546,-0.7364,-0.7188,-0.7029,-0.6907,-0.6774,-0.6668,-0.65,-0.6456,-0.64,-0.645,-0.6498,-0.6939,-0.7188,-0.7288,-0.828,-0.8911,-0.9193,-0.9709,-1.0242,-1.0875,-1.1648,-1.203,-1.2101,-1.2858,-1.3351,-1.3613,-1.4279,-1.4815,-1.5187,-1.5659,-1.5945,-1.5945,-1.6199,-1.6748,-1.7459,-1.7721,-1.7817,-1.7884,-1.8063,-1.8222,-1.8278,-1.9056,-1.9634,-2.0042,-2.0558,-2.0893,-2.0917,-2.0925,-2.0925,-2.0976,-2.1326,-2.1623,-2.1768,-2.2542,-2.3194,-2.3182,-2.3389,-2.3586,-2.3856,-2.3504,-2.3214,-2.3161,-2.3621,-2.4036,-2.438,-2.5195,-2.5761,-2.6052,-2.6149,-2.64,-2.6757,-2.6948,-2.7071,-2.7272,-2.732,-2.7404,-2.7594,-2.7857,-2.8092,-2.8337,-2.8617,-2.8803,-2.8943,-2.9333,-2.9975,-3.1136,-3.1959,-3.2181,-3.2112,-3.2594,-3.3743,-3.3684,-3.3815,-3.4679,-3.5331,-3.551,-3.5371,-3.4905,-3.4244,-3.3482,-3.284,-3.2377,-3.1994,-3.1937,-3.1805,-3.1893,-0.5485,-0.5916,-0.6283,-0.6526,-0.6773,-0.7202,-0.7382,-0.7397,-0.7536,-0.75,-0.7293,-0.7225,-0.71,-0.6915,-0.6874,-0.689,-0.6875,-0.664,-0.6658,-0.6805,-0.6726,-0.6836,-0.7244,-0.7925,-0.8552,-0.9148,-0.97,-1.0245,-1.0737,-1.121,-1.1533,-1.1828,-1.2297,-1.2773,-1.3242,-1.3991,-1.456,-1.4885,-1.5541,-1.5885,-1.5879,-1.5998,-1.6527,-1.7481,-1.7448,-1.7652,-1.816,-1.8107,-1.8233,-1.8828,-1.9311,-1.9776,-2.0296,-2.07,-2.0925,-2.0925,-2.0925,-2.0925,-2.0925,-2.107,-2.1173,-2.1267,-2.2173,-2.2778,-2.2911,-2.3462,-2.399,-2.4015,-2.3855,-2.3682,-2.389,-2.4155,-2.4361,-2.4497,-2.5148,-2.5732,-2.582,-2.6004,-2.6245,-2.6592,-2.6938,-2.7214,-2.7262,-2.732,-2.7357,-2.7452,-2.7773,-2.7998,-2.8186,-2.8513,-2.8803,-2.8896,-2.9174,-2.9587,-2.9733,-3.087,-3.1466,-3.1389,-3.1786,-3.2583,-3.2866,-3.3707,-3.4593,-3.5005,-3.5173,-3.4791,-3.4323,-3.3423,-3.2706,-3.2354,-3.1849,-3.1893,-3.1805,-3.1761,-3.1849,-0.5174,-0.5602,-0.6065,-0.6296,-0.6415,-0.6843,-0.7044,-0.71,-0.7397,-0.7426,-0.7282,-0.7257,-0.7244,-0.7108,-0.7059,-0.7162,-0.7273,-0.686,-0.6834,-0.709,-0.6799,-0.6909,-0.7385,-0.7875,-0.8464,-0.9168,-0.988,-1.0411,-1.0676,-1.0962,-1.124,-1.1442,-1.1922,-1.2355,-1.2833,-1.3667,-1.4212,-1.4439,-1.5129,-1.5563,-1.5635,-1.5765,-1.6237,-1.7015,-1.7023,-1.7441,-1.844,-1.8283,-1.8454,-1.8998,-1.9396,-1.991,-2.0577,-2.0822,-2.0925,-2.0925,-2.0925,-2.0925,-2.0925,-2.0925,-2.0925,-2.0925,-2.1725,-2.2274,-2.2526,-2.3388,-2.3904,-2.4088,-2.4079,-2.41,-2.4286,-2.4583,-2.4727,-2.4721,-2.5255,-2.5674,-2.5684,-2.5868,-2.611,-2.6496,-2.6986,-2.7272,-2.732,-2.732,-2.7309,-2.732,-2.7631,-2.7857,-2.8034,-2.8373,-2.871,-2.8792,-2.9035,-2.9174,-2.9287,-2.993,-3.0468,-3.0457,-3.1099,-3.1784,-3.2475,-3.3416,-3.4228,-3.4606,-3.4594,-3.42,-3.3527,-3.2576,-3.2111,-3.1797,-3.1761,-3.1761,-3.1761,-3.1805,-3.1849,-0.4862,-0.4971,-0.5513,-0.5898,-0.6135,-0.6255,-0.6497,-0.6798,-0.7098,-0.7199,-0.7208,-0.7277,-0.7293,-0.7296,-0.7201,-0.7318,-0.7419,-0.702,-0.697,-0.727,-0.7197,-0.7352,-0.7669,-0.8157,-0.8719,-0.928,-1.0214,-1.068,-1.0747,-1.0911,-1.1076,-1.1291,-1.1932,-1.2201,-1.2139,-1.3203,-1.3728,-1.3778,-1.4379,-1.4877,-1.5093,-1.5389,-1.5823,-1.6368,-1.6626,-1.7349,-1.8673,-1.8702,-1.8753,-1.8912,-1.9333,-2.0027,-2.0723,-2.0865,-2.0925,-2.0925,-2.0925,-2.0925,-2.0925,-2.0925,-2.0925,-2.0976,-2.1428,-2.1971,-2.2476,-2.3029,-2.3587,-2.4093,-2.4205,-2.4223,-2.4361,-2.4676,-2.4947,-2.509,-2.5449,-2.5664,-2.5684,-2.5732,-2.5917,-2.6448,-2.6976,-2.7272,-2.732,-2.732,-2.732,-2.7367,-2.7499,-2.7726,-2.7998,-2.8301,-2.8488,-2.871,-2.8896,-2.8943,-2.8943,-2.8989,-2.922,-2.9585,-3.0535,-3.136,-3.1888,-3.2741,-3.3586,-3.4061,-3.391,-3.3542,-3.2886,-3.2083,-3.1938,-3.1705,-3.1705,-3.1705,-3.1717,-3.1761,-3.1761,-0.4184,-0.4236,-0.4411,-0.48,-0.5271,-0.5448,-0.5894,-0.6435,-0.6798,-0.7038,-0.7199,-0.72,-0.7261,-0.7298,-0.7293,-0.7289,-0.7318,-0.7183,-0.7328,-0.7615,-0.7584,-0.7607,-0.7781,-0.8172,-0.8828,-0.961,-1.0335,-1.0692,-1.0747,-1.0798,-1.0911,-1.1181,-1.1564,-1.1846,-1.1901,-1.2904,-1.3355,-1.3333,-1.4154,-1.4723,-1.483,-1.5074,-1.5566,-1.6262,-1.6619,-1.7276,-1.8178,-1.8445,-1.8704,-1.9118,-1.9633,-2.0243,-2.0747,-2.0925,-2.0925,-2.0925,-2.0925,-2.0925,-2.0925,-2.0925,-2.0925,-2.1027,-2.1369,-2.192,-2.2476,-2.297,-2.3538,-2.4102,-2.4291,-2.4414,-2.4506,-2.4895,-2.5102,-2.5127,-2.5459,-2.5684,-2.5732,-2.6024,-2.6314,-2.6496,-2.6976,-2.7262,-2.732,-2.732,-2.732,-2.7309,-2.7452,-2.7678,-2.7961,-2.8196,-2.8488,-2.8757,-2.8757,-2.8803,-2.885,-2.8872,-2.9033,-2.944,-3.02,-3.0856,-3.1405,-3.2331,-3.3125,-3.3427,-3.3267,-3.2855,-3.225,-3.1898,-3.1765,-3.1705,-3.1705,-3.1705,-3.1705,-3.1705,-3.1705,-0.3541,-0.3575,-0.3756,-0.4023,-0.4373,-0.4546,-0.5039,-0.5678,-0.607,-0.646,-0.6782,-0.6929,-0.7079,-0.7127,-0.7132,-0.7156,-0.7218,-0.7268,-0.7558,-0.7862,-0.7843,-0.7908,-0.8186,-0.853,-0.9057,-0.9743,-1.0308,-1.0637,-1.0692,-1.0747,-1.0852,-1.1126,-1.1295,-1.157,-1.1823,-1.2446,-1.282,-1.2971,-1.3727,-1.4248,-1.4429,-1.4752,-1.5283,-1.595,-1.6284,-1.6899,-1.7621,-1.7957,-1.8429,-1.9116,-1.9724,-2.0292,-2.0719,-2.0822,-2.0925,-2.0925,-2.0925,-2.0925,-2.0925,-2.0925,-2.0925,-2.0968,-2.1224,-2.1623,-2.2173,-2.2669,-2.3229,-2.3795,-2.4192,-2.439,-2.4538,-2.4784,-2.4994,-2.5015,-2.5412,-2.5674,-2.5781,-2.6159,-2.6448,-2.6592,-2.6976,-2.7225,-2.732,-2.732,-2.732,-2.7309,-2.7404,-2.7594,-2.782,-2.7961,-2.829,-2.8524,-2.8571,-2.8664,-2.8803,-2.8847,-2.8891,-2.9368,-3.0006,-3.0481,-3.0931,-3.2298,-3.3392,-3.3337,-3.3192,-3.2745,-3.2118,-3.1886,-3.1705,-3.1705,-3.1705,-3.1705,-3.1705,-3.1705,-3.1705,-0.2862,-0.2877,-0.3351,-0.356,-0.3616,-0.3673,-0.4082,-0.4669,-0.5015,-0.568,-0.6208,-0.6532,-0.6706,-0.6905,-0.6882,-0.6953,-0.7173,-0.7438,-0.7657,-0.7922,-0.8014,-0.8225,-0.8731,-0.9123,-0.9412,-0.9757,-1.0147,-1.0417,-1.0637,-1.0692,-1.0798,-1.1021,-1.1126,-1.14,-1.1846,-1.2091,-1.2283,-1.2658,-1.3145,-1.3595,-1.3801,-1.4319,-1.4837,-1.5363,-1.5762,-1.6321,-1.7022,-1.7483,-1.8062,-1.8914,-1.9635,-2.0145,-2.0462,-2.0727,-2.0873,-2.0873,-2.0925,-2.0925,-2.0925,-2.0925,-2.0925,-2.0925,-2.0968,-2.1121,-2.1725,-2.2224,-2.2728,-2.3329,-2.3795,-2.4202,-2.439,-2.4529,-2.4658,-2.4981,-2.5362,-2.5635,-2.5732,-2.6169,-2.64,-2.6544,-2.6928,-2.7272,-2.7272,-2.7272,-2.732,-2.732,-2.7309,-2.7452,-2.7584,-2.7773,-2.7925,-2.816,-2.8441,-2.8617,-2.8757,-2.8814,-2.888,-2.9142,-2.9796,-3.0354,-3.0829,-3.2162,-3.3224,-3.322,-3.3037,-3.2565,-3.213,-3.1862,-3.1705,-3.1705,-3.1705,-3.1705,-3.1705,-3.1705,-3.1705,-0.2114,-0.2138,-0.2217,-0.2541,-0.2937,-0.2993,-0.3581,-0.4534,-0.4726,-0.5305,-0.6025,-0.6321,-0.6422,-0.6594,-0.6812,-0.6904,-0.6974,-0.7157,-0.7601,-0.7937,-0.7992,-0.8325,-0.8881,-0.9268,-0.9434,-0.9596,-1.0036,-1.0366,-1.0417,-1.0641,-1.0747,-1.0802,-1.1017,-1.1295,-1.1664,-1.1892,-1.2168,-1.2447,-1.2713,-1.2887,-1.3073,-1.3582,-1.4036,-1.4628,-1.526,-1.5911,-1.6527,-1.7219,-1.8115,-1.9123,-1.9376,-1.985,-2.0418,-2.0573,-2.0719,-2.0865,-2.0925,-2.0925,-2.0925,-2.0925,-2.0925,-2.0925,-2.0925,-2.1121,-2.1623,-2.1827,-2.2375,-2.3079,-2.3488,-2.3746,-2.4192,-2.439,-2.4686,-2.5137,-2.5333,-2.5489,-2.5693,-2.6014,-2.6197,-2.6294,-2.6688,-2.6986,-2.7081,-2.7177,-2.732,-2.732,-2.7309,-2.7357,-2.7489,-2.7584,-2.7736,-2.816,-2.8441,-2.8571,-2.871,-2.8757,-2.8869,-2.9022,-2.9591,-3.0368,-3.1002,-3.1908,-3.2737,-3.3148,-3.2779,-3.2383,-3.2004,-3.1717,-3.1705,-3.1673,-3.1705,-3.1705,-3.1705,-3.1705,-3.1705,-0.1634,-0.1608,-0.1751,-0.2019,-0.2356,-0.2581,-0.3271,-0.4088,-0.449,-0.5047,-0.5702,-0.5933,-0.6074,-0.6267,-0.6601,-0.6769,-0.673,-0.7046,-0.749,-0.7989,-0.8269,-0.8605,-0.8881,-0.9161,-0.9268,-0.9434,-0.9871,-1.0143,-1.0312,-1.0582,-1.0692,-1.0747,-1.0857,-1.1076,-1.135,-1.1673,-1.2009,-1.2287,-1.2459,-1.2623,-1.2688,-1.3024,-1.3584,-1.4173,-1.4802,-1.5394,-1.6337,-1.7113,-1.7905,-1.8743,-1.9168,-1.9583,-2.0101,-2.0418,-2.0624,-2.0865,-2.0925,-2.0925,-2.0925,-2.0925,-2.0925,-2.0925,-2.0925,-2.1078,-2.1326,-2.1522,-2.208,-2.2476,-2.2979,-2.3438,-2.3786,-2.4143,-2.4538,-2.4833,-2.5079,-2.5284,-2.5635,-2.5955,-2.6052,-2.6197,-2.6544,-2.689,-2.689,-2.7129,-2.7272,-2.732,-2.732,-2.7357,-2.7441,-2.7499,-2.7594,-2.7972,-2.8207,-2.8254,-2.843,-2.8571,-2.8871,-2.9012,-2.9419,-3.0215,-3.107,-3.1748,-3.2294,-3.2676,-3.2464,-3.2188,-3.1821,-3.1572,-3.1617,-3.1629,-3.1673,-3.1705,-3.1705,-3.1705,-3.1705,-0.1341,-0.1318,-0.164,-0.1742,-0.1908,-0.2356,-0.2975,-0.3645,-0.4151,-0.4805,-0.5433,-0.5504,-0.5686,-0.5956,-0.6253,-0.6483,-0.6659,-0.7046,-0.7546,-0.8045,-0.8491,-0.8768,-0.8826,-0.8937,-0.9103,-0.9323,-0.9651,-0.9926,-1.0202,-1.0472,-1.0692,-1.0692,-1.0747,-1.0857,-1.1168,-1.1433,-1.1697,-1.1967,-1.2206,-1.2372,-1.2415,-1.2595,-1.3084,-1.3763,-1.4396,-1.5247,-1.6287,-1.7008,-1.7483,-1.8213,-1.8855,-1.9272,-1.9628,-2.0153,-2.0514,-2.0763,-2.0873,-2.0925,-2.0925,-2.0925,-2.0925,-2.0925,-2.0925,-2.0925,-2.1019,-2.1326,-2.1623,-2.1878,-2.2636,-2.3029,-2.3488,-2.3895,-2.4341,-2.4578,-2.4784,-2.5137,-2.5538,-2.5868,-2.6042,-2.61,-2.6496,-2.6747,-2.69,-2.7081,-2.7262,-2.732,-2.732,-2.7309,-2.7357,-2.7404,-2.7499,-2.7678,-2.7831,-2.7878,-2.8113,-2.8348,-2.8722,-2.9066,-2.9395,-3.0068,-3.0954,-3.1638,-3.1973,-3.2183,-3.2242,-3.1934,-3.143,-3.1362,-3.1451,-3.154,-3.1629,-3.1661,-3.1705,-3.1705,-3.1705,-0.11,-0.1298,-0.1368,-0.1533,-0.1797,-0.1963,-0.2579,-0.3587,-0.3754,-0.4438,-0.5252,-0.5475,-0.5524,-0.5587,-0.5925,-0.62,-0.6502,-0.699,-0.7598,-0.8374,-0.8484,-0.8595,-0.8654,-0.8768,-0.8937,-0.9103,-0.9323,-0.9655,-0.9926,-1.0202,-1.0472,-1.0692,-1.0692,-1.0857,-1.1051,-1.1261,-1.1509,-1.1709,-1.1798,-1.1832,-1.189,-1.2073,-1.2423,-1.3005,-1.3997,-1.517,-1.6178,-1.663,-1.7001,-1.7483,-1.8016,-1.8639,-1.9272,-1.9732,-2.0153,-2.0565,-2.0771,-2.0865,-2.0925,-2.0925,-2.0925,-2.0925,-2.0925,-2.0925,-2.0925,-2.1019,-2.1318,-2.1573,-2.1928,-2.2476,-2.3229,-2.3985,-2.4341,-2.448,-2.4677,-2.4932,-2.5137,-2.5479,-2.5781,-2.5878,-2.611,-2.6352,-2.6602,-2.6853,-2.7034,-2.7225,-2.732,-2.732,-2.732,-2.732,-2.7404,-2.7536,-2.7594,-2.7689,-2.7914,-2.816,-2.8436,-2.8746,-2.9122,-2.9526,-3.0417,-3.107,-3.1278,-3.1663,-3.211,-3.1692,-3.1058,-3.1184,-3.1261,-3.1395,-3.154,-3.1617,-3.1661,-3.1661,-3.1705,-0.0577,-0.0738,-0.1023,-0.13,-0.1572,-0.1907,-0.2468,-0.3197,-0.3811,-0.437,-0.4938,-0.5261,-0.542,-0.5442,-0.5762,-0.6039,-0.6454,-0.7049,-0.7657,-0.8208,-0.8374,-0.854,-0.854,-0.8712,-0.8881,-0.8823,-0.9154,-0.9489,-0.9655,-0.9926,-1.0198,-1.0472,-1.0523,-1.0581,-1.085,-1.1112,-1.1292,-1.1405,-1.1583,-1.1657,-1.1679,-1.1709,-1.2019,-1.2616,-1.3854,-1.5094,-1.568,-1.6262,-1.6736,-1.712,-1.749,-1.8062,-1.8952,-1.9465,-1.9939,-2.0411,-2.0617,-2.0771,-2.0865,-2.0925,-2.0925,-2.0925,-2.0925,-2.0925,-2.0925,-2.0925,-2.1019,-2.1318,-2.1623,-2.2123,-2.3179,-2.3578,-2.3985,-2.4341,-2.4587,-2.4735,-2.4784,-2.5186,-2.5489,-2.5586,-2.5907,-2.6207,-2.6448,-2.6651,-2.6986,-2.7225,-2.732,-2.732,-2.732,-2.732,-2.7309,-2.7404,-2.7452,-2.7547,-2.7726,-2.7925,-2.8109,-2.8284,-2.8485,-2.8807,-2.9392,-2.9916,-3.0332,-3.0833,-3.1301,-3.1204,-3.0755,-3.0911,-3.1128,-3.1306,-3.1439,-3.1528,-3.1617,-3.1661,-3.1717,0.0057,-0.0057,-0.0566,-0.0956,-0.1346,-0.1851,-0.23,-0.2862,-0.3755,-0.4201,-0.4594,-0.5044,-0.522,-0.5439,-0.5607,-0.5938,-0.6495,-0.6996,-0.7604,-0.8152,-0.8211,-0.8318,-0.8429,-0.8598,-0.8657,-0.854,-0.8989,-0.9323,-0.9489,-0.9651,-0.9978,-1.0249,-1.0265,-1.0357,-1.0518,-1.089,-1.1125,-1.1067,-1.1452,-1.17,-1.1648,-1.16,-1.1857,-1.2526,-1.3405,-1.4349,-1.4885,-1.5591,-1.6296,-1.6844,-1.7094,-1.774,-1.8468,-1.9257,-1.9791,-2.0264,-2.0418,-2.0617,-2.0763,-2.0873,-2.0925,-2.0925,-2.0925,-2.0925,-2.0925,-2.0925,-2.0925,-2.107,-2.142,-2.2021,-2.2929,-2.3329,-2.3587,-2.3945,-2.4282,-2.444,-2.4538,-2.4883,-2.5137,-2.5284,-2.5567,-2.5907,-2.6255,-2.6544,-2.688,-2.7177,-2.7272,-2.732,-2.732,-2.732,-2.7309,-2.7309,-2.7357,-2.7404,-2.7536,-2.7631,-2.7826,-2.7931,-2.7988,-2.8227,-2.8545,-2.9048,-2.9606,-2.9969,-3.0264,-3.0278,-3.0468,-3.0615,-3.0814,-3.1128,-3.1306,-3.1439,-3.1528,-3.1673,-3.1717,0.0456,0.0,-0.0114,-0.0625,-0.1235,-0.1402,-0.1907,-0.2637,-0.2917,-0.3587,-0.4424,-0.4594,-0.4931,-0.5268,-0.5437,-0.5882,-0.6437,-0.6882,-0.7435,-0.8045,-0.8048,-0.7881,-0.8156,-0.8432,-0.8432,-0.8325,-0.8716,-0.9158,-0.9323,-0.9489,-0.9695,-1.0112,-1.0116,-1.013,-1.0331,-1.065,-1.0781,-1.0798,-1.1256,-1.1583,-1.1522,-1.1559,-1.1726,-1.2274,-1.285,-1.3255,-1.39,-1.4729,-1.5344,-1.5578,-1.6773,-1.7509,-1.795,-1.8572,-1.9101,-1.9583,-2.0101,-2.0403,-2.0562,-2.0755,-2.0865,-2.0925,-2.0917,-2.0925,-2.0925,-2.0925,-2.0925,-2.1019,-2.1326,-2.1776,-2.1979,-2.2677,-2.3229,-2.3529,-2.3886,-2.4251,-2.4291,-2.4489,-2.4745,-2.4932,-2.5226,-2.5567,-2.5907,-2.6245,-2.6592,-2.688,-2.7129,-2.7225,-2.7309,-2.7309,-2.732,-2.732,-2.732,-2.732,-2.7357,-2.7404,-2.7473,-2.7557,-2.7615,-2.771,-2.8079,-2.8455,-2.885,-2.9152,-2.9628,-2.9941,-3.0123,-3.0273,-3.0578,-3.0859,-3.1071,-3.1294,-3.1439,-3.1572,-3.1717,0.0847,0.0449,0.0283,-0.017,-0.0786,-0.1009,-0.1402,-0.2019,-0.2468,-0.3029,-0.3533,-0.3923,-0.4369,-0.4817,-0.4931,-0.5431,-0.61,-0.6604,-0.7102,-0.7657,-0.7662,-0.7662,-0.7881,-0.8266,-0.8266,-0.8269,-0.8605,-0.8992,-0.9106,-0.9103,-0.9387,-0.9628,-0.97,-0.9804,-1.0036,-1.041,-1.0489,-1.0626,-1.1156,-1.1614,-1.1583,-1.162,-1.1795,-1.1937,-1.2259,-1.2566,-1.3044,-1.4263,-1.496,-1.5338,-1.6426,-1.7074,-1.7536,-1.801,-1.8639,-1.922,-1.9687,-2.0017,-2.024,-2.0527,-2.0649,-2.0686,-2.0805,-2.0917,-2.0925,-2.0925,-2.0925,-2.0968,-2.1019,-2.1428,-2.1725,-2.2224,-2.2677,-2.3229,-2.3578,-2.3836,-2.4093,-2.4242,-2.439,-2.4587,-2.4883,-2.5226,-2.5518,-2.5858,-2.6245,-2.6592,-2.689,-2.7081,-2.7214,-2.7262,-2.7272,-2.732,-2.732,-2.732,-2.732,-2.732,-2.732,-2.7357,-2.7357,-2.7452,-2.7541,-2.7925,-2.81,-2.8296,-2.8769,-2.949,-2.9732,-2.9897,-3.0216,-3.0578,-3.0859,-3.1128,-3.1306,-3.1484,-3.1572,0.1234,0.0953,0.0617,0.0168,-0.0336,-0.0729,-0.1065,-0.1402,-0.2132,-0.2581,-0.275,-0.3197,-0.3754,-0.4201,-0.4536,-0.4983,-0.5822,-0.6379,-0.6824,-0.7268,-0.7438,-0.7496,-0.7773,-0.8048,-0.8211,-0.8156,-0.8605,-0.8881,-0.8927,-0.8893,-0.9033,-0.9208,-0.9369,-0.938,-0.957,-1.0094,-1.0275,-1.0608,-1.1203,-1.1704,-1.1774,-1.1774,-1.1723,-1.1524,-1.1924,-1.2134,-1.2274,-1.3338,-1.4258,-1.485,-1.5777,-1.6666,-1.7107,-1.7595,-1.8279,-1.8914,-1.9175,-1.9479,-1.9829,-2.0233,-2.0412,-2.0393,-2.0637,-2.0783,-2.0822,-2.0822,-2.0925,-2.0925,-2.0925,-2.107,-2.1428,-2.1674,-2.2123,-2.2627,-2.302,-2.3329,-2.3746,-2.4003,-2.4053,-2.4301,-2.4597,-2.4883,-2.5177,-2.5479,-2.5858,-2.6149,-2.6496,-2.6747,-2.688,-2.7071,-2.7177,-2.7272,-2.732,-2.732,-2.732,-2.732,-2.732,-2.7309,-2.7309,-2.7357,-2.7357,-2.7419,-2.7562,-2.7794,-2.84,-2.903,-2.9216,-2.9531,-2.9943,-3.0363,-3.0691,-3.0916,-3.1038,-3.1261,-3.1484,0.157,0.1234,0.0953,0.0504,-0.0112,-0.0617,-0.1065,-0.1346,-0.1739,-0.2244,-0.2637,-0.2806,-0.3141,-0.3699,-0.4257,-0.4927,-0.5654,-0.6102,-0.6546,-0.7046,-0.7268,-0.7438,-0.7607,-0.7878,-0.8156,-0.8146,-0.8592,-0.8881,-0.8896,-0.8801,-0.8888,-0.908,-0.8954,-0.8966,-0.9283,-0.9792,-0.9975,-1.0196,-1.1101,-1.178,-1.1956,-1.1883,-1.1723,-1.1548,-1.1463,-1.1452,-1.1594,-1.248,-1.3111,-1.3815,-1.5028,-1.6057,-1.6725,-1.7325,-1.7753,-1.8279,-1.8795,-1.9302,-1.9428,-1.9782,-2.0084,-2.0138,-2.04,-2.0514,-2.0624,-2.0771,-2.0865,-2.0925,-2.0925,-2.0925,-2.1121,-2.1479,-2.1725,-2.2123,-2.2568,-2.2979,-2.3388,-2.3904,-2.4003,-2.4102,-2.4399,-2.4637,-2.4883,-2.5177,-2.5479,-2.5761,-2.6052,-2.6352,-2.664,-2.6928,-2.7034,-2.7177,-2.732,-2.732,-2.732,-2.732,-2.732,-2.732,-2.732,-2.732,-2.732,-2.732,-2.732,-2.761,-2.8157,-2.8545,-2.8858,-2.9255,-2.9715,-3.0125,-3.0454,-3.0589,-3.0668,-3.0982,-3.1362,0.1627,0.129,0.1009,0.0617,0.0168,-0.0392,-0.0785,-0.1065,-0.1402,-0.1795,-0.2132,-0.2188,-0.2524,-0.3139,-0.3755,-0.4369,-0.4983,-0.5433,-0.6047,-0.6824,-0.7099,-0.7432,-0.7823,-0.81,-0.8266,-0.8348,-0.8578,-0.8747,-0.8781,-0.873,-0.8759,-0.8685,-0.8782,-0.884,-0.9046,-0.9462,-0.973,-1.0247,-1.1052,-1.1819,-1.2063,-1.1944,-1.177,-1.162,-1.1364,-1.1227,-1.1388,-1.1989,-1.248,-1.3217,-1.4556,-1.5673,-1.6246,-1.6944,-1.7694,-1.7793,-1.822,-1.8561,-1.878,-1.9332,-1.9575,-1.9706,-1.9964,-2.0241,-2.0351,-2.0514,-2.0668,-2.0676,-2.0822,-2.0865,-2.0968,-2.1275,-2.1725,-2.2072,-2.2274,-2.2929,-2.3438,-2.3696,-2.4003,-2.4102,-2.4211,-2.4449,-2.4637,-2.4784,-2.503,-2.5274,-2.5713,-2.6207,-2.6592,-2.6976,-2.7034,-2.7044,-2.7177,-2.732,-2.732,-2.732,-2.732,-2.732,-2.732,-2.732,-2.732,-2.732,-2.732,-2.732,-2.7599,-2.8014,-2.8477,-2.8978,-2.9485,-2.9852,-3.0261,-3.0397,-3.0532,-3.0826,-3.1139,0.1627,0.1402,0.1065,0.0785,0.0448,-0.0112,-0.0617,-0.0897,-0.1177,-0.1514,-0.1739,-0.1851,-0.2132,-0.2693,-0.3197,-0.3699,-0.4314,-0.4706,-0.5375,-0.6156,-0.6879,-0.7379,-0.7753,-0.8134,-0.8426,-0.843,-0.8551,-0.8635,-0.8598,-0.857,-0.8479,-0.8378,-0.8591,-0.8706,-0.8768,-0.9119,-0.9568,-1.0278,-1.098,-1.1684,-1.2065,-1.185,-1.177,-1.1624,-1.1425,-1.1194,-1.1315,-1.1712,-1.2059,-1.2788,-1.4185,-1.5275,-1.5777,-1.6846,-1.7516,-1.7687,-1.7905,-1.8046,-1.8275,-1.8667,-1.9,-1.9273,-1.9624,-2.0034,-2.0138,-2.0359,-2.0522,-2.0522,-2.0771,-2.0873,-2.0917,-2.1121,-2.1369,-2.1827,-2.2232,-2.2987,-2.3596,-2.3696,-2.3895,-2.4152,-2.4211,-2.4251,-2.4399,-2.444,-2.4587,-2.4833,-2.5323,-2.5955,-2.6448,-2.688,-2.6976,-2.6938,-2.7129,-2.7272,-2.7177,-2.7225,-2.7272,-2.732,-2.732,-2.732,-2.732,-2.732,-2.732,-2.732,-2.732,-2.7499,-2.7914,-2.8606,-2.9255,-2.9623,-2.9943,-3.0216,-3.0454,-3.0736,-3.0972,0.1795,0.1739,0.1121,0.0897,0.0785,-0.0056,-0.0561,-0.0953,-0.1177,-0.1514,-0.1795,-0.1851,-0.2132,-0.2581,-0.275,-0.3085,-0.3699,-0.4538,-0.4985,-0.5596,-0.6376,-0.7146,-0.761,-0.8044,-0.8358,-0.838,-0.8468,-0.8438,-0.8395,-0.8347,-0.8381,-0.8497,-0.846,-0.8436,-0.8574,-0.8895,-0.9478,-1.0164,-1.0844,-1.1303,-1.1609,-1.1653,-1.1576,-1.1515,-1.134,-1.1194,-1.1194,-1.1379,-1.1781,-1.2399,-1.3779,-1.4968,-1.5689,-1.6846,-1.7463,-1.7635,-1.7635,-1.7752,-1.7896,-1.821,-1.8617,-1.8938,-1.9361,-1.9732,-1.9887,-2.0308,-2.047,-2.0522,-2.0719,-2.0873,-2.0925,-2.0976,-2.1173,-2.1471,-2.1979,-2.2426,-2.2979,-2.3338,-2.3587,-2.4053,-2.4211,-2.4251,-2.4251,-2.4301,-2.4341,-2.4587,-2.4932,-2.5518,-2.6149,-2.6592,-2.6832,-2.6928,-2.7119,-2.7177,-2.7044,-2.7092,-2.7272,-2.732,-2.732,-2.732,-2.732,-2.732,-2.732,-2.732,-2.732,-2.7357,-2.7404,-2.7998,-2.856,-2.9209,-2.9669,-2.9988,-3.0261,-3.0499,-3.0736,0.1795,0.1739,0.1346,0.1065,0.0841,0.0168,-0.0448,-0.0897,-0.1177,-0.1514,-0.1795,-0.1795,-0.1907,-0.2132,-0.2188,-0.2468,-0.3085,-0.3757,-0.4426,-0.5483,-0.6482,-0.7221,-0.7713,-0.8081,-0.8508,-0.8454,-0.8425,-0.834,-0.8337,-0.8191,-0.8231,-0.8282,-0.8279,-0.8306,-0.8457,-0.873,-0.9287,-0.9823,-1.0456,-1.0932,-1.1207,-1.148,-1.152,-1.1501,-1.1312,-1.1208,-1.1194,-1.1194,-1.1668,-1.2444,-1.3521,-1.4527,-1.5561,-1.6728,-1.7351,-1.7582,-1.7589,-1.7589,-1.7641,-1.7957,-1.8279,-1.8593,-1.8959,-1.9279,-1.9428,-1.9887,-2.0197,-2.0403,-2.0668,-2.0873,-2.0925,-2.1078,-2.1275,-2.1428,-2.1725,-2.2072,-2.24,-2.2844,-2.327,-2.3678,-2.4044,-2.4211,-2.4211,-2.4211,-2.4251,-2.4341,-2.4686,-2.5128,-2.5761,-2.6245,-2.6438,-2.664,-2.6832,-2.7023,-2.6938,-2.7081,-2.732,-2.732,-2.732,-2.732,-2.732,-2.732,-2.732,-2.732,-2.732,-2.7309,-2.7357,-2.7441,-2.7904,-2.8606,-2.9209,-2.9715,-2.9988,-3.0261,-3.0499,0.1795,0.1795,0.1514,0.1234,0.0841,0.0448,-0.0112,-0.0617,-0.0897,-0.1346,-0.1795,-0.1795,-0.1795,-0.1795,-0.1851,-0.2019,-0.2524,-0.3083,-0.3921,-0.4914,-0.6051,-0.6996,-0.763,-0.8125,-0.844,-0.8446,-0.8282,-0.8194,-0.818,-0.8035,-0.8119,-0.8174,-0.8204,-0.8218,-0.8337,-0.8563,-0.8914,-0.9322,-0.9792,-1.0463,-1.0782,-1.1043,-1.1311,-1.1347,-1.1255,-1.1208,-1.1194,-1.1198,-1.1403,-1.2238,-1.3215,-1.4333,-1.5357,-1.6331,-1.7173,-1.7483,-1.7589,-1.7589,-1.7694,-1.7859,-1.8069,-1.8331,-1.8593,-1.8757,-1.8914,-1.942,-1.9783,-2.0034,-2.0454,-2.0822,-2.0873,-2.1027,-2.1121,-2.1224,-2.1623,-2.1962,-2.2139,-2.2465,-2.2909,-2.3343,-2.3556,-2.3772,-2.4202,-2.4202,-2.4301,-2.439,-2.4695,-2.5039,-2.543,-2.5761,-2.5955,-2.6149,-2.64,-2.663,-2.687,-2.7071,-2.7262,-2.732,-2.732,-2.732,-2.732,-2.732,-2.732,-2.732,-2.732,-2.732,-2.7357,-2.7404,-2.7631,-2.7998,-2.8699,-2.9439,-2.9874,-3.0148,-3.0227,0.1795,0.1795,0.1795,0.1402,0.0953,0.0897,0.0504,-0.0112,-0.0448,-0.1009,-0.1739,-0.1795,-0.1795,-0.1795,-0.1795,-0.1907,-0.2075,-0.258,-0.3192,-0.4009,-0.5399,-0.6278,-0.704,-0.7666,-0.8233,-0.8248,-0.8157,-0.8035,-0.8015,-0.8002,-0.8012,-0.8012,-0.8042,-0.813,-0.8292,-0.837,-0.8549,-0.8798,-0.913,-0.9693,-1.0145,-1.0425,-1.0816,-1.0995,-1.1217,-1.1194,-1.1194,-1.1194,-1.1388,-1.1855,-1.297,-1.3999,-1.4881,-1.6196,-1.7095,-1.7529,-1.7582,-1.7589,-1.7641,-1.7859,-1.7964,-1.8069,-1.8331,-1.8429,-1.8534,-1.8952,-1.948,-1.9724,-2.0205,-2.0617,-2.0771,-2.0925,-2.0968,-2.1105,-2.1446,-2.1551,-2.172,-2.1844,-2.2191,-2.2577,-2.2818,-2.3139,-2.3772,-2.4202,-2.4291,-2.4489,-2.4745,-2.499,-2.5137,-2.5274,-2.5411,-2.5664,-2.5917,-2.6245,-2.6534,-2.6965,-2.7214,-2.7262,-2.732,-2.732,-2.732,-2.732,-2.732,-2.732,-2.732,-2.732,-2.732,-2.732,-2.7584,-2.7951,-2.8513,-2.9174,-2.96,-2.9977,-3.0102,0.1795,0.1795,0.1795,0.157,0.1177,0.0953,0.0617,0.0224,-0.0448,-0.1121,-0.1683,-0.1795,-0.1795,-0.1795,-0.1795,-0.1795,-0.1907,-0.2411,-0.291,-0.3142,-0.4642,-0.5578,-0.6388,-0.7185,-0.7855,-0.8029,-0.7998,-0.7988,-0.7995,-0.7988,-0.7988,-0.7988,-0.7992,-0.8012,-0.8096,-0.8151,-0.8191,-0.8336,-0.8687,-0.908,-0.9373,-0.9965,-1.0462,-1.0654,-1.0998,-1.1145,-1.1194,-1.1194,-1.1388,-1.1732,-1.2849,-1.3599,-1.4635,-1.606,-1.6591,-1.7246,-1.7575,-1.7589,-1.7589,-1.7694,-1.7859,-1.7964,-1.8062,-1.822,-1.8429,-1.8729,-1.9101,-1.942,-1.9835,-2.0248,-2.0565,-2.0822,-2.0909,-2.0845,-2.0977,-2.0843,-2.0898,-2.1056,-2.1315,-2.1707,-2.1987,-2.2719,-2.3412,-2.3935,-2.4093,-2.4242,-2.4498,-2.4498,-2.4597,-2.4735,-2.4873,-2.5128,-2.543,-2.5761,-2.6149,-2.6534,-2.688,-2.7034,-2.7177,-2.732,-2.732,-2.732,-2.732,-2.732,-2.732,-2.732,-2.732,-2.7357,-2.7584,-2.7951,-2.842,-2.8978,-2.9497,-2.9783,-2.9931,0.1795,0.1795,0.1795,0.1683,0.1458,0.129,0.0897,0.0224,-0.0392,-0.1065,-0.1683,-0.1795,-0.1795,-0.1795,-0.1795,-0.1795,-0.1851,-0.2131,-0.2558,-0.2736,-0.3847,-0.4945,-0.5893,-0.6675,-0.7425,-0.7802,-0.7988,-0.7988,-0.7988,-0.7988,-0.7988,-0.7988,-0.7988,-0.7995,-0.7998,-0.8041,-0.8038,-0.8137,-0.8382,-0.863,-0.8973,-0.9418,-0.9965,-1.0314,-1.0609,-1.0953,-1.1051,-1.1217,-1.1452,-1.1925,-1.2459,-1.3143,-1.4384,-1.5299,-1.59,-1.6703,-1.7331,-1.7457,-1.7589,-1.7589,-1.7747,-1.7971,-1.7911,-1.801,-1.822,-1.8422,-1.8736,-1.9101,-1.9457,-1.9879,-2.0248,-2.0506,-2.0688,-2.0684,-2.0758,-2.0575,-2.0588,-2.0769,-2.0925,-2.123,-2.1594,-2.2343,-2.3082,-2.3484,-2.3845,-2.4053,-2.4211,-2.4211,-2.4211,-2.4341,-2.448,-2.4695,-2.4941,-2.5274,-2.5664,-2.61,-2.6448,-2.6709,-2.6938,-2.7119,-2.732,-2.732,-2.732,-2.732,-2.732,-2.732,-2.732,-2.7404,-2.7584,-2.7809,-2.8149,-2.8699,-2.9347,-2.9634,-2.9748,0.1795,0.1795,0.1795,0.1795,0.1795,0.1739,0.1121,0.0,0.0,0.0,-0.1795,-0.1795,-0.1795,-0.1795,-0.1795,-0.1795,-0.1791,-0.1847,-0.21,-0.2505,-0.316,-0.4306,-0.5263,-0.6095,-0.6865,-0.755,-0.7939,-0.7988,-0.7988,-0.7942,-0.7942,-0.7939,-0.7889,-0.7889,-0.7939,-0.7988,-0.7988,-0.8038,-0.8088,-0.8333,-0.8627,-0.8874,-0.9373,-0.9817,-1.0265,-1.0605,-1.0801,-1.1056,-1.1154,-1.153,-1.1994,-1.2639,-1.3489,-1.4447,-1.5241,-1.606,-1.6852,-1.7233,-1.7536,-1.7589,-1.7694,-1.7859,-1.7747,-1.7799,-1.7957,-1.8115,-1.8272,-1.8632,-1.899,-1.9406,-1.9879,-2.0138,-2.0447,-2.0562,-2.0743,-2.0707,-2.0718,-2.0809,-2.0863,-2.1129,-2.1412,-2.2045,-2.29,-2.3388,-2.3795,-2.4053,-2.4211,-2.4211,-2.4211,-2.4211,-2.4301,-2.435,-2.4597,-2.4833,-2.5177,-2.5567,-2.5868,-2.6169,-2.6554,-2.6832,-2.7023,-2.7272,-2.7272,-2.7272,-2.732,-2.732,-2.732,-2.7357,-2.7489,-2.7726,-2.7961,-2.842,-2.9071,-2.9347,-2.9542,0.1795,0.1795,0.1795,0.1795,0.1795,0.1795,0.1121,0.0,0.0,-0.0673,-0.1795,-0.1795,-0.1795,-0.1795,-0.1795,-0.1795,-0.1787,-0.1826,-0.1853,-0.2147,-0.2537,-0.3209,-0.4128,-0.5199,-0.6084,-0.6936,-0.7487,-0.7839,-0.7889,-0.7842,-0.7743,-0.7693,-0.7793,-0.7743,-0.7842,-0.7892,-0.7939,-0.7988,-0.7988,-0.8137,-0.8333,-0.8577,-0.8977,-0.9426,-0.9871,-1.0261,-1.0654,-1.085,-1.0998,-1.1281,-1.175,-1.24,-1.3434,-1.4166,-1.4949,-1.6392,-1.6975,-1.7331,-1.7536,-1.7589,-1.7641,-1.7747,-1.7641,-1.7799,-1.7859,-1.7905,-1.7905,-1.8265,-1.8572,-1.9042,-1.9561,-1.9931,-2.0241,-2.0483,-2.0676,-2.0683,-2.0678,-2.0626,-2.0712,-2.0909,-2.1195,-2.1871,-2.271,-2.3388,-2.3746,-2.4053,-2.4211,-2.4211,-2.4211,-2.4211,-2.4211,-2.426,-2.4301,-2.4538,-2.4686,-2.503,-2.5333,-2.5625,-2.6014,-2.6448,-2.6736,-2.6928,-2.7071,-2.7225,-2.7272,-2.732,-2.732,-2.7357,-2.7441,-2.7536,-2.7773,-2.8233,-2.8699,-2.9024,-2.9301,0.1795,0.1795,0.1795,0.1795,0.1795,0.1795,0.1234,0.0392,0.0112,-0.0561,-0.1402,-0.1683,-0.1795,-0.1795,-0.1795,-0.1794,-0.1792,-0.182,-0.179,-0.1866,-0.2038,-0.2672,-0.3446,-0.4178,-0.5131,-0.6032,-0.6734,-0.7185,-0.749,-0.7643,-0.7593,-0.7646,-0.7696,-0.7746,-0.7842,-0.7942,-0.7988,-0.7988,-0.7988,-0.7988,-0.8137,-0.8336,-0.8634,-0.9031,-0.9525,-0.9969,-1.0413,-1.056,-1.0801,-1.1002,-1.1409,-1.1829,-1.2692,-1.3338,-1.4539,-1.578,-1.6329,-1.6944,-1.7384,-1.7589,-1.7589,-1.7589,-1.7589,-1.7687,-1.7747,-1.7747,-1.7905,-1.8213,-1.837,-1.8684,-1.9198,-1.9717,-2.0086,-2.0447,-2.0519,-2.0647,-2.0543,-2.044,-2.0562,-2.074,-2.1241,-2.1853,-2.2526,-2.3188,-2.3746,-2.4053,-2.4211,-2.4211,-2.4211,-2.4211,-2.4211,-2.4211,-2.4202,-2.4301,-2.4449,-2.4587,-2.4883,-2.5177,-2.5528,-2.5917,-2.6304,-2.664,-2.688,-2.7119,-2.732,-2.732,-2.732,-2.7309,-2.7347,-2.7489,-2.7584,-2.7961,-2.8373,-2.8746,-2.9024,0.1787,0.1785,0.1787,0.1782,0.1787,0.1784,0.1449,0.0894,0.0278,-0.0335,-0.0952,-0.157,-0.1795,-0.1795,-0.1795,-0.1795,-0.1782,-0.1757,-0.1781,-0.1701,-0.1769,-0.2199,-0.2683,-0.3274,-0.4176,-0.5131,-0.5934,-0.6587,-0.6992,-0.7294,-0.7593,-0.7643,-0.7793,-0.7842,-0.7842,-0.7942,-0.7988,-0.7988,-0.7988,-0.7988,-0.7988,-0.8088,-0.8237,-0.873,-0.908,-0.943,-0.9871,-1.0216,-1.0458,-1.0659,-1.0941,-1.1264,-1.1954,-1.2625,-1.3964,-1.4802,-1.5439,-1.6275,-1.6925,-1.7259,-1.7483,-1.7555,-1.7589,-1.7635,-1.7635,-1.7635,-1.7852,-1.801,-1.816,-1.8475,-1.8945,-1.9517,-1.9931,-2.0344,-2.0582,-2.0723,-2.0734,-2.067,-2.071,-2.0899,-2.117,-2.1776,-2.2173,-2.2787,-2.3288,-2.3795,-2.4053,-2.4003,-2.4211,-2.4211,-2.4211,-2.4211,-2.4202,-2.4202,-2.4251,-2.439,-2.4538,-2.4833,-2.5079,-2.5479,-2.5917,-2.6352,-2.6736,-2.7023,-2.732,-2.732,-2.732,-2.7309,-2.7357,-2.7441,-2.7536,-2.7678,-2.8008,-2.8373,-2.8653,0.1726,0.1726,0.1726,0.1726,0.1726,0.1726,0.1619,0.1402,0.0431,-0.0329,-0.095,-0.1513,-0.1791,-0.1787,-0.1787,-0.1787,-0.1778,-0.1791,-0.1714,-0.1686,-0.1655,-0.1784,-0.2172,-0.2773,-0.3374,-0.4026,-0.4931,-0.6087,-0.6789,-0.7294,-0.7593,-0.7593,-0.7743,-0.7793,-0.7789,-0.7889,-0.7988,-0.7988,-0.7988,-0.7988,-0.7988,-0.8038,-0.8187,-0.8482,-0.8783,-0.9031,-0.9476,-0.9821,-1.0019,-1.0224,-1.1061,-1.1702,-1.244,-1.2781,-1.3416,-1.4185,-1.4635,-1.5451,-1.6374,-1.6853,-1.7082,-1.7483,-1.7589,-1.7589,-1.7589,-1.7589,-1.7694,-1.7799,-1.801,-1.8325,-1.8743,-1.9309,-1.9828,-2.0248,-2.066,-2.0763,-2.0873,-2.0925,-2.0925,-2.107,-2.1275,-2.1573,-2.1878,-2.2325,-2.2837,-2.3179,-2.3379,-2.3587,-2.4053,-2.4211,-2.4211,-2.4211,-2.4211,-2.4202,-2.4202,-2.4251,-2.439,-2.4538,-2.4784,-2.5186,-2.5577,-2.6265,-2.6842,-2.7071,-2.732,-2.732,-2.732,-2.732,-2.7357,-2.7404,-2.7441,-2.7536,-2.7584,-2.7914,-2.8196,0.1917,0.1704,0.1704,0.1704,0.1704,0.1704,0.1704,0.1544,0.0745,0.0054,-0.0602,-0.1315,-0.1755,-0.1755,-0.1755,-0.1758,-0.1804,-0.1866,-0.1794,-0.1721,-0.1697,-0.1676,-0.202,-0.2269,-0.2572,-0.3175,-0.4383,-0.5539,-0.6439,-0.7042,-0.7247,-0.7543,-0.7646,-0.7743,-0.7793,-0.7939,-0.7988,-0.7988,-0.7988,-0.7988,-0.7988,-0.8038,-0.8137,-0.8382,-0.8581,-0.8779,-0.9031,-0.9426,-0.9628,-0.9978,-1.0699,-1.1205,-1.1654,-1.1979,-1.2677,-1.3366,-1.3954,-1.4575,-1.5766,-1.6458,-1.6762,-1.7272,-1.7589,-1.7589,-1.7589,-1.7641,-1.7747,-1.7852,-1.7964,-1.822,-1.8684,-1.9257,-1.9569,-1.9939,-2.0403,-2.0668,-2.0822,-2.0925,-2.0925,-2.0968,-2.1173,-2.1326,-2.1623,-2.1878,-2.2434,-2.3179,-2.3279,-2.3479,-2.3895,-2.4102,-2.4152,-2.4211,-2.4211,-2.4211,-2.4202,-2.4202,-2.4251,-2.435,-2.4538,-2.503,-2.5616,-2.6362,-2.6996,-2.7081,-2.7225,-2.732,-2.732,-2.732,-2.732,-2.7357,-2.7357,-2.7347,-2.7404,-2.7499,-2.7736,0.2166,0.1746,0.1692,0.1692,0.1693,0.1692,0.169,0.1585,0.1057,0.0528,-0.0053,-0.1058,-0.1536,-0.1703,-0.1704,-0.1704,-0.1751,-0.1839,-0.1824,-0.1753,-0.1834,-0.1713,-0.1659,-0.1713,-0.2118,-0.2774,-0.383,-0.4734,-0.5586,-0.6439,-0.7244,-0.7543,-0.7793,-0.7988,-0.7988,-0.7988,-0.7988,-0.7988,-0.7988,-0.7988,-0.7988,-0.7988,-0.8137,-0.8283,-0.8382,-0.8531,-0.8779,-0.9031,-0.9331,-0.9731,-1.0233,-1.0704,-1.1018,-1.1298,-1.1999,-1.2681,-1.3297,-1.4331,-1.555,-1.6239,-1.6795,-1.7285,-1.7503,-1.7589,-1.7589,-1.7641,-1.7747,-1.7806,-1.7911,-1.8167,-1.8632,-1.8945,-1.9257,-1.968,-2.0101,-2.0565,-2.0719,-2.0873,-2.0925,-2.0925,-2.1019,-2.1224,-2.1377,-2.1581,-2.208,-2.2828,-2.3279,-2.3587,-2.3795,-2.3845,-2.3895,-2.4053,-2.4211,-2.4211,-2.4211,-2.4211,-2.4211,-2.435,-2.4538,-2.502,-2.5557,-2.6197,-2.6699,-2.6948,-2.7092,-2.7177,-2.7272,-2.732,-2.732,-2.732,-2.7309,-2.7309,-2.7309,-2.7404,-2.7394,0.2091,0.1634,0.1633,0.1634,0.1635,0.1635,0.1634,0.1532,0.1073,0.0714,0.0358,-0.0461,-0.119,-0.1703,-0.1704,-0.1698,-0.1731,-0.1816,-0.1745,-0.1676,-0.176,-0.1696,-0.1596,-0.1608,-0.1966,-0.2623,-0.3428,-0.4329,-0.5081,-0.6284,-0.7138,-0.7338,-0.7789,-0.7988,-0.7988,-0.7988,-0.7988,-0.7988,-0.7988,-0.7988,-0.7988,-0.7988,-0.8038,-0.8137,-0.8283,-0.8382,-0.8584,-0.8981,-0.9183,-0.943,-0.9826,-1.0364,-1.0672,-1.0927,-1.1579,-1.2261,-1.2862,-1.387,-1.5011,-1.5828,-1.645,-1.7121,-1.7272,-1.7477,-1.7477,-1.7536,-1.7641,-1.7641,-1.7747,-1.7957,-1.8318,-1.8475,-1.8788,-1.9316,-1.9835,-2.03,-2.066,-2.0814,-2.0925,-2.0925,-2.0925,-2.1019,-2.1019,-2.1224,-2.142,-2.2021,-2.2224,-2.2636,-2.3338,-2.3488,-2.3696,-2.3895,-2.4102,-2.4211,-2.4211,-2.4211,-2.4202,-2.435,-2.4538,-2.5069,-2.5509,-2.5945,-2.6352,-2.6651,-2.69,-2.7034,-2.7129,-2.7272,-2.732,-2.732,-2.732,-2.732,-2.732,-2.732,-2.7357]}]]